[[{"header":{"parameterUnit":"m.s-1","parameterCategory":1,"la1":30.6,"la2":28.766,"lo1":-90.7593,"lo2":-88.6598,"dy":0.0162,"dx":0.0183,"nx":116,"ny":114,"refTime":"2023-08-30T06:00:00:Z","depth":0,"parameterNumber":2,"parameterNumberName":"U-component_of_WINDS"},"data":[0.0,0.0,0.0,0.0,0.0,0.0,0.0,0.0,0.0,0.0,0.0,0.0,0.0,0.0,0.0,0.0,0.0,0.0,0.0,0.0,0.0,0.0,0.0,0.0,0.0,0.0,0.0,0.0,0.0,0.0,0.0,0.0,0.0,0.0,0.0,0.0,0.0,0.0,0.0,0.0,0.0,0.0,0.0,0.0,0.0,0.0,0.0,0.0,0.0,0.0,0.0,0.0,0.0,0.0,0.0,0.0,0.0,0.0,0.0,0.0,0.0,0.0,0.0,0.0,0.0,0.0,0.0,0.0,0.0,0.0,0.0,0.0,0.0,0.0,0.0,0.0,0.0,0.0,0.0,0.0,0.0,0.0,0.0,0.0,0.0,0.0,0.0,0.0,0.0,0.0,0.0,0.0,0.0,0.0,0.0,0.0,0.0,0.0,0.0,0.0,0.0,0.0,0.0,0.0,0.0,0.0,0.0,0.0,0.0,0.0,0.0,0.0,0.0,0.0,0.0,0.0,0.0,0.0,0.0,0.0,0.0,0.0,0.0,0.0,0.0,0.0,0.0,0.0,0.0,0.0,0.0,0.0,0.0,0.0,0.0,0.0,0.0,0.0,0.0,0.0,0.0,0.0,0.0,0.0,0.0,0.0,0.0,0.0,0.0,0.0,0.0,0.0,0.0,0.0,0.0,0.0,0.0,0.0,0.0,0.0,0.0,0.0,0.0,0.0,0.0,0.0,0.0,0.0,0.0,0.0,0.0,0.0,0.0,0.0,0.0,0.0,0.0,0.0,0.0,0.0,0.0,0.0,0.0,0.0,0.0,0.0,0.0,0.0,0.0,0.0,0.0,0.0,0.0,0.0,0.0,0.0,0.0,0.0,0.0,0.0,0.0,0.0,0.0,0.0,0.0,0.0,0.0,0.0,0.0,0.0,0.0,0.0,0.0,0.0,0.0,0.0,0.0,0.0,0.0,0.0,0.0,0.0,0.0,0.0,0.0,0.0,0.0,0.0,0.0,0.0,0.0,0.0,0.0,0.0,0.0,0.0,0.0,0.0,0.0,0.0,0.0,0.0,0.0,0.0,0.0,0.0,0.0,0.0,0.0,0.0,0.0,0.0,0.0,0.0,0.0,0.0,0.0,0.0,0.0,0.0,0.0,0.0,0.0,0.0,0.0,0.0,0.0,0.0,0.0,0.0,0.0,0.0,0.0,0.0,0.0,0.0,0.0,0.0,0.0,0.0,0.0,0.0,0.0,0.0,0.0,0.0,0.0,0.0,0.0,0.0,0.0,0.0,0.0,0.0,0.0,0.0,0.0,0.0,0.0,0.0,0.0,0.0,0.0,0.0,0.0,0.0,0.0,0.0,0.0,0.0,0.0,0.0,0.0,0.0,0.0,0.0,0.0,0.0,0.0,0.0,0.0,0.0,0.0,0.0,0.0,0.0,0.0,0.0,0.0,0.0,0.0,0.0,0.0,0.0,0.0,0.0,0.0,0.0,0.0,0.0,0.0,0.0,0.0,0.0,0.0,0.0,0.0,0.0,0.0,0.0,0.0,0.0,0.0,0.0,0.0,0.0,0.0,0.0,0.0,0.0,0.0,0.0,0.0,0.0,0.0,0.0,0.0,0.0,0.0,0.0,0.0,0.0,0.0,0.0,0.0,0.0,0.0,0.0,0.0,0.0,0.0,0.0,0.0,0.0,0.0,0.0,0.0,0.0,0.0,0.0,0.0,0.0,0.0,0.0,0.0,0.0,0.0,0.0,0.0,0.0,0.0,0.0,0.0,0.0,0.0,0.0,0.0,0.0,0.0,0.0,0.0,0.0,0.0,0.0,0.0,0.0,0.0,0.0,0.0,0.0,0.0,0.0,0.0,0.0,0.0,0.0,0.0,0.0,0.0,0.0,0.0,0.0,0.0,0.0,0.0,0.0,0.0,0.0,0.0,0.0,0.0,0.0,0.0,0.0,0.0,0.0,0.0,0.0,0.0,0.0,0.0,0.0,0.0,0.0,0.0,0.0,0.0,0.0,0.0,0.0,0.0,0.0,0.0,0.0,0.0,0.0,0.0,0.0,0.0,0.0,0.0,0.0,0.0,0.0,0.0,0.0,0.0,0.0,0.0,0.0,0.0,0.0,0.0,0.0,0.0,0.0,0.0,0.0,0.0,0.0,0.0,0.0,0.0,0.0,0.0,0.0,0.0,0.0,0.0,0.0,0.0,0.0,0.0,0.0,0.0,0.0,0.0,0.0,0.0,0.0,0.0,0.0,0.0,0.0,0.0,0.0,0.0,0.0,0.0,0.0,0.0,0.0,0.0,0.0,0.0,0.0,0.0,0.0,0.0,0.0,0.0,0.0,0.0,0.0,0.0,0.0,0.0,0.0,0.0,0.0,0.0,0.0,0.0,0.0,0.0,0.0,0.0,0.0,0.0,0.0,0.0,0.0,0.0,0.0,0.0,0.0,0.0,0.0,0.0,0.0,0.0,0.0,0.0,0.0,0.0,0.0,0.0,0.0,0.0,0.0,0.0,0.0,0.0,0.0,0.0,0.0,0.0,0.0,0.0,0.0,0.0,0.0,0.0,0.0,0.0,0.0,0.0,0.0,0.0,0.0,0.0,0.0,0.0,0.0,0.0,0.0,0.0,0.0,0.0,0.0,0.0,0.0,0.0,0.0,0.0,0.0,0.0,0.0,0.0,0.0,0.0,0.0,0.0,0.0,0.0,0.0,0.0,0.0,0.0,0.0,0.0,0.0,0.0,0.0,0.0,0.0,0.0,0.0,0.0,0.0,0.0,0.0,0.0,0.0,0.0,0.0,0.0,0.0,0.0,0.0,0.0,0.0,0.0,0.0,0.0,0.0,0.0,0.0,0.0,0.0,0.0,0.0,0.0,0.0,0.0,0.0,0.0,0.0,0.0,0.0,0.0,0.0,0.0,0.0,0.0,0.0,0.0,0.0,0.0,0.0,0.0,0.0,0.0,0.0,0.0,0.0,0.0,0.0,0.0,0.0,0.0,0.0,0.0,0.0,0.0,0.0,0.0,0.0,0.0,0.0,0.0,0.0,0.0,0.0,0.0,0.0,0.0,0.0,0.0,0.0,0.0,0.0,0.0,0.0,0.0,0.0,0.0,0.0,0.0,0.0,0.0,0.0,0.0,0.0,0.0,0.0,0.0,0.0,0.0,0.0,0.0,0.0,0.0,0.0,0.0,0.0,0.0,0.0,0.0,0.0,0.0,0.0,0.0,0.0,0.0,0.0,0.0,0.0,0.0,0.0,0.0,0.0,0.0,0.0,0.0,0.0,0.0,0.0,0.0,0.0,0.0,0.0,0.0,0.0,0.0,0.0,0.0,0.0,0.0,0.0,0.0,0.0,0.0,0.0,0.0,0.0,0.0,0.0,0.0,0.0,0.0,0.0,0.0,0.0,0.0,0.0,0.0,0.0,0.0,0.0,0.0,0.0,0.0,0.0,0.0,0.0,0.0,0.0,0.0,0.0,0.0,0.0,0.0,0.0,0.0,0.0,0.0,0.0,0.0,0.0,0.0,0.0,0.0,0.0,0.0,0.0,0.0,0.0,0.0,0.0,0.0,0.0,0.0,0.0,0.0,0.0,0.0,0.0,0.0,0.0,0.0,0.0,0.0,0.0,0.0,0.0,0.0,0.0,0.0,0.0,0.0,0.0,0.0,0.0,0.0,0.0,0.0,0.0,0.0,0.0,0.0,0.0,0.0,0.0,0.0,0.0,0.0,0.0,0.0,0.0,0.0,0.0,0.0,0.0,0.0,0.0,0.0,0.0,0.0,0.0,0.0,0.0,0.0,0.0,0.0,0.0,0.0,0.0,0.0,0.0,0.0,0.0,0.0,0.0,0.0,0.0,0.0,0.0,0.0,0.0,0.0,0.0,0.0,0.0,0.0,0.0,0.0,0.0,0.0,0.0,0.0,0.0,0.0,0.0,0.0,0.0,0.0,0.0,0.0,0.0,0.0,0.0,0.0,0.0,0.0,0.0,0.0,0.0,0.0,0.0,0.0,0.0,0.0,0.0,0.0,0.0,0.0,0.0,0.0,0.0,0.0,0.0,0.0,0.0,0.0,0.0,0.0,0.0,0.0,0.0,0.0,0.0,0.0,0.0,0.0,0.0,0.0,0.0,0.0,0.0,0.0,0.0,0.0,0.0,0.0,0.0,0.0,0.0,0.0,0.0,0.0,0.0,0.0,0.0,0.0,0.0,0.0,0.0,0.0,0.0,0.0,0.0,0.0,0.0,0.0,0.0,0.0,0.0,0.0,0.0,0.0,0.0,0.0,0.0,0.0,0.0,0.0,0.0,0.0,0.0,0.0,0.0,0.0,0.0,0.0,0.0,0.0,0.0,0.0,0.0,0.0,0.0,0.0,0.0,0.0,0.0,0.0,0.0,0.0,0.0,0.0,0.0,0.0,0.0,0.0,0.0,0.0,0.0,0.0,0.0,0.0,0.0,0.0,0.0,0.0,0.0,0.0,0.0,0.0,0.0,0.0,0.0,0.0,0.0,0.0,0.0,0.0,0.0,0.0,0.0,0.0,0.0,0.0,0.0,0.0,0.0,0.0,0.0,0.0,0.0,0.0,0.0,0.0,0.0,0.0,0.0,0.0,0.0,0.0,0.0,0.0,0.0,0.0,0.0,0.0,0.0,0.0,0.0,0.0,0.0,0.0,0.0,0.0,0.0,0.0,0.0,0.0,0.0,0.0,0.0,0.0,0.0,0.0,0.0,0.0,0.0,0.0,0.0,0.0,0.0,0.0,0.0,0.0,0.0,0.0,0.0,0.0,0.0,0.0,0.0,0.0,0.0,0.0,0.0,0.0,0.0,0.0,0.0,0.0,0.0,0.0,0.0,0.0,0.0,0.0,0.0,0.0,0.0,0.0,0.0,0.0,0.0,0.0,0.0,0.0,0.0,0.0,0.0,0.0,0.0,0.0,0.0,0.0,0.0,0.0,0.0,0.0,0.0,0.0,0.0,0.0,0.0,0.0,0.0,0.0,0.0,0.0,0.0,0.0,0.0,0.0,0.0,0.0,0.0,0.0,0.0,0.0,0.0,0.0,0.0,0.0,0.0,0.0,0.0,0.0,0.0,0.0,0.0,0.0,0.0,0.0,0.0,0.0,0.0,0.0,0.0,0.0,0.0,0.0,0.0,0.0,0.0,0.0,0.0,0.0,0.0,0.0,0.0,0.0,0.0,0.0,0.0,0.0,0.0,0.0,0.0,0.0,0.0,0.0,0.0,0.0,0.0,0.0,0.0,0.0,0.0,0.0,0.0,0.0,0.0,0.0,0.0,0.0,0.0,0.0,0.0,0.0,0.0,0.0,0.0,0.0,0.0,0.0,0.0,0.0,0.0,0.0,0.0,0.0,0.0,0.0,0.0,0.0,0.0,0.0,0.0,0.0,0.0,0.0,0.0,0.0,0.0,0.0,0.0,0.0,0.0,0.0,0.0,0.0,0.0,0.0,0.0,0.0,0.0,0.0,0.0,0.0,0.0,0.0,0.0,0.0,0.0,0.0,0.0,0.0,0.0,0.0,0.0,0.0,0.0,0.0,0.0,0.0,0.0,0.0,0.0,0.0,0.0,0.0,0.0,0.0,0.0,0.0,0.0,0.0,0.0,0.0,0.0,0.0,0.0,0.0,0.0,0.0,0.0,0.0,0.0,0.0,0.0,0.0,0.0,0.0,0.0,0.0,0.0,0.0,0.0,0.0,0.0,0.0,0.0,0.0,0.0,0.0,0.0,0.0,0.0,0.0,0.0,0.0,0.0,0.0,0.0,0.0,0.0,0.0,0.0,0.0,0.0,0.0,0.0,0.0,0.0,0.0,0.0,0.0,0.0,0.0,0.0,0.0,0.0,0.0,0.0,0.0,0.0,0.0,0.0,0.0,0.0,0.0,0.0,0.0,0.0,0.0,0.0,0.0,0.0,0.0,0.0,0.0,0.0,0.0,0.0,0.0,0.0,0.0,0.0,0.0,0.0,0.0,0.0,0.0,0.0,0.0,0.0,0.0,0.0,0.0,0.0,0.0,0.0,0.0,0.0,0.0,0.0,0.0,0.0,0.0,0.0,0.0,0.0,3.322,3.3256,0.0,0.0,0.0,0.0,0.0,0.0,0.0,0.0,0.0,0.0,0.0,0.0,0.0,0.0,0.0,0.0,0.0,0.0,0.0,0.0,0.0,0.0,0.0,0.0,0.0,0.0,0.0,0.0,0.0,0.0,0.0,0.0,0.0,0.0,0.0,0.0,0.0,3.3423,3.4242,3.4472,3.4112,3.5152,3.5823,3.6231,0.0,0.0,0.0,0.0,0.0,0.0,0.0,0.0,0.0,0.0,0.0,0.0,0.0,0.0,0.0,0.0,0.0,0.0,0.0,0.0,0.0,0.0,0.0,0.0,0.0,0.0,0.0,0.0,0.0,0.0,0.0,0.0,0.0,0.0,0.0,0.0,0.0,0.0,0.0,0.0,0.0,0.0,0.0,0.0,0.0,0.0,0.0,0.0,0.0,0.0,0.0,0.0,0.0,0.0,0.0,0.0,0.0,0.0,0.0,0.0,0.0,0.0,0.0,0.0,0.0,0.0,0.0,0.0,0.0,0.0,3.603,3.5238,0.0,0.0,0.0,0.0,0.0,0.0,0.0,0.0,0.0,0.0,0.0,0.0,0.0,0.0,0.0,0.0,0.0,0.0,0.0,0.0,0.0,0.0,0.0,2.9188,2.9323,3.0514,3.02,2.9993,0.0,0.0,0.0,0.0,0.0,0.0,0.0,3.2645,3.328,3.306,3.3425,3.3795,3.4281,3.5591,3.6572,3.7285,3.7628,0.0,0.0,0.0,0.0,0.0,0.0,0.0,0.0,0.0,0.0,0.0,0.0,0.0,0.0,0.0,0.0,0.0,0.0,0.0,0.0,0.0,0.0,0.0,0.0,0.0,0.0,0.0,0.0,0.0,0.0,0.0,0.0,0.0,0.0,0.0,0.0,0.0,0.0,0.0,0.0,0.0,0.0,0.0,0.0,0.0,0.0,0.0,0.0,0.0,0.0,0.0,0.0,0.0,0.0,0.0,0.0,0.0,0.0,0.0,0.0,0.0,0.0,0.0,3.9504,3.9575,3.9821,4.0207,4.0418,4.0348,4.0131,3.83,3.5569,3.603,0.0,0.0,0.0,0.0,0.0,0.0,0.0,0.0,0.0,0.0,0.0,0.0,0.0,0.0,0.0,0.0,0.0,0.0,0.0,0.0,0.0,2.8181,2.8201,2.8243,2.8915,2.9536,3.007,0.0,0.0,0.0,0.0,0.0,3.119,3.2645,3.2841,3.1669,3.2902,3.4697,3.6985,3.7753,3.848,3.9074,3.7527,3.7488,3.8386,0.0,0.0,0.0,0.0,0.0,0.0,0.0,0.0,0.0,0.0,0.0,0.0,0.0,0.0,0.0,0.0,0.0,0.0,0.0,0.0,0.0,0.0,0.0,0.0,0.0,0.0,0.0,0.0,0.0,0.0,0.0,0.0,0.0,0.0,0.0,0.0,0.0,0.0,0.0,0.0,0.0,3.2408,3.3186,0.0,0.0,0.0,0.0,0.0,0.0,0.0,0.0,0.0,0.0,0.0,0.0,0.0,4.0495,4.176,4.2494,4.2626,4.2124,4.4155,4.4074,4.2246,4.4284,4.5281,4.5281,4.5304,0.0,3.7517,3.6394,0.0,0.0,0.0,0.0,0.0,0.0,0.0,0.0,0.0,0.0,0.0,0.0,0.0,0.0,0.0,0.0,0.0,0.0,0.0,0.0,0.0,2.869,2.9049,2.976,3.1172,3.1653,3.0709,3.1371,0.0,0.0,0.0,3.1393,3.1799,3.1758,3.1813,3.2074,3.4156,3.6162,3.8012,3.8652,3.9542,4.0523,3.9702,3.8869,3.7907,3.6642,0.0,0.0,0.0,0.0,0.0,0.0,0.0,0.0,0.0,0.0,0.0,0.0,0.0,0.0,0.0,0.0,0.0,0.0,0.0,0.0,0.0,0.0,0.0,0.0,0.0,0.0,0.0,0.0,0.0,0.0,0.0,0.0,0.0,0.0,0.0,0.0,0.0,0.0,0.0,3.4474,3.5385,3.3626,3.5825,3.7102,0.0,0.0,0.0,0.0,0.0,0.0,0.0,0.0,0.0,4.2065,4.3039,4.3886,4.4553,4.5033,4.5509,4.603,4.6788,4.6832,4.6227,4.7313,4.8002,4.838,4.8023,4.6212,4.334,4.0307,3.8395,3.7164,0.0,0.0,0.0,0.0,3.6072,3.6859,0.0,0.0,0.0,0.0,0.0,0.0,0.0,0.0,0.0,0.0,0.0,0.0,2.8715,2.931,3.0259,3.196,3.3445,3.3583,3.2028,3.2526,3.2175,3.0476,3.0909,3.1449,3.2034,3.1473,3.2141,3.4094,3.623,3.8068,3.9679,4.0367,4.1294,4.2372,4.2372,4.1055,3.8685,3.7529,3.6833,3.6573,0.0,0.0,0.0,0.0,0.0,0.0,0.0,0.0,0.0,0.0,0.0,0.0,0.0,0.0,0.0,0.0,0.0,0.0,0.0,0.0,0.0,0.0,0.0,0.0,0.0,0.0,0.0,0.0,0.0,0.0,0.0,0.0,0.0,0.0,0.0,0.0,0.0,3.6468,3.7483,3.4066,3.7313,3.8802,0.0,0.0,0.0,0.0,0.0,0.0,4.3007,4.3482,4.4165,4.5257,4.6464,4.7421,4.8012,4.7954,4.8506,4.9605,4.9229,4.9221,4.9593,4.9763,5.0135,5.0608,4.9898,4.9255,4.8402,4.4146,4.1475,3.994,3.8531,3.7977,3.7977,3.8063,3.8596,3.9482,0.0,0.0,0.0,0.0,0.0,0.0,0.0,0.0,0.0,0.0,0.0,2.6559,2.7976,2.9387,3.1259,3.3824,3.426,3.4296,3.4143,3.3,3.1987,3.1254,3.1213,3.1247,3.1364,3.2613,3.4871,3.8172,3.8931,4.0546,4.315,4.3778,4.4436,4.5095,4.5095,4.4038,4.2032,3.9504,3.8762,3.9175,3.6622,0.0,0.0,0.0,0.0,0.0,0.0,0.0,0.0,0.0,0.0,0.0,0.0,0.0,0.0,0.0,0.0,0.0,0.0,0.0,0.0,0.0,0.0,0.0,0.0,0.0,0.0,0.0,0.0,0.0,0.0,0.0,0.0,0.0,0.0,0.0,0.0,0.0,0.0,3.4709,3.9005,0.0,0.0,0.0,0.0,4.077,4.3185,4.4683,4.4859,4.5752,4.7217,4.9401,4.9759,5.0909,5.3077,5.2399,5.2061,5.2128,5.2063,5.1725,5.1116,5.1826,5.2164,5.2164,5.142,5.1082,5.071,4.6269,4.3545,4.2072,4.1037,4.0607,4.0654,4.1041,4.171,4.2386,0.0,0.0,0.0,0.0,0.0,0.0,0.0,0.0,2.6305,2.655,2.6776,2.7709,2.9931,3.2226,3.4333,3.6131,3.7485,3.7562,3.576,3.4777,3.3774,3.2708,3.1758,3.1491,3.1994,3.4701,3.7024,3.9083,4.1025,4.309,4.5274,4.5514,4.5963,4.6591,4.6591,4.5963,4.4706,4.2108,4.0426,3.938,3.7064,3.5817,0.0,0.0,0.0,0.0,0.0,0.0,0.0,0.0,0.0,0.0,0.0,0.0,0.0,0.0,0.0,0.0,0.0,0.0,0.0,0.0,0.0,0.0,0.0,0.0,0.0,0.0,0.0,0.0,0.0,0.0,0.0,0.0,0.0,0.0,0.0,0.0,0.0,4.029,4.3606,0.0,4.2083,4.2535,4.3595,4.5096,4.5581,4.6933,4.943,4.9992,5.1026,5.283,5.3448,5.4093,5.4938,5.4634,5.4499,5.4499,5.4025,5.3653,5.3382,5.3179,5.3078,5.3078,5.2807,5.2401,5.1792,5.0202,4.7834,4.5094,4.43,4.3639,4.325,4.3407,4.3957,4.4662,0.0,0.0,0.0,0.0,0.0,0.0,0.0,0.0,2.5855,2.6542,2.7292,2.8842,3.1738,3.4723,3.7285,3.926,4.0038,3.9474,3.7258,3.5357,3.3773,3.2482,3.2192,3.2558,3.3732,3.7085,3.9546,4.1055,4.3269,4.5125,4.6651,4.689,4.7219,4.7638,4.7878,4.7728,4.7189,4.5185,4.2861,4.0283,3.8025,3.703,3.6622,0.0,0.0,0.0,0.0,0.0,0.0,0.0,0.0,0.0,0.0,0.0,0.0,0.0,0.0,0.0,0.0,0.0,0.0,0.0,0.0,0.0,0.0,0.0,0.0,0.0,0.0,0.0,0.0,0.0,0.0,0.0,0.0,0.0,0.0,4.1948,4.4722,4.4248,4.753,4.8714,4.5974,4.6158,4.7136,4.8723,4.9222,5.0488,5.2809,5.3751,5.4532,5.531,5.6055,5.6461,5.6461,5.6224,5.5842,5.552,5.4749,5.4238,5.3811,5.3346,5.3014,5.2782,5.2782,5.2561,5.2168,5.2168,5.0789,4.8578,4.7834,4.7259,4.6786,4.6549,4.6752,4.7149,0.0,0.0,0.0,0.0,0.0,0.0,0.0,2.5112,2.5118,2.6039,2.7529,2.9776,3.3216,3.6537,3.9858,4.315,4.1594,3.9858,3.8482,3.4638,3.1875,3.066,3.2492,3.4445,3.6537,3.9828,4.2432,4.4436,4.5753,4.6711,4.7369,4.7997,4.8297,4.8356,4.9015,4.9284,4.9254,4.8626,4.6142,4.2372,3.9649,3.8901,3.9092,0.0,0.0,0.0,0.0,0.0,0.0,0.0,0.0,0.0,0.0,0.0,0.0,0.0,0.0,0.0,0.0,0.0,0.0,0.0,0.0,0.0,0.0,0.0,0.0,0.0,0.0,0.0,0.0,0.0,0.0,0.0,0.0,0.0,3.8106,4.506,4.9086,4.638,5.0541,5.2164,4.8545,5.0135,5.1386,5.1386,5.416,5.5513,5.4769,5.6765,5.7645,5.6862,5.7471,5.7842,5.7842,5.7133,5.6185,5.5106,5.4316,5.3388,5.2252,5.222,5.1949,5.1342,5.1342,5.1577,5.1849,5.1849,5.2021,5.22,5.1457,5.1251,5.1116,5.0405,5.0101,4.9864,0.0,0.0,0.0,0.0,0.0,0.0,2.4413,2.4337,2.4601,2.5509,2.8534,3.1923,3.528,3.9439,4.2731,4.4616,4.2521,4.0337,3.8512,3.4638,3.2437,3.2592,3.4534,3.7269,4.0661,4.2539,4.4706,4.7189,4.7578,4.8087,4.8716,4.8416,4.8536,4.9015,4.9673,4.9972,5.0002,5.0272,4.9494,4.7728,4.3629,4.1235,3.9931,0.0,0.0,0.0,0.0,0.0,0.0,0.0,0.0,0.0,0.0,0.0,0.0,0.0,0.0,0.0,0.0,0.0,0.0,0.0,0.0,0.0,0.0,0.0,0.0,0.0,0.0,0.0,0.0,0.0,0.0,0.0,4.1572,4.4245,4.4316,4.7665,5.1014,5.345,5.5006,5.548,5.4465,5.4905,5.5277,5.5277,5.7036,5.8017,5.7814,5.8863,5.8959,5.7918,5.762,5.714,5.6271,5.5555,5.5037,5.468,5.3534,5.2795,5.2413,5.1421,5.0877,5.0685,5.0685,5.0743,5.0779,5.0779,5.0908,5.1019,5.1698,5.1691,5.1183,5.098,5.0574,4.9864,0.0,0.0,0.0,0.0,0.0,0.0,2.3455,2.3509,2.4144,2.5629,2.9372,3.3305,3.6896,4.0905,4.3748,4.4796,4.2491,3.9888,3.7345,3.4212,3.3023,3.4212,3.7044,3.999,4.312,4.5005,4.686,4.8686,4.8686,4.9045,4.9673,4.9553,4.9853,5.0511,5.1169,5.1468,5.1498,5.1887,5.1648,5.081,4.8117,4.5873,4.3858,4.1152,4.0384,4.0677,3.966,3.9895,4.054,3.8745,0.0,0.0,0.0,0.0,0.0,0.0,0.0,0.0,0.0,0.0,0.0,0.0,0.0,0.0,0.0,0.0,0.0,0.0,0.0,0.0,0.0,0.0,0.0,0.0,4.5418,4.8951,5.1116,5.2807,5.4803,5.7408,5.8287,5.8558,5.822,5.8186,5.8186,5.8186,5.9302,5.9844,5.9471,5.9957,5.9718,5.8297,5.7789,5.6977,5.5975,5.5389,5.4783,5.4324,5.3218,5.2461,5.1919,5.086,5.0206,4.9926,4.9646,4.9577,4.9694,4.9694,5.0009,5.0442,0.0,0.0,0.0,0.0,5.0387,4.9932,0.0,0.0,0.0,0.0,0.0,0.0,2.2599,2.2796,2.379,2.5914,2.9887,3.3933,3.7674,4.1085,4.3419,4.4137,4.1743,3.8841,3.5699,3.3754,3.3754,3.6058,3.9738,4.2701,4.4825,4.7339,4.8925,4.9583,4.9583,4.9942,5.0571,5.1079,5.1708,5.2456,5.3114,5.3443,5.3533,5.3593,5.3234,5.2636,5.2636,5.1349,4.8925,4.4646,4.4164,4.5262,4.2775,4.1666,4.1175,3.9691,0.0,0.0,0.0,0.0,0.0,0.0,0.0,0.0,0.0,0.0,0.0,0.0,0.0,0.0,0.0,0.0,0.0,0.0,0.0,0.0,0.0,0.0,0.0,0.0,4.9052,5.2536,5.7442,5.8863,5.9404,5.9404,6.052,6.1028,6.0317,6.014,6.003,5.9928,6.0583,6.064,5.9833,6.0191,0.0,0.0,0.0,5.7052,5.6144,5.5534,5.4662,5.3619,5.2939,5.2032,5.1079,5.0421,4.9763,4.9134,4.8536,4.8455,4.8594,4.8594,4.9215,5.0087,5.032,5.0397,5.0314,4.9779,4.9691,4.9813,0.0,0.0,0.0,0.0,0.0,0.0,2.1471,2.2269,2.345,2.4805,2.9349,3.3425,3.5818,3.9469,4.2222,4.3419,4.0606,3.7853,3.5639,3.4622,3.5938,4.0068,4.2491,4.5185,4.8237,4.9853,5.099,5.1648,5.1648,5.1977,5.2606,5.2187,5.2665,5.3832,5.4491,5.5089,5.5628,5.6137,5.5987,5.5418,5.5418,5.3264,4.9823,4.7878,4.7036,4.678,4.5214,4.5743,4.6811,4.4331,4.423,4.4564,4.1439,3.942,0.0,0.0,0.0,0.0,0.0,0.0,0.0,0.0,0.0,0.0,0.0,0.0,0.0,0.0,0.0,0.0,0.0,0.0,0.0,4.8727,5.2806,5.6494,5.9268,6.0858,6.1738,6.1738,6.1467,6.1231,6.1095,6.0178,5.9363,5.8687,5.9011,5.8917,5.8173,5.8807,5.8595,5.7306,5.6621,5.5534,5.3884,5.3216,5.2453,5.1723,5.109,0.0,5.0391,4.9763,4.9105,4.8476,4.8356,4.8083,4.7624,4.7624,4.7679,4.8072,4.9726,5.0397,5.0237,4.902,4.8554,4.8479,0.0,0.0,0.0,0.0,0.0,0.0,2.1399,2.2274,2.3494,2.4767,2.8523,3.1928,3.4262,3.7135,3.8931,3.8901,3.6477,3.525,3.5938,3.6596,3.8871,4.315,4.5873,4.8207,5.0212,5.1858,5.2875,5.3204,5.3533,5.4042,5.467,5.4341,5.491,5.6196,5.6496,5.7034,5.7633,5.6828,5.6758,5.6989,5.6001,5.4775,5.3503,5.1887,5.084,5.0124,4.8766,4.8632,4.8651,4.626,4.5788,4.5541,4.2527,4.0896,3.9839,0.0,0.0,0.0,0.0,0.0,0.0,0.0,0.0,0.0,0.0,0.0,0.0,0.0,0.0,4.1257,4.3117,0.0,4.9526,5.2909,5.6258,5.9099,6.0994,6.1367,6.148,6.148,6.1179,6.0702,6.0091,5.952,5.9015,5.8539,5.8663,5.8652,5.83,5.8078,5.7621,5.6991,5.6138,5.5152,5.4192,5.3533,5.2875,5.2187,5.1528,5.105,5.072,5.0062,4.9404,4.8745,4.8446,4.7908,4.7309,4.7309,4.7309,4.7366,4.846,4.9166,4.9458,4.804,4.7838,4.8093,0.0,0.0,0.0,0.0,0.0,0.0,0.0,2.2279,2.3348,2.4894,2.7467,3.0158,3.2645,3.4565,3.522,3.3993,3.2916,3.3664,3.6836,3.902,4.2013,4.6082,4.9075,5.099,5.1798,5.3503,5.4461,5.4581,5.5239,5.5897,5.6555,5.6095,5.6674,5.804,5.7537,5.7812,5.8379,5.6592,5.6698,5.8051,5.6113,5.6318,5.7453,5.5508,5.4281,5.3354,5.1768,5.0301,4.8835,4.7249,4.6172,4.5169,4.2999,4.2381,4.1878,3.9088,3.8441,0.0,0.0,0.0,0.0,0.0,0.0,0.0,0.0,3.8321,3.9456,4.092,4.3197,4.5682,4.8128,5.1162,5.4092,5.6645,5.8732,6.0371,6.1555,6.087,6.0161,5.9957,6.0161,5.987,5.8902,5.8632,5.8451,5.8451,5.8268,5.8085,5.8085,5.7181,5.6638,5.6638,5.575,5.5059,5.479,5.4401,5.3743,5.2785,5.2396,5.1858,5.1199,5.0661,5.0062,4.9404,4.8626,4.7908,4.7309,4.7309,4.7309,4.7309,4.7309,4.7764,4.8389,4.7077,4.7045,4.753,0.0,0.0,0.0,0.0,0.0,0.0,0.0,0.0,2.2695,2.4225,2.6425,2.8595,3.0628,3.2095,3.2677,3.1928,3.3814,3.6207,3.8901,4.1504,4.4975,4.9494,5.1139,5.2576,5.3862,5.467,5.5359,5.5957,5.6585,5.7244,5.7902,5.5908,5.595,5.7599,5.5556,5.5242,5.6298,5.6121,5.6964,5.835,5.7628,5.8336,5.9548,5.7543,5.6017,5.464,5.2127,5.0002,4.8356,4.8147,4.7249,4.619,4.6027,4.5542,4.4514,4.2134,3.9584,3.7439,3.6855,3.6265,3.6502,3.9106,3.9291,3.9849,0.0,4.4677,4.5185,4.6641,4.8748,5.0845,5.2501,5.477,5.6746,5.7926,5.897,5.9497,5.925,5.9081,5.8632,5.7527,5.836,5.8992,5.8812,5.7807,5.715,5.715,5.6183,5.5651,5.5651,5.5451,5.5381,5.5381,5.528,5.461,5.3414,5.3952,5.3294,5.1439,5.1947,5.1858,5.1229,5.1139,5.075,5.0062,4.8835,4.7908,4.7309,4.7309,4.7309,4.7309,4.7309,4.7396,4.7362,4.6641,4.6033,4.5484,0.0,0.0,0.0,0.0,0.0,0.0,0.0,0.0,0.0,2.4351,2.5466,2.691,2.9013,2.9774,3.0084,2.9804,3.2258,3.522,3.8601,4.2761,4.698,5.1199,5.2181,5.2895,5.3451,5.3646,5.3818,5.4075,5.5106,5.5623,5.588,5.5025,5.5159,5.6254,5.5622,5.5905,5.6583,5.5582,5.6182,5.7482,5.5535,5.5555,5.6652,5.5176,5.3363,5.1473,5.0441,4.9314,0.0,4.6501,4.5873,4.5747,4.5858,4.4939,4.3541,4.2172,4.0144,3.8454,3.8639,3.8768,3.9377,4.1508,4.2794,4.4248,4.6989,4.8274,4.9458,5.1386,5.3006,5.4516,5.5937,5.6797,5.7593,5.8356,5.8842,5.8991,5.887,5.7829,5.6712,5.5379,5.5101,5.5255,5.6087,5.57,5.5341,5.5341,5.524,5.5179,5.5179,5.5179,5.5179,5.5179,5.5179,5.491,5.4341,5.464,5.4162,5.2965,5.2845,5.2426,5.1768,5.1379,5.0661,4.9613,4.8686,4.7908,4.7309,4.7309,4.7309,4.7309,4.7309,4.707,4.6711,4.6411,4.5903,4.5185,0.0,0.0,0.0,0.0,0.0,0.0,0.0,0.0,0.0,0.0,2.4664,2.5568,2.7581,2.8212,2.8309,2.779,3.0342,3.3511,3.7138,4.2317,4.6933,5.0857,5.1926,5.263,5.3063,5.2882,5.284,5.3033,5.3944,5.4497,5.4635,5.4156,5.4324,5.5156,5.5149,5.541,5.5976,5.4708,5.5073,5.6351,5.4054,5.3509,5.4068,5.25,5.0284,4.8047,4.8148,4.716,4.5544,4.3599,4.315,4.3419,4.3599,4.3045,4.2243,4.1586,4.0437,3.9454,3.9986,4.0933,4.232,4.4451,4.665,4.8748,5.0473,5.1698,5.3039,5.4955,5.593,5.6792,5.7641,5.7797,5.7707,5.7856,5.7951,5.7892,5.7524,5.6217,5.4728,5.3346,5.212,5.1768,5.2755,5.3324,5.3653,5.3653,5.4431,5.491,5.491,5.5089,5.5119,5.491,5.491,5.473,5.4371,5.4551,5.4221,5.3384,5.3054,5.2576,5.1917,5.1259,5.0331,4.9224,4.8566,4.7908,4.7309,4.7309,4.7309,4.7309,4.7309,4.689,4.6322,4.6322,4.5783,4.4945,0.0,0.0,0.0,0.0,0.0,0.0,0.0,0.0,0.0,0.0,0.0,0.0,0.0,2.7632,2.7658,2.5828,2.8697,3.1781,3.4622,3.9562,4.4117,4.7993,4.9854,5.1541,5.3337,5.3392,5.3723,5.4331,5.4386,5.469,5.5215,5.3654,5.3541,5.4496,5.2941,5.2513,5.3042,5.3042,5.3894,5.5287,5.4153,5.3616,5.3434,5.0853,4.8046,4.5541,4.5421,4.294,3.9679,3.9589,3.914,3.8721,3.9379,4.0427,4.1338,4.1049,4.0484,4.0087,4.0121,4.1711,4.4248,4.7902,5.0507,5.2739,5.5006,5.5729,5.6159,5.6948,5.7437,5.7469,5.6915,5.7332,5.7459,5.6248,5.6093,5.5653,5.4488,5.3751,5.2822,5.1409,5.0122,4.9374,4.9404,5.1139,5.2247,5.2247,5.3473,5.4251,5.4251,5.485,5.491,5.4251,5.4251,5.3623,5.2306,5.2935,5.2606,5.1319,5.1947,5.1887,5.1229,5.0571,4.9912,4.9224,4.8566,4.7908,4.7309,4.7309,4.7309,4.7309,4.7309,4.689,4.6322,4.6322,4.5484,4.4347,0.0,0.0,0.0,0.0,0.0,0.0,0.0,0.0,0.0,0.0,0.0,0.0,0.0,0.0,0.0,0.0,2.8423,3.1066,3.3726,3.8804,4.3081,4.6139,4.7859,4.926,5.0282,4.9902,5.0123,5.0721,5.1085,5.1372,5.1554,5.0946,5.0921,5.1279,5.1059,5.1297,5.1825,5.1825,5.2633,5.358,5.0921,4.9863,4.9557,4.6933,4.376,4.0597,0.0,3.92,3.7883,3.6567,3.6297,3.6596,3.7255,3.7473,3.7617,3.8019,3.9428,4.1271,4.3267,4.5805,4.8748,5.2536,5.4109,5.5397,5.7698,5.7724,5.7248,5.7591,5.6025,5.4543,5.4292,5.3113,5.2305,5.2761,5.3183,5.3295,5.2972,5.2665,5.1558,4.8925,4.9015,4.8566,4.68,4.8835,5.0601,5.1468,5.2366,5.3264,5.4162,5.4431,5.4431,5.4221,5.4221,5.3773,5.2845,5.3084,5.2965,5.2516,5.2306,5.1618,5.0571,5.0331,4.9643,4.8596,4.8386,4.7908,4.7309,4.7309,4.7309,4.7309,4.7309,4.6621,4.5633,4.5633,4.4796,4.3718,0.0,0.0,0.0,0.0,0.0,0.0,0.0,0.0,0.0,0.0,0.0,0.0,0.0,0.0,0.0,0.0,0.0,2.9342,3.1337,3.564,3.9226,4.1881,4.2911,4.3988,4.5213,4.4458,4.4543,4.5522,4.6276,4.6853,4.723,4.7832,4.8234,4.8435,4.8987,4.9565,5.0067,4.9866,4.9866,4.9741,4.7521,4.5639,4.3985,4.2193,3.9109,0.0,3.5175,3.4898,3.4725,3.3517,3.3664,3.4535,3.4999,3.5918,3.6972,3.7773,4.0294,4.3462,4.6575,4.9324,5.2296,5.5861,5.7051,5.7767,5.9251,5.8478,5.729,5.6588,5.3939,5.1444,5.0739,4.894,4.7938,4.9254,4.9823,5.0421,5.1379,5.1109,5.0032,4.7908,4.8207,4.7908,4.6172,4.7549,4.9015,5.0092,5.1439,5.2576,5.3443,5.3952,5.4102,5.3862,5.3832,5.3414,5.2486,5.2486,5.2486,5.2486,5.1828,5.105,5.0212,4.9763,4.9075,4.8267,4.8027,4.7698,4.7309,4.7309,4.7309,4.7279,4.704,4.6262,4.5274,4.5035,4.4257,4.3389,0.0,0.0,0.0,0.0,0.0,0.0,0.0,0.0,0.0,0.0,0.0,0.0,0.0,0.0,0.0,0.0,0.0,0.0,2.7627,3.0383,3.3024,3.5435,3.548,3.6458,3.8718,3.7663,3.7965,3.9597,4.0626,4.1681,4.276,4.4483,4.5372,4.5899,4.6426,4.6954,4.7529,4.6878,4.5867,4.4446,4.4177,4.1383,3.7403,3.6985,3.4667,3.1496,3.0807,3.0539,3.0443,3.0588,3.1537,3.2735,3.2925,3.5796,3.927,4.0183,4.3022,4.6602,4.9735,5.23,5.4821,5.7852,5.9083,5.9529,5.9589,5.8153,5.6091,5.4078,5.1119,4.8267,4.6322,4.4945,4.4556,4.5903,4.6292,4.7309,4.9823,4.9164,4.8386,4.8297,4.7788,4.7429,4.7369,4.7429,4.7698,4.8297,5.0631,5.2097,5.2247,5.3443,5.3832,5.3204,5.3144,5.2516,5.1229,5.1199,5.1169,5.1169,5.0511,5.0182,5.0092,4.8835,4.8267,4.8207,4.7578,4.7309,4.7309,4.7309,4.7309,4.7249,4.6591,4.5903,4.5214,4.4556,4.3898,4.3329,0.0,0.0,0.0,0.0,0.0,0.0,0.0,0.0,0.0,0.0,0.0,0.0,0.0,0.0,0.0,0.0,0.0,0.0,2.612,2.8736,3.0748,3.186,3.3962,3.562,3.6533,3.659,3.7211,3.8442,3.8983,3.9265,3.927,4.0415,4.0593,4.0124,4.0275,4.1022,4.2085,4.1544,4.1594,4.1939,3.9747,3.8229,3.6903,3.5133,3.3265,3.1553,3.1368,3.0633,3.0038,3.1597,3.3644,3.5615,3.6137,3.7717,3.9943,4.268,4.5987,4.9437,5.2381,5.5633,5.8389,5.9809,5.9255,5.8119,5.7184,5.4728,5.1937,4.9549,4.6033,4.294,4.1444,4.1294,4.1833,4.315,4.5843,4.8207,4.9344,5.0062,4.9912,4.8446,4.9015,4.9105,4.8147,4.8925,4.9374,4.9045,4.9643,5.087,5.2815,5.2785,5.2845,5.3174,5.2695,5.2067,5.1229,5.072,5.0481,5.0481,4.9823,4.9254,4.8775,4.8446,4.8027,4.7549,4.7369,4.7309,4.7309,4.7309,4.7309,4.7249,4.6591,4.5903,4.5214,4.4556,4.3898,4.3329,0.0,0.0,0.0,0.0,0.0,0.0,0.0,0.0,0.0,0.0,0.0,0.0,0.0,0.0,0.0,0.0,0.0,0.0,0.0,2.6751,2.7995,2.8618,2.9984,3.1029,3.1902,3.1602,3.2251,3.3882,3.3983,3.4376,3.4934,3.5626,3.5861,3.5594,3.5852,3.6623,3.7569,3.7316,3.7183,0.0,0.0,3.4321,3.2963,3.2176,3.1032,2.9871,2.9822,3.0654,3.2165,3.4411,3.6383,3.824,3.9992,4.193,4.4216,4.7675,5.058,5.3271,5.5924,5.8279,6.0129,6.0353,5.9008,5.7037,5.4779,5.206,4.8865,4.5065,4.1803,3.905,3.7165,3.7853,3.911,4.0397,4.3718,4.677,4.8596,4.9464,4.9733,4.9194,4.9793,4.9942,4.9224,4.9793,5.0212,5.0122,5.0122,5.075,5.2247,5.2247,5.2366,5.2725,5.2396,5.1738,5.081,5.0421,5.0092,4.9793,4.9134,4.8626,4.8267,4.7997,4.7668,4.7309,4.7309,4.7309,4.7309,4.7309,4.7309,4.7219,4.6262,4.5633,4.5185,4.4227,4.3658,4.3329,0.0,0.0,0.0,0.0,0.0,0.0,0.0,0.0,0.0,0.0,0.0,0.0,0.0,0.0,0.0,0.0,0.0,0.0,0.0,0.0,2.5414,2.5936,2.549,2.5687,2.6703,2.5684,2.626,2.8329,2.8184,2.891,3.0377,3.0767,3.1182,3.1522,3.2132,3.2718,3.3279,3.3436,3.2763,3.1419,3.1839,3.0315,2.802,0.0,2.8419,2.759,2.768,3.035,3.4263,3.7166,3.9259,4.1163,4.4311,4.7167,4.9984,5.3326,5.5359,5.7057,5.9232,6.0321,6.0831,6.0144,5.8321,5.5837,5.2456,4.9434,4.5933,4.0816,3.8093,3.5938,3.3664,3.4861,3.6716,3.8272,4.1265,4.4526,4.7818,4.8356,4.8835,4.9972,5.0272,5.0331,5.0242,5.0391,5.069,5.1169,5.1289,5.1349,5.1349,5.1798,5.2067,5.2067,5.2067,5.1468,5.0242,5.0152,4.9793,4.9134,4.8476,4.8147,4.8147,4.7578,4.7309,4.7309,4.7309,4.7309,4.7309,4.7309,4.7249,4.704,4.5783,4.5244,4.5005,4.3778,4.3329,4.3329,0.0,0.0,0.0,0.0,0.0,0.0,0.0,0.0,0.0,0.0,2.2868,2.2767,0.0,0.0,0.0,0.0,0.0,0.0,0.0,0.0,0.0,2.4875,2.5142,2.536,2.5586,2.5328,2.5629,2.6503,2.6722,2.6834,2.6881,2.7083,2.6914,2.6294,2.6402,2.6927,2.7709,2.8276,2.8484,2.8341,2.8468,2.781,2.6822,2.6434,0.0,0.0,2.8151,2.8845,3.0338,3.561,4.1305,4.6475,4.8585,5.1028,5.3688,5.5892,5.7493,5.8821,5.9723,6.0536,6.0836,5.9518,5.6974,5.3713,4.9853,4.5663,4.1384,3.7225,3.4322,3.2407,3.1958,3.3484,3.5789,3.8751,4.1564,4.4526,4.7818,4.8745,4.9164,4.9404,5.0391,5.084,5.0301,5.1229,5.1678,5.1259,5.1708,5.2037,5.2037,5.1618,5.1379,5.1379,5.1379,5.102,5.0242,4.9703,4.9105,4.8446,4.7788,4.7489,4.7489,4.7369,4.7309,4.7309,4.7309,4.7309,4.7309,4.7309,4.698,4.6411,4.5603,4.4975,4.4377,4.3629,4.3329,4.3329,0.0,0.0,0.0,0.0,0.0,0.0,0.0,2.2868,2.3274,2.4391,2.4255,2.3849,2.3444,2.2618,2.231,0.0,0.0,0.0,0.0,0.0,0.0,0.0,2.4469,2.4955,2.4955,2.4875,2.5185,2.5764,0.0,2.5072,2.5277,2.4994,2.4675,2.4283,2.4626,2.5048,2.5453,2.6147,2.6465,2.6542,2.6542,2.6525,2.6473,0.0,0.0,0.0,2.8092,2.913,3.0573,3.4456,4.0495,4.681,4.9136,5.146,5.3719,5.5616,5.6955,5.8209,5.9501,6.0244,6.0266,5.8919,5.5867,5.1947,4.7279,4.2641,3.8093,3.3784,3.1629,3.0313,2.9594,3.1659,3.4083,3.6028,3.8542,4.1683,4.5663,4.6501,4.7459,4.9523,5.0331,5.072,5.075,5.1319,5.1558,5.1229,5.1498,5.1678,5.1678,5.1379,5.105,5.072,5.072,5.0242,4.9224,4.8925,4.8416,4.7788,4.7459,4.7309,4.7309,4.7309,4.7309,4.7309,4.7309,4.7309,4.7309,4.7309,4.692,4.6262,4.5574,4.4885,4.4227,4.3569,4.3329,4.3329,0.0,0.0,0.0,0.0,0.0,0.0,0.0,2.3511,2.4154,2.5642,2.571,2.5169,2.3985,2.2872,2.2266,0.0,0.0,0.0,0.0,0.0,0.0,0.0,0.0,0.0,2.4565,0.0,0.0,2.5405,2.4328,0.0,0.0,0.0,0.0,0.0,2.4178,2.4418,2.4448,2.5198,2.556,0.0,0.0,2.5983,2.638,0.0,0.0,0.0,0.0,2.9032,3.0569,3.2948,3.7594,4.2927,4.5951,4.9499,5.2853,5.419,5.5506,5.6852,5.8694,5.939,5.9368,5.8154,5.47,5.0182,4.4885,3.9888,3.513,3.0761,2.9385,2.8667,2.779,2.9924,3.2287,3.3514,3.5549,3.8601,4.324,4.4137,4.5574,4.8985,4.9883,5.0269,5.0347,5.0981,5.1255,5.0822,5.0674,5.0768,5.1199,5.1229,5.09,5.0272,5.0242,4.9613,4.8297,4.8297,4.7967,4.7309,4.7309,4.7309,4.7309,4.7309,4.7309,4.7309,4.716,4.71,4.707,4.695,4.6501,4.5843,4.5304,4.4676,4.4047,4.3509,4.3329,4.3329,0.0,0.0,0.0,0.0,0.0,0.0,0.0,2.3951,2.4932,2.6387,2.6015,2.5575,2.5406,2.4698,2.3566,0.0,0.0,0.0,0.0,0.0,0.0,0.0,0.0,0.0,0.0,0.0,0.0,2.4672,2.4552,0.0,0.0,0.0,0.0,0.0,0.0,2.3699,2.3773,2.4915,0.0,0.0,0.0,0.0,0.0,0.0,0.0,0.0,0.0,2.6826,2.6611,3.0312,3.2347,3.3745,3.692,4.4826,5.2943,5.2435,5.3498,5.5351,5.7513,5.8003,5.7823,5.7315,5.3324,4.8147,4.2851,3.7135,3.1988,2.8547,2.732,2.7021,2.752,2.8816,3.0851,3.3873,3.513,3.7285,4.1893,4.3569,4.4915,4.6501,4.8775,4.9542,4.7709,5.033,5.135,4.9513,4.8837,4.9355,5.1105,5.1229,5.09,5.0272,5.0242,4.9613,4.8297,4.8297,4.7967,4.7309,4.7309,4.7309,4.7309,4.7309,4.7309,4.7279,4.6681,4.6411,4.6352,4.5723,4.5095,4.4496,4.4436,4.4018,4.3419,4.3359,4.3329,4.3329,0.0,0.0,0.0,0.0,0.0,0.0,2.2278,2.2945,2.4279,2.6683,2.6382,2.5983,2.6218,2.5609,2.4295,2.2199,0.0,0.0,0.0,0.0,0.0,0.0,0.0,0.0,0.0,0.0,2.4217,2.3999,2.3999,0.0,0.0,0.0,0.0,0.0,0.0,2.36,2.3888,2.3951,0.0,0.0,0.0,0.0,0.0,0.0,0.0,0.0,0.0,0.0,2.5756,2.6823,2.894,3.1082,3.1182,3.5975,4.2244,4.5223,4.7728,5.0399,5.4198,5.6222,5.6814,5.5605,5.1977,4.7189,4.1504,3.5908,3.1091,2.8158,2.6752,2.6183,2.6871,2.741,2.8607,3.112,3.142,3.2976,3.7584,3.8691,4.0516,4.4616,4.5723,4.6599,4.7693,4.8333,4.8353,4.7503,4.6912,4.6951,4.772,4.8545,4.8629,4.7892,4.7863,4.7148,4.5395,4.6156,4.64,4.6166,4.6931,4.7309,4.7309,4.7309,4.71,4.6711,4.6441,4.6082,4.5693,4.5394,4.4915,4.4317,4.4317,4.3898,4.3329,4.3329,4.3329,4.3269,0.0,0.0,0.0,0.0,0.0,2.1743,2.2086,2.2661,2.3951,2.6412,2.6173,2.5844,2.6015,2.5406,2.4255,2.2462,2.1853,0.0,0.0,0.0,0.0,0.0,0.0,0.0,0.0,0.0,2.3269,2.331,2.331,2.331,0.0,0.0,2.361,2.377,0.0,0.0,0.0,0.0,0.0,0.0,0.0,0.0,0.0,0.0,0.0,0.0,0.0,0.0,0.0,0.0,0.0,2.88,2.7316,2.912,3.2864,3.8376,4.2113,4.5388,4.9742,5.2826,5.4591,5.3377,5.0054,4.5663,4.0098,3.4592,2.9924,2.726,2.5974,2.5525,2.6183,2.6452,2.7171,2.8996,2.9205,3.0582,3.4622,3.5472,3.7375,4.2159,4.2415,4.3364,4.6301,4.6364,4.6145,4.5785,4.5073,4.4771,4.4872,4.5453,4.5723,4.5844,4.5844,4.5279,4.4069,4.4932,4.5598,4.5958,4.6844,4.7309,4.7309,4.71,4.677,4.6292,4.5903,4.5454,4.4975,4.4796,4.4436,4.4018,4.4018,4.3748,4.3329,4.3329,4.321,4.297,0.0,0.0,0.0,0.0,0.0,0.0,2.3038,2.3646,2.4281,2.5476,2.528,2.488,2.4563,2.3849,2.3105,2.2395,2.1853,0.0,0.0,0.0,0.0,0.0,0.0,0.0,0.0,0.0,2.2516,2.2724,2.2724,2.2724,2.2724,2.3111,2.294,2.2331,0.0,0.0,0.0,0.0,0.0,0.0,0.0,0.0,0.0,0.0,0.0,0.0,0.0,0.0,0.0,0.0,0.0,0.0,0.0,2.5745,2.7399,3.3211,3.7547,4.1199,4.3835,4.7622,5.0626,5.0325,4.7313,4.315,3.8482,3.2856,2.7889,2.5149,2.4612,2.4837,2.5495,2.6153,2.7021,2.8397,2.9654,3.142,3.4113,3.5351,3.6751,3.8822,3.9325,4.046,4.262,4.4969,4.5813,4.4595,4.3336,4.2896,4.3464,4.2377,4.2547,4.4484,4.4484,4.478,4.5389,4.5389,4.6077,4.7309,4.7309,4.7309,4.7279,4.6621,4.6322,4.6262,4.4915,4.4317,4.4287,4.3629,4.3359,4.3329,4.3329,4.3329,4.3329,4.3329,4.291,4.2372,0.0,0.0,0.0,0.0,0.0,0.0,0.0,2.1606,2.2828,2.4248,2.3851,2.3716,2.4428,2.3816,2.3105,2.2361,2.1853,0.0,0.0,0.0,0.0,0.0,0.0,0.0,0.0,0.0,2.2194,2.2724,2.2724,2.31,2.3836,2.3456,2.3544,2.3958,2.3124,2.2932,0.0,0.0,0.0,0.0,0.0,0.0,0.0,0.0,0.0,0.0,0.0,0.0,0.0,0.0,0.0,0.0,0.0,0.0,0.0,2.8096,3.2191,3.6512,3.9991,4.281,4.4429,4.3123,4.1198,3.8392,3.3754,3.0193,2.729,2.5076,2.4268,2.4118,2.4761,2.5465,2.6662,2.8906,2.9953,3.127,3.3484,3.5294,3.6916,3.8505,4.0322,4.1542,4.18,4.2112,4.2164,4.1801,4.1029,4.0747,4.0844,4.0567,4.1023,4.2449,4.2547,4.2636,4.2834,4.3183,4.4095,4.5317,4.5773,4.5933,4.5933,4.5723,4.5364,4.4915,4.4496,4.4047,4.3629,4.3419,4.3329,4.3329,4.3329,4.3329,4.3329,4.3329,4.321,4.297,0.0,0.0,0.0,0.0,0.0,0.0,0.0,2.0945,2.2035,2.315,2.2725,2.2654,2.3583,2.3241,2.2801,2.2361,2.1853,0.0,0.0,0.0,0.0,0.0,0.0,0.0,0.0,2.0858,2.1395,2.2293,2.2604,2.319,2.4101,2.4315,2.4284,2.4102,2.3555,2.3173,0.0,0.0,0.0,0.0,0.0,0.0,2.365,0.0,0.0,0.0,0.0,0.0,0.0,0.0,0.0,0.0,0.0,0.0,0.0,0.0,2.7428,3.101,3.478,3.7642,3.9224,3.7872,3.6526,3.4622,3.0971,2.8427,2.6333,2.4597,2.3909,2.3819,2.4462,2.5166,2.6243,2.8158,2.9415,3.0761,3.2497,3.4604,3.6387,3.7662,3.9995,4.1067,3.9851,4.0719,4.1001,4.0224,3.9898,3.9697,3.9697,3.9697,4.0083,4.0844,4.0844,4.1319,4.2252,4.2671,4.3673,4.5113,4.5505,4.5544,4.5274,4.5035,4.4706,4.4317,4.4047,4.3718,0.0,4.3329,4.3329,4.3329,4.3329,4.3329,4.3329,4.3329,4.318,4.291,0.0,0.0,0.0,0.0,0.0,0.0,0.0,2.1411,2.1794,2.2237,2.1945,2.1823,2.2237,2.2327,2.2327,2.2327,0.0,0.0,0.0,0.0,0.0,0.0,0.0,0.0,1.9797,1.9762,2.0385,2.1695,2.2353,2.3053,2.3756,2.5425,2.5105,2.3163,2.4114,2.368,0.0,0.0,0.0,0.0,0.0,0.0,0.0,0.0,0.0,0.0,0.0,0.0,0.0,0.0,0.0,0.0,0.0,0.0,0.0,0.0,0.0,0.0,0.0,3.2027,3.4541,3.3886,3.2815,3.145,2.9594,2.723,0.0,2.3789,2.352,2.3759,2.4462,2.5166,2.5884,2.6662,2.8457,3.0193,3.148,3.3725,3.562,3.6663,3.8701,3.932,3.7556,4.0452,4.1591,3.9825,3.9697,3.9697,3.9697,3.9647,3.9647,3.9647,3.9647,4.0867,4.3448,4.3338,4.4237,4.6172,4.6142,4.5783,4.5125,4.4526,4.4257,4.4197,4.3599,4.3329,4.3329,4.3329,4.3329,4.3329,4.3329,4.3329,4.3329,4.3329,4.294,4.2509,0.0,0.0,0.0,0.0,0.0,0.0,0.0,0.0,0.0,0.0,2.2209,2.218,2.2299,2.2327,2.2327,0.0,0.0,0.0,0.0,0.0,0.0,0.0,0.0,0.0,2.0698,2.033,2.0685,2.1695,2.2353,2.3504,2.5013,2.5841,2.5516,2.4332,2.4443,2.368,0.0,0.0,0.0,0.0,0.0,0.0,0.0,0.0,0.0,0.0,2.1697,2.1437,0.0,0.0,0.0,0.0,0.0,0.0,0.0,0.0,2.2143,2.2557,2.3402,0.0,2.7718,2.7071,2.6683,2.6213,0.0,2.4507,2.3849,2.3071,2.2892,2.3251,2.4418,2.5166,2.6333,2.8517,3.0103,3.1539,3.2856,3.5296,3.7344,3.8198,3.922,3.9474,3.8617,3.9601,4.021,3.9697,3.9697,3.9697,3.9697,3.9295,3.9069,3.9069,3.9069,4.0296,4.272,4.1782,4.2505,4.4766,4.4287,4.3958,4.3778,4.3629,4.3569,4.3569,4.3389,4.3329,4.3329,4.3329,4.3329,4.3329,4.3329,4.3329,4.3329,4.3329,4.324,4.3109,0.0,0.0,0.0,0.0,0.0,0.0,0.0,0.0,0.0,0.0,0.0,0.0,0.0,0.0,0.0,0.0,0.0,0.0,0.0,0.0,0.0,0.0,0.0,2.1399,2.0991,2.0565,2.087,2.1979,2.2746,2.3932,2.5499,2.6392,2.5977,2.4467,2.3556,2.2828,0.0,0.0,0.0,0.0,2.2327,0.0,0.0,0.0,0.0,0.0,2.1213,2.0862,0.0,1.9909,1.9929,2.0228,0.0,0.0,0.0,0.0,2.1006,2.1246,2.1246,2.2921,2.4597,2.4238,2.4148,2.4059,2.367,2.3161,2.2622,2.2293,2.2473,2.2981,2.3969,2.5196,2.6722,2.8786,3.0492,3.2229,3.4375,3.5902,3.7362,3.878,3.8953,3.8994,3.922,3.9521,3.9697,3.9697,3.9697,3.9597,3.932,3.9044,3.8743,3.8492,3.8783,3.9677,4.1341,4.0962,4.168,4.3519,4.3166,4.3086,4.3329,4.3329,4.3329,4.3329,4.3329,4.3329,4.3299,4.3,4.288,4.2851,4.2551,4.2611,4.2851,4.2551,4.2641,4.2947,0.0,0.0,0.0,0.0,0.0,0.0,0.0,0.0,0.0,0.0,0.0,0.0,0.0,0.0,0.0,0.0,0.0,0.0,0.0,0.0,0.0,0.0,2.1735,2.146,2.0991,2.0632,2.0949,2.2063,2.322,2.4388,2.5615,2.7087,2.6603,2.4458,2.2571,2.1953,0.0,0.0,0.0,0.0,2.2327,0.0,0.0,0.0,0.0,0.0,0.0,0.0,0.0,1.9839,1.975,1.9809,1.972,0.0,0.0,0.0,0.0,0.0,2.0797,2.2353,2.3819,2.34,2.346,2.358,2.349,2.2622,2.1844,2.1844,2.2353,2.3071,2.3909,2.5615,2.738,2.8816,3.0791,3.3084,3.5755,3.6269,3.6901,3.853,3.8242,3.8341,3.922,3.9396,3.9446,3.9446,3.9446,3.9245,3.8768,3.8668,3.8341,3.7764,3.8368,3.8856,3.9239,4.0224,4.1288,4.2478,4.2478,4.2719,4.3329,4.3329,4.3329,4.3329,4.3329,4.3269,4.315,4.2581,4.2312,4.2162,4.1594,4.1713,4.2132,4.1594,4.1743,4.2256,0.0,0.0,0.0,0.0,0.0,0.0,0.0,0.0,0.0,0.0,0.0,0.0,0.0,0.0,0.0,0.0,0.0,0.0,0.0,0.0,0.0,2.2209,2.218,2.1827,2.1023,2.0926,2.0905,2.0971,2.3281,2.4866,2.5644,2.8069,2.7866,2.5501,2.3358,2.2391,2.2327,0.0,0.0,0.0,2.2327,0.0,0.0,0.0,0.0,0.0,0.0,0.0,0.0,1.9839,2.0079,2.0468,1.9869,0.0,0.0,0.0,0.0,0.0,2.1246,2.337,2.4777,2.2532,2.2802,2.346,2.2951,2.2682,2.2532,2.2532,2.3011,2.3999,2.5794,2.732,2.8906,3.0735,3.3215,3.536,3.661,3.7593,3.7886,3.6896,3.7484,3.7889,3.7588,3.799,3.8266,3.8266,3.8266,3.8241,3.814,3.7688,3.7186,3.6634,3.7177,3.7045,3.6185,3.8782,4.0653,4.1731,4.1731,4.231,4.3329,4.3329,4.3329,4.3329,4.3329,4.303,4.2491,4.2402,4.2043,4.1504,4.1414,4.1444,4.1504,4.1414,4.1444,4.1565,0.0,0.0,0.0,0.0,0.0,0.0,0.0,0.0,0.0,0.0,0.0,0.0,0.0,0.0,0.0,0.0,0.0,0.0,0.0,0.0,2.218,2.1945,2.1945,2.19,2.1891,2.1377,2.1394,2.204,2.3605,2.4797,2.556,2.6056,2.559,2.4216,2.2474,2.1941,2.2327,2.2327,2.2327,2.2327,0.0,0.0,0.0,0.0,0.0,0.0,0.0,0.0,0.0,0.0,1.9899,2.0109,1.9779,0.0,0.0,0.0,0.0,0.0,2.0438,2.2293,2.3729,2.2532,2.4268,2.6033,2.5016,2.4507,2.4268,2.4268,2.4477,2.5196,2.6811,2.8487,3.0731,3.4143,3.6357,3.76,3.7508,3.7671,3.7578,3.6923,3.7082,3.7262,3.7588,3.7864,3.8015,3.8015,3.8015,3.7864,3.7588,3.7312,3.6935,3.6383,3.6938,3.7,3.6393,3.806,3.9478,4.0661,4.1337,4.2193,4.3329,4.297,4.2791,4.2791,4.1824,4.1263,4.094,3.996,3.9518,3.9425,3.9425,3.9831,4.0337,4.0337,4.0643,4.0954,0.0,0.0,0.0,0.0,0.0,0.0,0.0,0.0,0.0,0.0,0.0,0.0,0.0,0.0,0.0,0.0,0.0,0.0,0.0,0.0,2.2089,2.1612,2.1655,2.1857,2.228,2.1576,2.1774,2.301,2.4182,2.523,2.6206,2.4608,2.36,2.3151,2.182,2.1626,2.2327,2.2327,2.2327,2.2327,0.0,0.0,0.0,0.0,0.0,0.0,0.0,0.0,0.0,0.0,0.0,0.0,0.0,0.0,0.0,1.972,1.969,1.975,2.0079,2.1485,2.2921,2.3101,2.5405,2.753,2.6961,2.6422,2.6153,2.6482,2.6782,2.726,2.8098,3.0013,3.2796,3.6956,3.8781,3.9269,3.8371,3.7994,3.7612,3.7284,3.6785,3.6684,3.7538,3.7513,3.7387,3.7262,3.7236,3.7061,3.6634,3.6609,3.6358,3.5805,3.6341,3.6556,3.6337,3.7555,3.8699,3.9814,4.0741,4.1755,4.2851,4.2108,4.1793,4.1685,4.0076,3.939,3.911,3.7582,3.7074,3.7282,3.7365,3.8004,3.896,3.896,3.9325,3.9757,0.0,0.0,0.0,0.0,0.0,0.0,0.0,0.0,0.0,0.0,0.0,0.0,0.0,0.0,0.0,0.0,0.0,0.0,0.0,0.0,2.2089,2.1612,2.1859,2.1779,2.1393,2.1263,2.1595,2.2466,2.5048,2.7021,2.8345,2.5747,2.4261,2.3777,2.2487,2.2083,2.2327,2.2327,2.2327,2.2327,2.2327,0.0,0.0,0.0,0.0,0.0,0.0,0.0,0.0,0.0,0.0,0.0,0.0,0.0,2.0528,1.9869,1.969,1.9959,2.1216,2.2503,2.3699,2.4328,2.4672,2.5375,2.7111,2.752,2.782,2.9026,3.0253,3.0941,3.0402,3.2437,3.51,3.7853,3.9439,4.0018,3.9033,3.9305,3.906,3.7438,3.6729,3.6408,3.6508,3.6031,3.5504,3.5002,3.4951,3.4951,3.4901,3.4901,3.465,3.4098,3.4614,3.4614,3.4111,3.6811,3.8585,3.959,3.9671,4.0363,4.1504,4.0461,4.0039,3.9931,3.883,3.7977,3.734,3.673,3.6119,3.5586,3.5968,3.6728,3.7554,3.7554,3.7623,3.7593,0.0,0.0,0.0,0.0,0.0,0.0,0.0,0.0,0.0,0.0,0.0,0.0,0.0,0.0,0.0,0.0,0.0,0.0,0.0,2.1617,2.1506,2.1212,2.0863,2.0621,2.0436,2.1441,2.2304,2.296,2.4803,2.5756,2.5887,2.4222,2.3142,2.2678,2.1789,2.1724,2.2327,2.2327,2.2327,2.2327,2.2327,2.2327,0.0,0.0,0.0,0.0,0.0,0.0,0.0,0.0,1.9984,2.0019,1.9779,1.9869,2.0019,1.975,1.969,1.9779,2.0318,2.1994,2.367,2.3909,2.4926,2.6482,2.8846,3.0372,3.1509,3.2437,3.3365,3.3784,3.3095,3.4472,3.6327,3.8093,3.9529,4.014,3.9515,3.9117,3.8324,3.6921,3.5887,3.5353,3.5353,3.5177,3.4951,3.4751,3.4726,3.4726,3.4726,3.4726,3.4625,3.4424,3.3947,3.3918,3.4347,3.4738,3.5432,3.6521,3.8732,3.9952,4.0373,3.8888,3.8159,3.8102,3.6279,3.5332,3.5009,3.3806,3.3304,3.3441,3.4824,3.623,3.7375,3.6985,3.7075,3.7345,0.0,0.0,0.0,0.0,0.0,0.0,0.0,0.0,0.0,0.0,0.0,0.0,0.0,0.0,0.0,0.0,0.0,0.0,2.1695,2.1464,2.1284,2.118,2.0543,2.0175,2.005,2.1626,2.2519,2.2771,2.3825,2.4235,2.4028,2.2837,2.2094,2.1777,2.1376,2.1524,2.2089,2.2237,2.2327,2.2327,2.2327,2.2327,0.0,0.0,0.0,0.0,0.0,0.0,0.0,0.0,1.9909,1.969,1.969,1.969,1.969,1.969,1.969,1.969,1.969,2.1156,2.2832,2.346,2.5106,2.744,3.0702,3.2347,3.3604,3.51,3.5459,3.5489,3.5429,3.5818,3.6656,3.8153,3.9529,4.0127,3.939,3.8557,3.7561,3.6131,3.506,3.4399,3.4223,3.4198,3.4048,3.3696,3.3822,3.3847,3.3671,3.3671,3.3671,3.3671,3.2943,3.2937,3.3632,3.3251,3.3403,3.4093,3.6521,3.789,3.8325,3.665,3.6006,3.6034,3.3911,3.3034,3.2901,3.1661,3.1551,3.2347,3.3732,3.531,3.6746,3.6327,3.6447,3.6746,0.0,0.0,0.0,0.0,0.0,0.0,0.0,0.0,0.0,0.0,0.0,0.0,0.0,0.0,0.0,0.0,0.0,0.0,2.2617,2.2027,2.1592,2.1609,2.115,2.0712,2.0414,2.1744,2.2186,2.1615,2.215,2.28,2.355,2.2049,2.1286,2.129,2.1504,2.1582,2.1612,2.2089,2.2327,2.2327,2.2327,2.2327,2.2327,0.0,0.0,0.0,0.0,0.0,0.0,0.0,2.0398,1.969,1.969,1.969,1.969,1.969,1.969,1.969,1.969,2.0198,2.1216,2.3131,2.5136,2.7829,3.2437,3.3006,3.3484,3.6776,3.6417,3.5908,3.7195,3.6387,3.6148,3.8063,3.9499,3.9871,3.8309,3.8062,3.7223,3.4945,3.4198,3.3671,3.3119,3.3068,3.2591,3.1461,3.1888,3.1964,3.1411,3.1386,3.1386,3.1386,3.1386,3.1386,3.1386,3.2462,3.3013,3.3013,3.3013,3.3853,3.5328,3.3748,3.3225,3.3727,3.2077,3.1386,3.1336,3.0809,3.1368,3.2593,3.2593,3.3768,3.5519,3.5519,3.5519,3.5519,0.0,0.0,0.0,0.0,0.0,0.0,0.0,0.0,0.0,0.0,0.0,0.0,0.0,0.0,0.0,0.0,0.0,0.0,2.2283,2.1836,2.1696,2.1922,2.1085,2.0385,1.9839,1.9929,2.0924,2.2944,2.3041,2.2821,2.2233,2.1792,2.1203,2.0609,2.1499,2.1794,2.1612,2.2089,2.2327,2.2327,2.2327,2.2327,2.2327,0.0,0.0,0.0,0.0,0.0,0.0,0.0,0.0,0.0,1.969,2.0019,2.0318,1.9839,2.0019,2.0288,1.9809,2.1186,2.2981,2.4059,2.6512,2.9535,3.2766,3.4083,3.5549,3.8841,3.8452,3.7644,3.8033,3.7404,3.6896,3.7015,3.8153,3.8193,3.583,3.588,3.5277,3.2668,3.224,3.2064,3.1913,3.1888,3.1738,3.1411,3.1537,3.1562,3.1411,3.1386,3.1386,3.1386,3.1035,3.0859,3.0859,3.0773,3.0726,3.0726,3.0726,3.1811,3.3643,3.2486,3.1949,3.2051,3.1221,3.0859,3.0809,3.0256,3.1078,3.2593,3.2593,3.3768,3.5519,3.5519,3.5519,3.5429,0.0,0.0,0.0,0.0,0.0,0.0,0.0,0.0,0.0,0.0,0.0,0.0,0.0,0.0,0.0,0.0,0.0,0.0,0.0,2.2164,2.1948,2.231,2.1002,2.0194,2.0055,1.9923,2.0686,2.2367,2.2074,2.1598,2.0887,2.1348,2.1166,2.0482,2.155,2.1791,2.1504,2.1716,2.1797,2.1797,2.1797,2.1886,2.2032,0.0,0.0,0.0,0.0,0.0,0.0,0.0,0.0,0.0,1.969,1.9959,2.0228,1.9809,1.9989,2.0288,2.0139,2.1814,2.3939,2.5435,2.8098,3.112,3.4023,3.5908,3.7704,3.9948,3.932,3.8482,3.8751,3.7883,3.6977,3.6896,3.7178,3.6728,3.4713,3.4424,3.3641,3.161,3.1241,3.1085,3.1085,3.1085,3.0984,3.0783,3.0959,3.0984,3.0758,3.0758,3.0758,3.0758,3.0457,3.0281,3.0281,2.9955,2.9804,2.9804,2.9804,3.0495,3.1759,3.1052,3.0884,3.106,3.0532,3.0281,3.0256,2.993,3.0696,3.2019,3.1775,3.2917,3.4551,3.4617,3.4634,3.4745,0.0,0.0,0.0,0.0,0.0,0.0,0.0,0.0,0.0,0.0,0.0,0.0,0.0,0.0,0.0,0.0,0.0,0.0,0.0,0.0,2.2353,2.2737,2.0982,2.0219,2.0737,2.1044,2.1008,2.0655,2.0128,1.9797,1.9726,2.0819,2.1088,2.0655,2.1628,2.1705,2.1197,2.105,2.0991,2.0991,2.0991,2.1244,2.1582,2.1582,0.0,0.0,0.0,0.0,0.0,0.0,0.0,0.0,1.9726,1.972,1.9779,1.972,1.972,1.9929,2.0617,2.2203,2.4358,2.7081,2.9894,3.2766,3.5789,3.7913,3.9439,4.0157,3.9349,3.8691,3.932,3.7874,3.6701,3.7127,3.6487,3.5543,3.4269,3.3403,3.2508,3.136,3.0788,3.0532,3.0532,3.0532,3.0331,2.9829,3.0256,3.0306,2.9829,2.9804,2.9856,2.9934,2.9856,2.9856,2.9858,2.9781,2.9704,2.9704,2.9704,2.9704,2.9704,2.9754,3.0055,3.0507,2.9955,2.9651,2.9624,2.9524,3.0063,3.0786,3.0388,3.1291,3.2835,3.3062,3.3299,3.3544,0.0,0.0,0.0,0.0,0.0,0.0,0.0,0.0,0.0,0.0,0.0,0.0,0.0,0.0,0.0,0.0,0.0,0.0,0.0,0.0,2.2988,2.3093,2.1587,2.083,2.0919,2.0683,2.0478,2.0373,2.0788,2.0515,1.972,2.1001,2.1031,1.9995,2.1547,2.1574,2.055,2.086,2.0991,2.0991,2.0991,2.1244,2.1582,2.1582,2.1882,0.0,0.0,0.0,0.0,0.0,0.0,0.0,1.9803,2.0049,2.0378,1.9839,2.0079,2.0647,2.1306,2.2921,2.5166,2.8368,3.2317,3.5609,3.6327,3.7195,3.8182,3.9379,3.9409,3.926,3.9379,3.8242,3.685,3.5701,3.5761,3.5021,3.2313,3.2125,3.1827,3.0314,3.0005,2.998,2.998,2.998,2.993,2.9804,2.9905,2.9905,2.9804,2.9804,3.0139,3.0895,3.0216,2.9936,3.0268,2.9478,2.9126,2.9126,2.9126,2.9126,2.9126,2.9578,2.9854,2.993,2.9377,2.8867,2.8354,2.7613,2.7572,2.812,2.8924,2.9614,3.0528,3.2425,3.2847,3.262,0.0,0.0,0.0,0.0,0.0,0.0,0.0,0.0,0.0,0.0,0.0,0.0,0.0,0.0,0.0,0.0,0.0,0.0,0.0,0.0,2.2865,2.2677,2.1782,2.1213,2.0991,2.0959,2.0699,2.0299,2.0876,2.0822,2.0198,2.1216,2.1485,2.1165,2.1758,2.1592,2.0929,2.057,2.0364,2.0364,2.0364,2.0764,2.1306,2.1306,2.1584,2.1974,2.1974,0.0,0.0,0.0,0.0,0.0,0.0,0.0,2.04,1.9852,1.9929,2.0378,2.1036,2.3131,2.6123,3.0402,3.3754,3.6088,3.6417,3.6956,3.7614,3.8302,3.8452,3.8422,3.8432,3.7614,3.6709,3.5829,3.4979,3.3781,3.2085,3.136,3.0599,2.9499,2.9651,2.9677,2.9397,2.9351,2.9529,2.9779,2.9528,2.953,2.9933,3.0008,3.0299,3.0922,3.0447,3.0289,3.0465,2.9568,2.916,2.916,2.8746,2.8524,2.8549,2.885,2.9126,2.9352,2.8299,2.7791,2.7656,2.5853,2.5215,2.5451,2.5761,2.6282,2.708,2.9145,3.0173,3.0768,0.0,0.0,0.0,0.0,0.0,0.0,0.0,0.0,0.0,0.0,0.0,0.0,0.0,0.0,0.0,0.0,0.0,0.0,0.0,0.0,0.0,2.2118,2.1845,2.1521,2.1118,2.143,2.1212,2.04,2.0829,2.1061,2.1216,2.1545,2.1934,2.2323,2.1904,2.1584,2.1392,2.0205,1.9762,1.9803,1.9726,2.0189,2.0862,2.0862,2.115,2.1491,2.1582,2.1337,2.0991,2.0991,0.0,0.0,0.0,0.0,2.0124,1.9803,1.969,1.9869,2.0677,2.337,2.7081,3.1809,3.3993,3.516,3.5818,3.6357,3.6746,3.6746,3.7015,3.7233,3.706,3.6537,3.6052,3.5574,3.3691,3.219,3.1888,3.047,2.9294,2.8864,2.9199,2.9327,2.8839,2.8749,2.9001,2.9479,2.9176,2.9269,3.002,3.0164,3.0422,3.0825,3.0663,3.0608,3.0699,2.9807,2.9257,2.9223,2.8252,2.7893,2.8037,2.7792,2.8072,2.8675,2.716,2.6605,2.6621,2.4046,2.2808,2.2531,2.2298,2.2624,2.3512,2.5411,2.7039,2.858,0.0,0.0,0.0,0.0,0.0,0.0,0.0,0.0,0.0,0.0,0.0,0.0,0.0,0.0,0.0,0.0,0.0,0.0,2.37,0.0,0.0,2.2146,2.2068,2.184,2.1521,2.1582,2.1368,2.0894,2.0959,2.178,2.3191,2.2173,2.1425,2.1006,2.1485,2.1235,2.0439,1.9929,1.9909,2.0193,1.9839,1.998,2.0366,2.0366,2.0698,2.1118,2.146,2.1337,2.0991,2.0991,2.0731,0.0,0.0,0.0,1.9797,1.9726,1.969,1.9959,2.1216,2.4388,2.7889,3.0313,3.1928,3.3095,3.3754,3.3963,3.4023,3.4023,3.54,3.6417,3.5848,3.519,3.409,3.1886,3.1299,3.0508,2.8922,2.8484,2.8256,2.8232,2.8293,2.8282,2.8187,2.8223,2.8225,2.8337,2.8964,2.9371,2.9513,3.0185,3.0948,3.1882,3.1065,3.0815,3.1088,2.9664,2.8822,2.8591,2.7352,2.7079,2.7639,2.6477,2.6766,2.8099,2.6602,2.5164,2.3774,2.1683,2.0029,1.8811,1.967,2.0157,2.069,2.372,2.5435,2.6634,0.0,0.0,0.0,0.0,0.0,0.0,0.0,0.0,0.0,0.0,0.0,0.0,0.0,0.0,0.0,2.4235,2.3727,2.3503,2.3797,2.3502,2.33,2.3186,2.2877,2.266,2.2504,2.2324,2.1898,2.1272,2.1086,2.1507,0.0,2.2193,2.301,2.4507,2.3699,2.2896,2.207,2.102,2.035,1.998,2.005,2.0158,2.0299,2.0299,2.0431,2.0632,2.0797,2.0732,2.0632,2.0632,2.0665,2.0632,2.0158,0.0,0.0,0.0,1.969,2.0049,2.1784,2.3563,2.5555,2.8667,2.9894,3.0702,3.2078,3.2407,3.2407,3.2407,3.3095,3.3844,3.4292,3.3706,3.2844,3.176,3.049,2.936,2.8534,2.7742,2.7097,2.6747,2.6993,2.7207,2.716,2.7608,2.7962,2.8265,2.8716,2.9116,2.9242,2.9533,3.0017,3.069,3.0626,3.048,3.0308,2.9485,2.8608,2.7651,2.703,2.6733,2.6606,2.6051,2.6123,2.6749,2.5175,2.4011,2.2919,1.9897,1.8488,1.8231,1.8522,1.9203,2.0309,2.3412,2.5546,2.7057,0.0,0.0,0.0,0.0,0.0,0.0,0.0,0.0,0.0,0.0,0.0,0.0,0.0,0.0,0.0,0.0,2.462,2.4072,2.3853,2.3535,2.3543,2.3988,2.3623,2.3315,2.3189,2.2873,2.2317,2.1513,2.118,0.0,2.2395,2.2586,2.4636,0.0,2.5586,2.4075,2.319,2.1912,2.0996,2.0358,2.0207,2.0158,2.0158,2.0158,2.0158,2.0158,2.0261,2.0227,2.0158,2.0296,2.0465,2.0599,2.0261,2.0158,0.0,0.0,0.0,2.0171,2.1554,2.2173,2.3191,2.6303,2.735,2.8068,2.9864,3.0402,3.0582,3.0761,3.0911,3.1273,3.205,3.1953,3.155,3.1031,2.9449,2.8203,2.7766,2.6737,2.5923,2.5419,2.5961,2.6369,2.633,2.703,2.7642,2.8026,2.8447,2.8741,2.8913,2.9088,2.9344,2.9594,3.0043,3.0043,2.9594,2.9055,2.8254,2.7144,2.6428,2.5986,2.5761,2.5363,2.5099,2.4874,2.3667,2.2687,2.1686,1.8879,1.7761,1.7868,1.8117,1.8958,2.0424,2.305,2.5384,2.7292,0.0,0.0,0.0,0.0,0.0,0.0,0.0,0.0,0.0,0.0,0.0,0.0,2.5303,2.5351,2.539,2.539,2.4716,2.4169,2.3918,2.4503,2.4615,2.4007,2.395,0.0,2.3212,2.2873,2.2317,2.1513,0.0,0.0,2.4417,2.3775,2.5587,2.9355,2.5865,2.3612,2.2347,0.0,0.0,0.0,2.0388,1.9726,1.9726,1.9726,1.9726,1.9767,2.0158,2.0054,1.9767,2.0193,2.0054,1.9762,1.9762,1.9726,1.9803,0.0,0.0,0.0,1.9954,2.0767,2.1934,2.2772,2.3909,2.5196,2.6542,2.732,2.7949,2.8607,2.9235,2.952,2.8768,2.969,2.9925,2.7781,2.7345,2.6755,2.5241,2.4937,2.4884,2.4866,2.5476,2.5933,2.5928,2.6592,2.7065,2.7048,2.7854,2.8311,2.8339,2.9127,2.954,2.9594,2.9624,2.9624,2.9594,2.8152,2.7457,2.7548,2.4778,2.4169,2.5383,2.3891,2.3034,2.2633,2.2275,2.1026,1.9291,1.902,1.8007,1.6722,1.8112,1.9297,2.0361,2.2001,2.4038,2.6062,0.0,0.0,0.0,0.0,0.0,0.0,0.0,0.0,0.0,0.0,0.0,0.0,0.0,2.5351,2.539,2.5341,2.5111,2.4918,2.4812,2.4919,2.4853,2.4516,2.4405,2.4174,2.3837,2.3282,2.2728,2.2187,2.1395,2.149,2.2414,2.2249,2.2994,2.4451,2.4451,2.4411,2.429,2.23,0.0,0.0,2.0416,1.9945,1.969,1.969,1.969,1.9726,1.9874,1.9803,1.9726,1.9874,1.9803,1.969,1.969,1.9874,2.0158,2.0632,2.0764,2.0665,2.0193,2.0457,2.099,2.1834,2.2383,2.3101,2.4388,2.4837,2.5226,2.5914,2.6243,2.6415,2.6553,2.7292,2.7427,2.6099,2.4866,2.3839,2.328,2.2892,2.2814,2.3202,2.3522,2.4148,2.5314,2.6217,2.6806,2.7187,2.7996,2.8311,2.7883,2.7748,2.769,2.7649,2.8068,2.8359,2.8359,2.6535,2.5691,2.5736,2.4263,2.358,2.3581,2.3034,2.2121,2.102,2.088,2.0837,2.0871,2.0603,2.0355,2.0312,2.1579,2.2719,2.3811,2.5694,2.7102,2.7995,0.0,0.0,0.0,0.0,0.0,0.0,0.0,0.0,0.0,2.5303,0.0,0.0,0.0,0.0,2.539,2.539,2.529,2.522,2.522,2.5018,2.4864,2.4716,2.4559,2.441,2.419,2.3544,2.301,2.2582,2.1513,2.1189,2.1545,2.1281,2.1527,2.2294,2.2908,2.3839,0.0,0.0,2.1645,2.1315,2.0436,2.0218,2.0378,2.0617,2.0827,2.0976,2.0767,2.0557,2.0288,1.9839,1.969,1.969,1.969,2.0054,2.0565,2.0731,2.0959,2.1086,2.0467,2.0299,2.0408,2.0911,2.1036,2.1306,2.2383,2.2802,2.3161,2.3819,2.4148,2.4328,2.4515,2.4726,2.4773,2.466,2.3563,2.2588,2.2078,2.1711,2.1655,2.2059,2.2485,2.3253,2.4528,2.5586,2.6369,2.6694,2.727,2.7394,2.695,2.6475,2.6243,2.6243,2.6901,2.7091,2.6624,2.5374,2.4566,2.4369,2.3247,2.2607,2.2326,2.2088,2.1386,2.0387,2.058,2.0862,2.1152,2.1433,2.1792,2.2346,2.408,2.5358,2.6334,2.7898,2.8834,2.9183,0.0,0.0,0.0,0.0,0.0,0.0,0.0,0.0,2.5303,2.5303,0.0,0.0,0.0,0.0,0.0,2.5485,2.5244,2.5095,2.5095,2.4912,2.4716,2.4493,2.4476,2.441,2.419,2.3544,2.3034,2.2642,2.1543,2.146,2.2269,2.1105,2.164,2.3417,2.1468,2.1698,2.349,2.2862,2.2622,2.2503,2.0498,2.0528,2.1744,2.2413,2.3011,2.346,2.2862,2.2233,2.1485,2.0198,1.972,1.972,1.9726,2.0296,0.0,0.0,0.0,2.1399,0.0,0.0,0.0,1.9803,1.969,1.9869,2.0528,2.1186,2.1814,2.2473,2.3101,2.3303,2.2591,2.2058,2.205,2.3303,2.3506,2.296,2.167,2.1429,2.1433,2.1484,2.2616,2.3455,2.3461,2.4718,2.5546,2.5546,2.5575,2.5625,2.5625,2.56,2.5575,2.5585,2.6183,2.5942,2.4664,2.4635,2.4262,2.358,2.1676,2.1086,2.1743,2.0987,2.0693,2.0718,2.1247,2.0836,1.9884,2.1458,2.2112,2.23,2.5276,2.6852,2.7504,2.8006,2.8764,2.9314,0.0,0.0,0.0,0.0,0.0,0.0,2.5303,2.5303,2.5303,0.0,0.0,0.0,2.5088,2.5019,2.4953,2.4969,2.4908,2.4884,2.4884,2.4818,2.4716,2.4493,2.4476,2.441,2.419,2.3774,2.3374,2.3034,2.2201,2.1655,2.1365,2.0681,2.0798,2.1485,2.0931,2.1228,2.2143,2.1006,2.106,2.183,2.0813,2.0912,2.1656,2.1891,2.2084,2.2203,2.2024,2.1844,2.1635,2.1276,2.0827,2.0385,2.0203,0.0,0.0,0.0,0.0,0.0,2.0434,0.0,0.0,0.0,0.0,0.0,1.9929,2.0109,2.0438,2.1126,2.1395,2.1585,2.1869,2.1478,2.1084,2.0945,2.0568,2.0267,2.0267,1.9946,2.0,2.084,2.1238,2.1874,2.2802,2.3689,2.4343,2.4822,2.5349,2.5773,2.6153,2.5725,2.5468,2.5452,2.4776,2.4266,2.3999,2.3036,2.2235,2.1622,2.0552,2.0169,2.0322,2.0141,2.0037,2.0089,2.0708,2.1016,2.115,2.2591,2.3668,2.4539,2.6349,2.7375,2.7941,2.8211,2.8523,2.8504,0.0,0.0,0.0,0.0,0.0,2.5297,2.5669,2.5356,2.5206,0.0,0.0,0.0,2.5397,2.5641,2.58,2.5796,2.5405,2.518,2.518,2.4778,2.4513,2.4375,2.4375,2.4303,2.419,2.3858,2.3544,2.3189,2.2478,2.1811,2.1244,2.0601,2.0373,2.0552,2.0362,0.0,0.0,2.0019,2.0448,2.1578,2.0644,2.1129,2.2469,2.2497,2.2832,2.334,2.334,2.3161,2.2832,2.2293,2.1665,2.1045,2.0618,2.0773,2.1073,2.0789,2.102,0.0,0.0,0.0,2.0227,1.9803,0.0,0.0,1.969,1.969,1.9809,2.0198,2.0288,2.0333,2.0498,2.0283,1.9826,1.9225,1.8661,1.8482,1.9046,1.9021,1.9212,1.9866,2.039,2.1009,2.1764,2.2705,2.3396,2.3786,2.4625,2.5321,2.5873,2.5321,2.5009,2.4989,2.4334,2.3659,2.2837,2.2649,2.1939,2.0795,2.0396,2.0194,2.0194,1.9965,1.994,2.0245,2.0646,2.1278,2.2144,2.3138,2.4177,2.5379,2.7009,2.7877,2.8276,2.838,2.8289,2.7865,0.0,0.0,2.5341,2.5293,2.5187,2.5387,2.6148,2.557,2.5318,0.0,2.5446,2.5227,2.593,2.6609,2.7004,2.7076,2.6227,2.5727,2.5671,2.4819,2.43,2.419,2.419,2.419,2.419,2.3935,2.3566,2.3189,2.2556,2.2079,2.1713,2.0957,2.0525,2.0423,2.0066,0.0,0.0,1.969,2.0408,2.1485,2.0348,2.1386,2.3612,2.3596,2.4358,2.5375,2.5375,2.5046,2.4448,2.3191,2.2353,2.1665,2.0946,2.1394,2.1978,2.072,2.1064,0.0,0.0,0.0,0.0,1.9767,1.975,0.0,1.972,1.975,1.9779,1.9726,1.969,1.9551,1.908,1.893,1.8741,1.8249,1.7733,1.7597,1.8175,1.8595,1.8852,1.8975,1.9914,2.0587,2.0587,2.1714,2.2473,2.2464,2.3677,2.4665,2.5271,2.4732,2.4406,2.4487,2.4329,2.3436,2.1727,2.2798,2.246,2.0709,2.0709,2.0709,2.066,2.0116,2.0217,2.0709,2.0811,2.1505,2.2509,2.3109,2.4055,2.531,2.7048,2.79,2.8137,2.7971,2.7638,2.7029,0.0,2.539,2.5273,2.5088,2.5564,2.6007,2.6042,2.6434,2.6779,2.6968,2.6414,2.6009,2.5994,2.5888,2.5949,2.6227,2.6036,2.5798,2.5461,2.5257,2.4887,2.4226,2.419,2.419,2.419,2.4151,2.3816,2.3189,2.3069,2.2814,2.2468,2.231,2.1889,2.1268,2.1162,2.0605,1.969,1.969,2.0168,2.0917,2.1186,2.2199,2.3525,2.357,2.3759,2.3999,2.3999,2.4268,2.4462,2.3699,2.3011,2.2263,2.1096,2.1195,2.1633,2.085,2.0775,2.0909,2.0677,2.0225,1.9803,1.9726,2.0109,0.0,1.9809,2.0109,2.0348,1.9809,1.969,1.969,1.9551,1.9192,1.8855,1.8779,1.8288,1.8135,1.8663,1.8488,1.8602,1.9434,1.976,1.9899,1.9899,2.0617,2.1087,2.1089,2.3043,2.4707,2.5812,2.4806,2.4515,2.5013,2.3253,2.2092,2.1679,2.1441,2.0857,1.9989,1.9989,1.9989,2.0016,2.0433,2.0406,2.0061,2.1097,2.1367,2.1181,2.2173,2.3655,2.5194,2.5379,2.5714,2.6004,2.5111,2.4679,2.4446,2.5428,2.539,2.5273,2.5053,2.5614,2.6307,2.6947,2.6972,2.7344,2.8552,2.8064,2.7478,2.6941,2.7103,2.7222,2.7222,2.7006,2.6736,2.6322,2.6088,2.5621,2.4814,2.4777,2.4593,2.419,2.4036,2.3674,2.3189,2.3045,2.297,2.3042,2.2824,2.2475,2.208,2.2293,2.1655,2.0533,2.0904,2.1303,2.1665,2.1335,2.1969,2.3098,2.3122,2.334,2.364,2.3999,2.4328,2.4492,2.3819,2.34,2.2921,2.1605,2.1874,2.2383,2.1096,2.0946,2.1066,2.0378,1.9959,1.969,1.969,1.9959,0.0,0.0,1.9959,2.0109,1.975,1.969,1.9617,1.9369,1.908,1.8817,1.8521,1.8288,1.8288,1.8817,1.8664,1.8703,1.9258,1.9515,1.969,1.969,2.0318,2.0933,2.15,2.2865,2.4048,2.4912,2.4112,2.3826,2.4116,2.2532,2.1535,2.1168,2.1207,2.0896,2.0274,2.0259,2.0217,2.0245,2.0291,2.0263,2.0288,2.0898,2.1207,2.1274,2.2072,2.2936,2.3834,2.3958,2.4144,2.4282,2.375,2.3349,2.305,2.5428,2.539,2.5301,2.5018,2.5669,2.6585,2.766,2.7364,2.7824,2.9916,2.9551,2.8942,2.8429,2.8785,2.91,2.9331,2.8324,2.7775,2.7997,2.7141,2.6245,2.5458,2.5568,2.5181,2.4226,2.4003,2.3688,2.3189,2.3012,2.3165,2.3613,2.3376,2.3222,2.3159,2.3289,2.2646,2.1538,2.2009,2.2263,2.2233,2.1425,2.1784,2.2862,2.2862,2.3161,2.3699,2.4388,2.4492,2.4313,2.3939,2.3699,2.34,2.2233,2.2682,2.3251,2.1425,2.1276,2.1425,2.0198,1.9869,1.9839,1.972,1.9869,2.0019,0.0,0.0,0.0,1.972,1.969,1.9551,1.9118,1.9043,1.8893,1.8482,1.8405,1.8588,1.9006,1.9043,1.9043,1.9043,1.9442,1.969,1.969,2.0198,2.0993,2.2127,2.2564,2.3121,2.385,2.3256,2.2978,2.3124,2.2022,2.1218,2.0698,2.1138,2.105,2.0494,2.0512,2.0501,2.0501,2.0147,2.0161,2.0501,2.0616,2.0929,2.1345,2.1743,2.1861,2.1935,2.2674,2.2948,2.2844,2.2684,2.2335,2.1842,2.5457,2.5303,2.5231,2.4888,2.6057,2.6984,2.679,2.786,2.9108,3.0063,2.9817,2.9781,3.0469,2.9653,3.0062,3.2538,2.9393,2.8324,3.0784,2.8205,2.6245,2.5458,2.6062,2.5768,2.4226,2.4584,2.4262,2.3189,2.358,2.399,2.4388,2.5002,2.5079,2.4712,2.4116,2.3245,2.2257,2.1662,2.1247,2.1036,2.2054,2.2862,2.349,2.349,2.355,2.3699,2.4388,2.4238,2.3789,2.4328,2.4088,2.349,2.2772,2.3041,2.334,2.1964,2.1635,2.1545,2.0797,2.0587,2.0438,1.9839,2.0587,2.1156,1.9959,0.0,2.0438,1.9809,0.0,1.969,1.9617,0.0,0.0,1.9515,1.9515,1.9515,1.9617,1.9617,1.9617,1.9617,1.9654,1.969,1.969,1.975,2.0334,2.1481,2.165,2.2325,2.3819,2.2833,2.2465,2.3067,2.1378,2.0546,2.0691,2.0182,1.9899,1.9796,1.9826,1.9826,1.9856,2.0338,2.0317,1.9856,2.0444,2.0393,1.9899,1.9972,2.0008,2.0177,2.1616,2.2004,2.1624,2.0898,2.0369,2.005,2.5324,2.5646,2.5734,2.4791,2.6038,2.7229,2.7285,2.9843,3.1421,3.0356,3.1283,3.2192,3.2557,3.1838,3.2086,3.3834,3.1477,3.0423,3.1719,2.9417,2.786,2.7493,2.7383,2.6759,2.5621,2.5384,2.5013,2.4534,2.4365,2.4543,2.5135,2.5473,2.5511,2.5346,2.5012,2.4249,2.3141,2.2984,2.2643,2.2269,2.2957,2.337,2.361,2.361,2.361,2.364,2.3939,2.3849,2.358,2.352,2.355,2.349,2.2862,2.3101,2.334,2.2054,2.1695,2.1455,2.0408,2.0109,2.0049,1.975,2.0109,2.0378,1.9809,1.9899,2.0049,1.975,0.0,0.0,0.0,0.0,0.0,0.0,1.969,1.9767,2.005,2.0054,1.998,1.9726,1.969,1.969,1.969,1.969,1.9918,2.0441,2.0933,2.1501,2.2183,2.1955,2.1827,2.1887,2.0836,2.0233,2.011,1.9852,1.969,1.969,1.969,1.969,1.969,1.9989,1.9959,1.9726,1.9989,1.9959,1.969,1.9369,1.9258,1.9258,1.9649,2.0092,2.0411,2.0071,1.9839,1.9726,2.5244,2.58,2.6173,2.5105,2.6122,2.7419,2.8331,3.076,3.2082,3.1017,3.2192,3.3476,3.4394,3.412,3.4552,3.6163,3.4298,3.311,3.3226,3.1002,2.9365,2.8705,2.8338,2.764,2.6612,2.6189,2.5806,2.549,2.5138,2.5193,2.5609,2.5609,2.571,2.5879,2.5473,2.4945,2.4345,2.4288,2.3978,2.3577,2.3732,2.3709,2.361,2.361,2.361,2.361,2.361,2.361,2.352,2.3071,2.3221,2.352,2.3071,2.3251,2.334,2.2054,2.1814,2.1635,2.0109,1.9959,2.0139,1.9779,1.9839,1.9929,1.972,1.969,1.969,1.969,1.969,0.0,0.0,0.0,1.969,1.969,0.0,1.998,2.0261,2.04,2.033,1.9909,1.9797,1.969,1.969,1.969,1.9762,1.9839,2.0465,2.0926,2.115,2.143,2.146,2.1181,2.0731,2.0296,1.9874,1.9762,1.969,1.969,1.969,1.969,1.969,1.969,1.969,1.969,1.969,1.9617,1.9442,1.9043,1.8817,1.8664,1.8405,1.8817,1.9479,1.9479,1.9551,1.969,2.5371,2.5716,2.6224,2.5997,2.65,2.7638,2.9779,2.9586,2.9965,3.2228,3.1898,3.2669,3.5862,3.6193,3.7448,4.0602,3.7998,3.6164,3.6156,3.3109,3.0283,2.7934,2.8558,2.8205,2.6649,2.7004,2.6655,2.549,2.5917,2.5949,2.5609,2.5609,2.5981,2.659,2.5169,2.5045,2.5898,2.5102,2.4525,2.4191,2.4311,2.4059,2.361,2.361,2.361,2.361,2.361,2.361,2.361,2.358,2.358,2.361,2.358,2.358,2.334,2.2054,2.2143,2.2244,2.0228,2.0647,2.1306,2.0019,2.0198,2.0498,1.9839,1.969,1.969,1.969,1.969,1.969,1.969,1.969,1.969,1.969,2.0019,0.0,0.0,2.0698,2.0797,2.0364,1.9945,1.969,1.969,1.969,1.9874,2.023,2.0299,2.0699,2.1521,2.1582,2.1582,2.1582,2.1181,2.0764,2.0296,1.9909,1.969,1.969,1.969,1.969,1.969,1.969,1.969,1.969,1.969,1.9406,1.893,1.8893,1.8588,1.8171,1.8703,1.8893,1.893,1.893,1.9258,1.969,2.7403,2.754,2.7327,2.603,2.6947,2.839,2.995,3.1311,3.2889,3.4798,3.5752,3.7477,4.0708,4.0771,4.1139,4.2546,4.0336,3.8594,3.7924,3.5312,3.3183,3.1825,3.1531,3.0515,2.8651,2.8732,2.8103,2.6685,2.6844,2.6705,2.6319,2.6319,2.6454,2.6657,2.5676,2.541,2.5682,2.4547,2.3981,2.3874,2.4079,2.4666,2.5258,2.4061,2.361,2.361,2.361,2.361,2.361,2.361,2.361,2.361,2.361,2.361,2.334,2.2054,2.1844,2.1744,2.0477,2.0426,2.0865,2.1189,2.1067,2.0902,2.0905,2.0461,2.0019,1.9762,1.969,1.969,1.969,1.969,1.9767,2.0054,2.0227,2.0501,0.0,2.1086,2.0926,2.0797,2.0632,2.0431,2.0124,2.0364,2.0632,2.0764,2.0991,2.1306,2.1582,2.1882,2.1945,2.1612,2.146,2.1213,2.0764,2.0632,2.0565,2.0565,2.0565,2.0565,2.0532,2.0227,2.0089,2.0054,1.9449,1.908,1.8855,1.8131,1.7933,1.8052,1.7894,1.8249,1.893,1.9295,1.9515,1.9654,2.811,2.8487,2.8437,2.6842,2.7942,2.9502,3.0846,3.2852,3.5018,3.7294,3.8469,4.0341,4.3571,4.3616,4.3579,4.3903,4.2886,4.1212,3.8841,3.7477,3.5862,3.388,3.3293,3.2161,3.0275,3.0107,2.9211,2.7517,2.7643,2.7358,2.6691,2.642,2.6454,2.6657,2.5947,2.5744,2.5914,2.5146,2.478,2.478,2.4789,2.4917,2.5041,2.411,2.4112,2.4522,2.4276,2.4142,2.4142,2.4142,2.4142,2.4112,2.366,2.3516,2.3232,2.1764,2.1603,2.1675,2.0597,2.0587,2.1041,2.1566,2.1535,2.1374,2.1327,2.103,2.0632,2.0314,1.9984,1.975,2.0019,1.9984,1.9984,2.0261,2.0567,2.1023,0.0,2.146,2.115,2.1023,2.0862,2.0632,2.0333,2.0731,2.1055,2.1213,2.146,2.1642,2.1823,2.2152,2.218,2.1853,2.1705,2.1552,2.1397,2.1243,2.121,2.1332,2.104,2.104,2.1301,2.0607,2.0382,2.0436,1.9713,1.9229,1.8855,1.8131,1.7933,1.8092,1.8104,1.8444,1.893,1.9295,1.9515,1.9617,2.7612,2.8645,2.9494,2.848,2.9377,3.0834,3.2485,3.4073,3.634,3.9643,4.012,4.1368,4.4599,4.4892,4.4856,4.4782,4.5443,4.3901,3.9203,3.957,3.8212,3.4211,3.4027,3.3256,3.1506,3.1093,2.9904,2.7968,2.8219,2.7837,2.6724,2.6013,2.6047,2.6724,2.5979,2.6015,2.6657,2.6623,2.659,2.6556,2.611,2.4857,2.3323,2.3935,2.5099,2.623,2.5413,2.5157,2.5157,2.5189,2.5157,2.4952,2.3787,2.3414,2.3088,2.1296,2.1508,2.1997,2.0705,2.1171,2.1855,2.1279,2.1601,2.1923,2.1247,2.13,2.1459,2.1326,2.0441,1.9906,2.0565,2.0513,2.0333,2.0333,2.1086,2.1794,2.2237,2.1915,2.146,2.1055,2.0665,2.0333,2.0333,2.0797,2.1213,2.1612,2.1612,2.1823,2.2293,2.2321,2.2321,2.2349,2.1911,2.1816,2.2152,2.1807,2.1707,2.1908,2.117,2.117,2.1841,2.0794,2.0489,2.0798,2.044,1.9783,1.893,1.893,1.8636,1.8288,1.9244,1.9383,1.8968,1.8968,1.9258,1.9551,2.8778,2.9828,3.1085,3.1372,3.125,3.1825,3.4037,3.5789,3.8212,4.2066,4.3094,4.4709,4.7976,4.7755,4.6911,4.57,4.5773,4.4599,4.1589,4.1552,4.0414,3.7588,3.7441,3.5967,3.2892,3.2383,3.1039,2.8805,2.827,2.7871,2.7542,2.6815,2.6847,2.7542,2.6783,2.6379,2.6255,2.5428,2.5065,2.5033,2.4938,2.5581,2.6447,2.5547,2.578,2.6376,2.4931,2.4365,2.445,2.4996,2.4847,2.4335,2.4023,2.3915,2.3622,2.2122,2.1866,2.194,2.1407,2.1499,2.1882,2.2615,2.2508,2.2252,2.2274,2.1666,2.1115,2.1083,2.059,2.0323,2.0816,2.0857,2.0926,2.1212,2.1735,2.218,2.2265,2.1915,2.1552,2.146,2.1337,2.115,2.0862,2.1524,2.2003,2.2089,2.2123,2.226,2.2573,2.2599,2.273,2.2982,2.2848,2.2813,2.2912,2.2976,2.2693,2.2127,2.2082,2.1821,2.1437,2.0708,2.0592,2.0969,2.0088,1.961,1.939,1.933,1.9258,1.928,1.9858,1.9997,1.9884,1.9624,1.9332,1.8968,3.0233,3.1641,3.3256,3.4064,3.4724,3.5459,3.6486,3.7734,3.9863,4.3534,4.4745,4.6067,4.8269,4.8379,4.7645,4.603,4.5883,4.4892,4.247,4.2616,4.1735,3.9313,3.9203,3.7424,3.3595,3.3085,3.1454,2.8563,2.8252,2.7952,2.7636,2.7178,2.721,2.7636,2.7178,2.6747,2.6367,2.5737,2.527,2.5,2.5304,2.5812,0.0,2.5439,2.5372,2.5544,2.4282,2.3983,2.4348,2.4745,2.4614,2.4181,2.3654,2.3489,2.3226,2.1954,2.1697,2.1794,2.162,2.1764,2.2074,2.2743,2.2868,2.2743,2.2542,2.2108,2.1729,2.1697,2.1118,2.0793,2.1341,2.1344,2.146,2.1989,2.2198,2.2349,2.248,2.1965,2.1582,2.1582,2.1582,2.1521,2.1275,2.1886,2.2327,2.2327,2.2398,2.2554,2.2695,2.2848,2.3034,2.3325,2.3325,2.3458,2.3676,2.3432,2.3088,2.2775,2.2157,2.1824,2.1708,2.0859,2.0737,2.1105,2.0662,2.03,2.0004,2.0221,2.0276,2.02,2.0234,2.0268,2.0196,1.9594,1.8977,1.831,3.2008,3.3733,3.5569,3.6303,3.8542,4.001,3.9423,4.0194,4.1919,4.4966,4.5957,4.6691,4.7498,4.7939,4.7535,4.603,4.5773,4.4674,4.2477,4.2845,4.2187,4.0024,3.9808,3.7869,3.4,3.3386,3.144,2.8045,2.8181,2.7962,2.7369,2.7272,2.7303,2.7422,2.7303,2.6985,2.6556,2.6556,2.6184,2.5676,2.6285,2.5845,2.4794,2.4591,2.4523,2.4421,2.3646,2.3782,2.4388,2.4489,2.4455,2.4191,2.3179,2.2853,2.2659,2.1593,2.1488,2.1761,2.1761,2.2032,2.2327,2.2327,2.2767,2.3105,2.2462,2.2441,2.2566,2.2567,2.176,2.1279,2.1956,2.1946,2.2017,2.2669,2.2581,2.248,2.2669,2.2158,2.1731,2.1705,2.1672,0.0,2.1599,2.2051,2.2315,2.2214,2.2461,2.2633,2.2683,2.2965,2.332,2.3599,2.366,2.3896,2.434,2.363,2.3349,2.3544,2.2111,2.1708,2.2196,2.1287,2.1063,2.1341,2.1606,2.1364,2.0887,2.1378,2.1423,2.1086,2.0567,2.0333,2.0162,1.9163,1.8377,1.7518,3.4403,3.5826,3.711,3.7257,3.9827,4.2066,4.258,4.4488,4.6544,4.8489,4.8857,4.926,5.0068,4.8453,4.6948,4.5993,4.4889,4.3788,4.27,4.174,4.0912,4.0167,3.9191,3.729,3.4441,3.3203,3.1392,2.8902,2.7953,2.7596,2.7762,2.7122,2.7299,2.8166,2.7206,2.6419,2.5812,2.5812,2.571,2.5609,2.5744,2.6015,2.6184,2.4963,2.4523,2.4421,2.3646,2.3477,2.368,2.4289,2.4086,2.3604,2.3665,2.3687,2.3571,2.298,2.266,2.2512,2.2512,2.2392,2.2327,2.2327,2.2395,2.2462,2.2327,2.2045,2.19,2.2262,2.1893,2.1735,2.2432,2.2764,2.2972,2.3093,2.3069,2.2947,2.2721,2.2591,2.2439,2.2175,2.218,2.2023,2.155,2.2194,2.235,2.1713,2.1941,2.2268,2.2511,2.2765,2.3327,2.4281,2.4468,2.461,2.4708,2.4674,2.436,2.3815,2.3684,2.2988,2.1827,2.2221,2.2249,2.2016,2.1992,2.2169,2.2541,2.227,2.2085,2.184,2.1149,2.0665,2.0128,1.8722,1.7531,1.6397,3.7477,3.8542,3.9643,4.0451,4.291,4.5223,4.6434,4.8343,4.9187,4.7829,4.8049,4.8122,4.7682,4.7315,4.6505,4.5,4.4258,4.3444,4.2297,4.1268,4.041,3.9863,3.8569,3.6613,3.4083,3.2652,3.0873,2.8766,2.7763,2.7382,2.7558,2.7196,2.7284,2.7805,2.7051,2.6488,2.6184,2.6184,2.6184,2.6184,2.6184,2.615,2.6015,2.4929,2.4286,2.3816,2.3105,2.2835,2.2868,2.3241,2.3105,2.2892,2.315,2.3284,2.3267,2.3199,2.3093,2.2972,2.2972,2.2883,2.279,2.279,2.279,2.2738,2.2554,2.2493,2.2459,2.25,2.2493,2.253,2.2898,2.3093,2.3305,2.3581,2.3361,2.3259,2.3348,2.313,2.2898,2.2755,2.2418,2.2027,2.179,2.1884,2.193,2.1779,2.1666,2.1867,2.2479,2.285,2.3161,2.3349,2.4403,2.4803,2.4495,2.4591,2.446,2.4094,2.3752,2.3178,2.2454,2.276,2.281,2.2617,2.2384,2.2633,2.3167,2.2602,2.2314,2.2146,2.1055,2.0352,1.9783,1.8531,1.7165,1.5651,4.0487,4.1332,4.2323,4.3754,4.603,4.7939,4.8857,5.0692,5.0839,4.7609,4.7462,4.7057,4.548,4.6138,4.5875,4.3876,4.3427,4.2787,4.1674,4.0629,3.9856,3.9347,3.7651,3.568,3.3559,3.1941,3.0219,2.8276,2.7531,2.7165,2.7199,2.7199,2.7226,2.7303,2.7051,2.6889,2.6858,2.6858,2.6791,2.6691,2.6522,2.6116,2.5507,2.4594,2.3883,2.3308,2.2564,2.2349,2.2405,2.2405,2.2405,2.2426,2.273,2.2873,2.2972,2.3305,2.3351,2.3305,2.3305,2.3236,2.3189,2.3189,2.3189,2.3117,2.2873,2.3021,2.3117,2.2873,2.3106,2.3361,2.3361,2.345,2.3666,2.4044,2.3749,2.3559,2.389,2.3559,2.3223,2.2976,2.2364,2.1892,2.1617,2.1258,2.1231,2.1654,2.1502,2.1675,2.2327,2.297,2.3214,2.2852,2.4322,2.4935,2.4476,2.4524,2.4553,2.4553,2.387,2.349,2.3369,2.3474,2.3447,2.3254,2.301,2.3068,2.3193,2.2731,2.2324,2.1927,2.0793,1.9941,1.9248,1.8426,1.7068,1.5437,4.2983,4.3828,4.4635,4.5516,4.7682,4.882,4.7535,4.9994,5.1867,5.1463,5.0215,4.8809,4.7379,4.6106,4.4705,4.3188,4.1911,4.1094,4.1013,3.9225,3.8311,3.8633,3.6174,3.4254,3.3174,3.1227,2.9437,2.7842,2.7129,2.6757,2.6759,2.6759,2.6956,2.7334,2.7636,2.7607,2.7241,2.7241,2.7019,2.6623,2.5981,2.5676,2.5473,2.4052,2.3444,2.3308,2.2564,2.248,2.2643,2.2643,2.2643,2.2721,2.3045,2.3351,2.3653,2.4016,2.3878,2.3631,2.3631,2.3432,2.3189,2.3189,2.3189,2.3189,2.3165,2.3165,2.3189,2.3165,2.3581,2.3948,2.3948,2.4314,2.4601,2.4476,2.4408,2.4211,2.378,2.3674,2.3271,2.2233,2.2046,2.1568,2.0366,2.0244,2.0318,2.0602,2.1312,2.1786,2.1842,2.2877,2.3809,2.454,2.5027,2.5293,2.5274,2.5303,2.5351,2.5466,2.5418,2.496,2.4207,2.4992,2.4888,2.4072,2.4061,2.3579,2.2788,2.288,2.2092,2.0733,2.056,1.9681,1.8455,1.818,1.7341,1.6139,4.559,4.4856,4.4847,4.7139,4.7175,4.7212,4.8083,4.8875,4.9415,4.9415,4.8786,4.7756,4.6205,4.4761,4.3259,4.1866,4.1233,4.0814,4.0466,3.8846,3.7984,3.815,3.5382,3.3658,3.3265,3.0755,2.9163,2.8527,2.73,2.6691,2.6691,2.6691,2.6791,2.6922,2.7115,2.7083,2.6922,2.6922,2.6858,2.6623,2.5913,2.5338,2.4831,2.3782,2.3139,2.2699,2.2429,2.2446,2.2695,2.2695,2.2848,2.3069,2.3374,2.3588,2.3774,2.4112,2.4112,2.3996,2.3996,2.3878,2.3795,2.3795,2.3795,2.3753,2.3544,2.3653,2.3753,2.3544,2.3821,2.4173,2.4283,2.4391,2.4476,2.4654,2.4497,2.4284,2.4211,2.4058,2.381,2.3361,2.287,2.2221,2.1206,2.066,2.0403,2.0503,2.0372,2.0756,2.1748,2.2435,2.293,2.328,2.4667,2.5207,2.4725,2.5296,2.5601,2.564,2.5115,2.4935,2.5072,2.4851,2.4543,2.414,2.4564,2.4292,2.3515,2.2947,2.2763,2.2644,2.0812,1.996,1.9708,1.9205,1.8115,1.6834,4.7122,4.5775,4.543,4.821,4.738,4.6814,4.8316,4.789,4.724,4.7027,4.6381,4.5595,4.4693,4.3483,4.2216,4.0754,4.0707,4.0514,4.0138,3.8734,3.7922,3.7922,3.5013,3.3397,3.3413,3.0712,2.92,2.9008,2.7674,2.6928,2.6691,2.6824,2.6959,2.7063,2.7057,2.6987,2.6891,2.6891,2.6825,2.6623,2.5642,2.4966,2.4421,2.3444,2.2767,2.2293,2.2371,2.2607,2.2873,2.2972,2.3212,2.3522,2.3653,2.3774,2.3878,2.4132,2.419,2.419,2.419,2.419,2.419,2.419,2.419,2.4132,2.3774,2.3976,2.4132,2.3915,2.4095,2.4339,2.4543,2.451,2.4543,2.4795,2.4601,2.4476,2.4575,2.4428,2.4192,2.3971,2.3382,2.2703,2.1922,2.1295,2.0947,2.0947,2.047,2.0782,2.2181,2.2501,2.2678,2.2778,2.4536,2.5091,2.4301,2.5211,2.5699,2.5707,2.5046,2.5031,2.5534,2.4783,2.4438,2.4457,2.4853,2.4629,2.3968,2.2887,2.2769,2.3026,2.0679,2.004,2.0406,1.9958,1.9156,1.8288,4.706,4.6829,4.6873,4.86,4.8848,4.86,4.7807,4.7027,4.6212,4.5432,4.3547,4.2541,4.327,4.268,4.163,4.0222,4.0138,4.0138,4.0087,3.8734,3.7922,3.7922,3.5013,3.3423,3.3423,3.1224,2.9743,2.9002,2.8186,2.7402,2.6725,2.7106,2.748,2.7911,2.7887,2.7666,2.7303,2.7303,2.7051,2.6556,2.5101,2.4523,2.4354,2.2868,2.2327,2.2321,2.2599,2.2923,2.3236,2.3566,2.3935,2.4132,2.3795,2.3935,2.419,2.419,2.419,2.419,2.419,2.419,2.419,2.419,2.419,2.4132,2.3774,2.3976,2.419,2.419,2.4357,2.4543,2.476,2.4904,2.4979,2.4979,2.4979,2.4917,2.4818,2.4623,2.4178,2.3412,2.3121,2.2737,2.207,2.1973,2.1973,2.1973,2.2158,2.2547,2.3225,2.3422,2.3599,2.3891,2.4854,2.5072,2.4312,2.5159,2.5623,2.5707,2.563,2.5572,2.5502,2.516,2.5111,2.5254,2.4955,2.4437,2.3827,2.2729,2.1721,2.0755,2.0007,1.9737,1.9877,2.0183,2.0473,2.0663,4.7487,4.661,4.6164,4.7194,4.6568,4.5696,4.4886,4.4543,4.4096,4.334,4.2261,4.163,4.1835,4.1221,4.0576,4.0138,4.0087,4.0087,4.0087,3.8734,3.7922,3.7922,3.5013,3.3423,3.3423,3.1224,2.9736,2.8996,2.8186,2.7568,2.7106,2.695,2.7087,2.7454,2.7218,2.6987,2.6889,2.6889,2.6519,2.5879,2.4864,2.4188,2.3646,2.2665,2.2398,2.2573,2.2669,2.3069,2.3566,2.3653,2.3935,2.417,2.4056,2.4132,2.419,2.419,2.419,2.419,2.419,2.419,2.419,2.419,2.4016,2.3816,2.3732,2.3795,2.3858,2.3858,2.4211,2.4559,2.476,2.4809,2.4891,2.5005,2.493,2.4836,2.4804,2.4746,2.4588,2.4339,2.4279,2.3693,2.2376,2.2757,2.2882,2.23,2.2322,2.266,2.3263,2.304,2.3461,2.4702,2.4662,2.4832,2.5187,2.5504,2.5651,2.563,2.4996,2.4655,2.4571,2.5004,2.5234,2.5293,2.4955,2.4733,2.4547,2.3431,2.2783,2.2452,2.1798,2.1479,2.1424,2.205,2.2117,2.1978,4.6477,4.53,4.4474,4.4973,4.4306,4.3572,4.3064,4.276,4.2422,4.1948,4.1238,4.0798,4.0798,4.0358,4.0087,4.0087,4.0087,4.0087,4.0087,3.8734,3.7922,3.7922,3.5013,3.3423,3.3423,3.1495,3.0006,2.9028,2.8083,2.7653,2.7687,2.733,2.7261,2.7517,2.7112,2.6822,2.6691,2.6691,2.6285,2.5541,2.4797,2.4052,2.3338,2.2671,2.2546,2.2746,2.2996,2.3328,2.3732,2.3837,2.4016,2.419,2.419,2.419,2.419,2.419,2.419,2.419,2.419,2.419,2.417,2.4036,2.3837,2.371,2.371,2.3588,2.3588,2.3837,2.4211,2.4559,2.476,2.4861,2.493,2.5088,2.503,2.4994,2.4994,2.4904,2.4902,2.4912,2.4865,2.4452,2.3543,2.3888,2.4003,2.3486,2.3481,2.3661,2.3949,2.3398,2.3553,2.4694,2.4716,2.4819,2.5117,2.549,2.5638,2.563,2.5027,2.4672,2.4582,2.4994,2.5192,2.5182,2.4823,2.4678,2.4542,2.3474,2.3033,2.3002,2.215,2.2102,2.2586,2.2828,2.2975,2.3104,4.4231,4.3202,4.2286,4.2286,4.2286,4.2286,4.2219,4.1644,4.117,4.1136,4.0527,4.0087,4.0087,4.0087,4.0087,4.0087,4.0087,4.0054,4.002,3.87,3.7889,3.7821,3.4979,3.3423,3.3423,3.1935,3.0518,2.903,2.7833,2.7622,2.8363,2.7974,2.7824,2.7833,2.7372,2.6977,2.6691,2.6657,2.6218,2.5473,2.4794,2.4079,2.3328,2.2867,2.2746,2.2848,2.3477,2.3696,2.3795,2.4075,2.419,2.419,2.419,2.419,2.419,2.419,2.419,2.419,2.419,2.417,2.4112,2.3774,2.3674,2.3653,2.3631,2.3432,2.3432,2.4036,2.4357,2.4575,2.476,2.4917,2.5088,2.5283,2.5303,2.5303,2.5303,2.5122,2.5068,2.512,2.4984,2.4911,2.5105,2.5192,2.5182,2.5143,2.5313,2.5301,2.5133,2.4343,2.4005,2.4173,2.4923,2.5022,2.4373,2.5195,2.5623,2.5688,2.5553,2.5428,2.5303,2.5099,2.5003,2.4967,2.4648,2.4336,2.3933,2.2982,2.2652,2.2628,2.1433,2.1905,2.3141,2.2623,2.3118,2.3953,4.2788,4.2494,4.2286,4.2286,4.2286,4.2117,4.1542,4.1305,4.1001,4.0426,4.0189,4.0087,4.0087,4.0087,4.0087,4.0087,4.0087,3.9851,3.9276,3.8396,3.7652,3.7077,3.4709,3.3423,3.3423,3.1935,3.0598,2.9386,2.7673,2.7244,2.7982,2.7315,2.7157,2.7407,2.6441,2.6251,2.6657,2.6118,2.5413,2.4772,2.4834,2.4081,2.2893,2.3017,2.3236,2.35,2.3631,2.3858,2.4075,2.417,2.419,2.419,2.419,2.419,2.419,2.419,2.419,2.419,2.419,2.4016,2.3795,2.3732,2.3522,2.3236,2.2996,2.3259,2.361,2.3795,2.4301,2.4746,2.479,2.5056,2.5234,2.5303,2.5303,2.5303,2.5303,2.5283,2.5301,2.5329,2.5309,2.5105,2.4514,2.5047,2.5141,2.4486,2.5028,2.537,2.5339,2.507,2.4995,2.509,2.4696,2.4731,2.5197,2.5481,2.5568,2.5556,2.5481,2.539,2.5303,2.5234,2.5171,2.4979,2.4795,2.4452,2.3969,2.3583,2.2934,2.221,2.2689,2.2555,2.2155,2.2776,2.2942,2.2884,4.1813,4.1508,4.1271,4.1271,4.1271,4.1136,4.0764,4.0696,4.0527,4.0121,4.0087,4.0087,4.0087,4.0087,4.0087,4.0087,4.0087,3.9783,3.9039,3.8294,3.7584,3.6806,3.4607,3.3423,3.3423,3.163,3.0162,2.9004,2.7978,2.7618,2.7897,2.7273,2.7087,2.7282,2.6483,2.6152,2.6185,2.5928,2.521,2.4248,2.4566,2.3981,2.2972,2.3282,2.3544,2.3732,2.3858,2.4036,2.419,2.419,2.419,2.419,2.419,2.419,2.419,2.419,2.419,2.419,2.419,2.3955,2.3653,2.3522,2.3212,2.2996,2.3117,2.3455,2.3753,2.3915,2.4388,2.4804,2.4804,2.508,2.5303,2.5303,2.5303,2.5303,2.5341,2.539,2.5428,2.5466,2.5496,2.5349,2.4892,2.523,2.5308,2.4875,2.5233,2.5438,2.5447,2.5269,2.5258,2.5341,2.4858,2.4847,2.5466,2.5542,2.5576,2.5489,2.5468,2.539,2.5303,2.5303,2.516,2.4904,2.4685,2.4207,2.3623,2.3141,2.2593,2.2046,2.2281,2.2134,2.1804,2.1823,2.1759,2.161,4.1035,4.0527,4.0087,4.0087,4.0087,4.0087,4.0087,4.0087,4.0087,4.0087,4.0087,4.0087,4.0087,4.0087,4.0087,4.0087,3.9986,3.9614,3.887,3.8125,3.7415,3.6637,3.4539,3.3423,3.3423,3.1224,2.9617,2.8587,2.8418,2.8161,2.7811,2.7396,2.7203,2.7195,2.6754,2.6286,2.5882,2.5924,2.5252,2.417,2.4302,2.3921,2.3305,2.3631,2.3774,2.3816,2.4112,2.419,2.419,2.419,2.419,2.419,2.419,2.419,2.419,2.419,2.419,2.419,2.419,2.3955,2.361,2.3212,2.2996,2.2996,2.3566,2.3753,2.3894,2.4298,2.4622,2.4842,2.494,2.5156,2.5303,2.5303,2.5303,2.5341,2.539,2.5416,2.5459,2.5575,2.5512,2.5506,2.5552,2.5505,2.5505,2.5582,2.552,2.5486,2.5511,2.5417,2.5344,2.5303,2.5077,2.5115,2.538,2.5503,2.5537,2.5489,2.5506,2.5428,2.5303,2.5303,2.5115,2.479,2.4441,2.3839,2.3034,2.2398,2.1978,2.1749,2.1117,2.1115,2.1315,2.0215,1.998,2.0053,4.0257,4.0155,4.0087,4.0087,4.0087,4.0087,4.0087,4.0087,4.0087,4.0087,4.0087,4.0087,4.0087,4.0087,4.0087,4.0087,3.9512,3.887,3.8125,3.7381,3.6603,3.5825,3.4269,3.3423,3.3423,3.1224,2.9856,2.9315,2.8357,2.7707,2.7396,2.6987,2.6791,2.6757,2.6051,2.6253,2.6927,2.573,2.5197,2.5205,2.4879,2.4284,2.3653,2.3996,2.4132,2.4132,2.417,2.419,2.419,2.419,2.419,2.419,2.419,2.419,2.419,2.419,2.419,2.419,2.419,2.3955,2.3544,2.2923,2.3165,2.3566,2.3689,2.3935,2.4334,2.5071,2.4995,2.5016,2.568,2.5513,2.5303,2.5303,2.5341,2.539,2.539,2.5445,2.5497,2.5497,2.5494,2.5496,2.5457,2.5428,2.5428,2.5505,2.5463,2.5429,2.5512,2.6129,2.6079,2.5303,2.5006,2.4956,2.5226,2.5347,2.5458,2.5489,2.5429,2.539,2.5303,2.5303,2.5115,2.479,2.4441,2.3704,2.2667,2.2255,2.148,2.0475,2.0374,1.9901,1.9169,1.8455,1.7988,1.7571,4.0087,4.0087,4.0087,4.0087,4.0087,4.0087,4.0087,4.0087,4.0087,4.0087,4.0087,4.0087,4.0087,4.0087,3.9918,3.9512,3.8836,3.8091,3.7347,3.6975,3.6434,3.5656,3.4201,3.2848,3.1664,3.1021,3.0017,2.8562,2.8489,2.7946,2.6954,2.6791,2.6691,2.6657,2.5915,2.5773,2.5987,2.4899,2.4335,2.4257,2.4201,2.4013,2.3753,2.4056,2.419,2.419,2.419,2.419,2.419,2.419,2.419,2.419,2.419,2.419,2.419,2.419,2.419,2.417,2.3976,2.3816,2.361,2.3305,2.3477,2.3753,2.3935,2.4112,2.4468,2.5356,2.5506,2.574,2.6674,2.6427,2.6226,2.6669,2.6005,2.5636,2.6111,2.6161,2.6199,2.6212,2.6171,2.6116,2.6082,2.5649,2.539,2.5428,2.5434,2.5434,2.5492,2.6207,2.621,2.536,2.5176,2.5106,2.5196,2.5321,2.5442,2.5507,2.5484,2.5428,2.5341,2.5341,2.5149,2.4761,2.4253,2.3603,2.2853,2.1893,2.1148,2.0569,1.9788,1.9244,1.8722,1.7518,1.6472,1.5617,4.0087,4.0087,4.0087,4.0087,4.0087,4.0087,4.0087,4.0087,4.0087,4.0087,4.0087,4.0087,4.0087,3.9918,3.9614,3.9039,3.8159,3.7381,3.6806,3.6603,3.6231,3.5656,3.4201,3.2442,3.0412,3.0751,3.0006,2.8078,2.8518,2.801,2.6691,2.6522,2.6522,2.6657,2.5742,2.5316,2.5201,2.4304,2.3766,2.3594,2.3667,2.3753,2.3837,2.4112,2.419,2.419,2.419,2.419,2.419,2.419,2.419,2.419,2.419,2.419,2.419,2.419,2.419,2.4132,2.3795,2.3774,2.3795,2.3732,2.3774,2.3935,2.4431,2.4561,2.4894,2.6092,2.6365,2.6698,2.7698,2.7431,2.7238,2.7876,2.6924,2.629,2.6914,2.7,2.6883,2.6665,2.6591,2.6462,2.6282,2.5592,2.522,2.5241,2.5253,2.5317,2.5418,2.609,2.6251,2.5743,2.5447,2.5378,2.5489,2.5457,2.5442,2.5505,2.5505,2.5446,2.5391,2.5421,2.5216,2.4752,2.4128,2.3521,2.2961,2.1665,2.0959,2.0567,1.9346,1.8636,1.8104,1.6193,1.4742,1.3683,4.0087,4.0087,4.0087,4.0087,4.0087,4.0087,4.0087,4.0087,4.0087,4.0087,4.0087,4.0087,4.0087,3.9478,3.9039,3.9005,3.7686,3.684,3.6772,3.6096,3.569,3.5622,3.4201,3.2679,3.1157,3.0514,2.977,2.889,2.8213,2.7503,2.6691,2.6015,2.6048,2.6623,2.5234,2.5145,2.6026,2.4531,2.4222,2.4707,2.3963,2.3878,2.417,2.419,2.419,2.419,2.419,2.419,2.419,2.419,2.419,2.419,2.419,2.419,2.419,2.419,2.419,2.4132,2.3795,2.3935,2.4112,2.3774,2.3955,2.4431,2.5372,2.5591,2.6109,2.7926,2.7926,2.7837,2.8646,2.8377,2.7984,2.8001,2.7969,2.7808,2.7566,2.7538,2.7205,2.6268,2.6086,2.5763,2.5021,2.4884,2.485,2.4829,2.4854,2.4935,2.5117,2.5945,2.6468,2.6611,2.584,2.5734,2.6418,2.5809,2.5546,2.5582,2.5543,2.5447,2.5388,2.5449,2.5233,2.4763,2.4137,2.3415,2.2591,2.184,2.0798,1.9641,1.903,1.7891,1.6286,1.3814,1.2455,1.1554,4.0087,4.0087,4.0087,4.0087,4.0087,4.0087,4.0087,4.0087,4.0087,4.0087,4.0087,4.0087,4.0087,3.9817,3.9309,3.8396,3.7821,3.7077,3.6129,3.5351,3.4709,3.4269,3.3254,3.2239,3.1224,3.092,3.0209,2.9028,2.8687,2.7909,2.6691,2.642,2.6184,2.5981,2.4932,2.4599,2.4711,2.363,2.3428,2.3825,2.3754,2.3774,2.3899,2.4132,2.419,2.419,2.419,2.419,2.419,2.419,2.419,2.419,2.419,2.419,2.4228,2.4339,2.4459,2.4543,2.4422,2.4284,2.4319,2.4819,2.4672,2.4797,2.6338,2.6301,2.6467,2.8419,2.8692,2.8849,2.9719,2.9333,2.8959,2.9324,2.8512,2.7938,2.8211,2.7767,2.7274,2.6806,2.6343,2.5884,2.5559,2.5106,2.478,2.4785,2.4785,2.4839,2.4905,2.5335,2.6116,2.7288,2.6082,2.5583,2.5953,2.5653,2.5512,2.5545,2.5515,2.5444,2.5391,2.5463,2.5325,2.4973,2.4436,2.3802,2.3081,2.2283,2.1334,2.0366,1.9221,1.8048,1.6667,1.4654,1.2704,1.0814,4.0087,4.0087,4.0087,4.0087,4.0087,4.0087,4.0087,4.0087,4.0087,4.0087,4.0087,4.0087,4.0087,3.9681,3.9005,3.799,3.7483,3.6738,3.569,3.4709,3.3829,3.3085,3.2544,3.1833,3.0886,3.0852,3.0108,2.8619,2.8619,2.7943,2.6691,2.6218,2.5845,2.5575,2.4323,2.3818,2.3846,2.3041,2.2947,2.3387,2.361,2.3774,2.3878,2.4132,2.419,2.419,2.419,2.419,2.419,2.419,2.419,2.4209,2.4284,2.4321,2.4428,2.4543,2.4692,2.4783,2.479,2.481,2.4943,2.5639,2.5415,2.5485,2.7396,2.7418,2.7502,2.9154,2.9528,2.979,3.0424,3.0046,2.9718,3.0132,2.9167,2.8409,2.8649,2.7959,2.7233,2.6729,2.595,2.5411,2.5169,2.4737,2.4435,2.4435,2.4538,2.466,2.4804,2.5248,2.5876,2.6725,2.5776,2.5265,2.5254,2.5434,2.5527,2.5493,2.5792,2.5886,2.5814,2.6172,2.6016,2.5468,2.5019,2.4391,2.3578,2.2667,2.184,2.1054,1.9758,1.8522,1.7221,1.5453,1.3563,1.1592,4.0087,4.0087,4.0087,4.0087,4.0087,4.0087,4.0087,4.0087,4.0087,4.0087,4.0087,4.0087,4.0087,3.8802,3.7922,3.7922,3.6502,3.5622,3.5588,3.4235,3.3051,3.2347,3.2273,3.1596,3.0142,3.0108,2.9364,2.7772,2.7772,2.7435,2.6657,2.52,2.4898,2.5507,2.3308,2.2897,2.3846,2.3041,2.3093,2.371,2.3674,2.3878,2.419,2.419,2.419,2.419,2.419,2.419,2.419,2.419,2.419,2.4228,2.4462,2.4639,2.4804,2.4804,2.4791,2.4826,2.4813,2.5418,2.6081,2.6004,2.6064,2.6607,2.8546,2.9064,2.9396,3.0411,3.0599,3.0586,3.0586,3.0424,3.0255,3.0212,2.9979,2.9583,2.8897,2.8162,2.7155,2.5674,2.4878,2.4098,2.3295,2.35,2.371,2.371,2.4052,2.4412,2.4813,2.5842,2.5877,2.4735,2.4837,2.4762,2.4511,2.5211,2.5576,2.5489,2.6439,2.6814,2.6726,2.7749,2.7501,2.6266,2.5943,2.511,2.3931,2.3047,2.2228,2.142,2.0572,1.9307,1.7796,1.5819,1.4748,1.3961,4.0087,4.0087,4.0087,4.0087,4.0087,4.0087,4.0087,4.0087,4.0087,4.0087,4.0087,4.0087,4.0087,3.9681,3.9005,3.799,3.7483,3.6332,3.4201,3.3152,3.207,3.0818,3.0751,3.0311,2.933,2.933,2.8822,2.7772,2.7772,2.7435,2.6657,2.571,2.5101,2.4794,2.3842,2.3281,2.3068,2.3295,2.3522,2.3732,2.3955,2.4132,2.419,2.419,2.419,2.417,2.3955,2.3837,2.3837,2.3837,2.3961,2.4182,2.4586,2.4819,2.4949,2.4996,2.5128,2.5374,2.6018,2.5947,2.5761,2.6198,2.6764,2.7586,2.8907,2.924,2.9565,3.0415,3.0618,3.052,3.0356,3.0251,3.0099,2.9701,2.9316,2.8956,2.8567,2.7666,2.6835,2.641,2.5155,2.4261,2.3989,2.4052,2.4254,2.4518,2.5515,2.6206,2.6472,2.6246,2.5846,2.5307,2.4757,2.4265,2.3785,2.4804,2.5282,2.5226,2.5663,2.611,2.661,2.6408,2.6392,2.6483,2.5716,2.494,2.417,2.3515,2.2733,2.1836,2.0957,2.0053,1.9151,1.8165,1.715,1.6035,4.0087,4.0087,4.0087,4.0087,4.0087,4.0087,4.0087,4.0087,4.0087,4.0087,3.9817,3.9648,3.9648,3.9106,3.843,3.755,3.6907,3.5656,3.3558,3.2713,3.1495,2.9736,2.9668,2.9296,2.8552,2.8822,2.845,2.7368,2.7637,2.7435,2.6657,2.5642,2.4932,2.4489,2.3949,2.3323,2.2746,2.359,2.3853,2.3732,2.4056,2.419,2.419,2.419,2.4132,2.3976,2.3774,2.361,2.3522,2.379,2.3756,2.3649,2.3957,2.3892,2.3805,2.4334,2.4683,2.502,2.5908,2.6325,2.6551,2.6584,2.7254,2.8153,2.9137,2.9643,3.0068,3.055,3.0594,3.0501,3.0242,3.0105,2.9808,2.9237,2.8874,2.8492,2.8029,2.7141,2.6457,2.6283,2.5171,2.4378,2.4378,2.4514,2.4802,2.5288,2.6589,2.7306,2.7226,2.6973,2.6439,2.5534,2.4875,2.4182,2.3414,2.4265,2.4763,2.4904,2.5895,2.6643,2.7156,2.707,2.7069,2.7109,2.6095,2.5222,2.4479,2.3933,2.3163,2.2255,2.1566,2.0985,2.0448,2.0128,1.9551,1.8842,4.0087,4.0087,4.0087,4.0087,4.0087,4.0054,3.9986,3.9986,3.9952,3.9884,3.9309,3.8903,3.8903,3.7686,3.684,3.6772,3.5318,3.41,3.3457,3.2645,3.1263,2.9096,2.9028,2.8586,2.7705,2.8416,2.8078,2.6691,2.7368,2.7368,2.6657,2.5236,2.4625,2.4618,2.3905,2.335,2.3066,2.4,2.4182,2.3883,2.4092,2.419,2.419,2.419,2.3996,2.371,2.3689,2.3477,2.3282,2.3816,2.348,2.2824,2.2755,2.216,2.1801,2.3039,2.3624,2.4093,2.4957,2.6523,2.7803,2.7154,2.7691,2.8502,2.9313,3.0113,3.0694,3.0648,3.0571,3.0433,3.0167,2.9893,2.9476,2.886,2.8542,2.8112,2.7391,2.6684,2.6117,2.5742,2.5033,2.4625,2.4625,2.4952,2.5462,2.6092,2.7432,2.7979,2.742,2.7848,2.7364,2.576,2.5147,2.4324,2.3271,2.3666,2.4099,2.4553,2.6578,2.7647,2.7888,2.8662,2.8593,2.7812,2.6746,2.5715,2.4775,2.4191,2.3466,2.2667,2.2283,2.1978,2.1711,2.1711,2.1872,2.1908,4.0087,4.0087,4.0087,4.0087,4.0087,3.9884,3.9309,3.9242,3.9039,3.8464,3.8227,3.8159,3.8159,3.7855,3.7415,3.684,3.4844,3.3558,3.3423,3.2171,3.0683,2.9096,2.9028,2.8349,2.6962,2.7097,2.7029,2.6691,2.686,2.686,2.6657,2.5778,2.5527,2.5828,2.5282,2.5171,2.5338,2.5216,2.5111,2.4974,2.4427,2.419,2.419,2.419,2.3996,2.3689,2.3374,2.3259,2.3192,2.3226,2.2771,2.2081,2.1517,2.0875,2.0597,2.1631,2.2533,2.351,2.5318,2.63,2.7004,2.7666,2.852,2.9256,2.9476,3.0069,3.0565,3.0341,3.0381,3.0253,2.9701,2.9626,2.942,2.8615,2.8219,2.7833,2.7365,2.6882,2.6554,2.6454,2.5812,2.5372,2.5372,2.6011,2.6702,2.7414,2.8498,2.9078,2.8951,2.8389,2.7845,2.7221,2.5466,2.4297,2.385,2.3252,2.3381,2.4144,2.5024,2.5885,2.6639,2.6211,2.6362,2.6864,2.5803,2.5156,2.4723,2.3933,2.3566,2.3397,2.2788,2.2915,2.3473,2.3473,2.3567,2.3499,4.0087,4.0087,4.0087,4.0087,3.9765,3.9528,3.953,3.9228,3.8858,3.8449,3.8125,3.7787,3.7415,3.7043,3.6502,3.5757,3.3964,3.2882,3.2882,3.1799,3.0514,2.9059,2.9028,2.8247,2.6725,2.6353,2.6184,2.6184,2.6184,2.6184,2.615,2.5627,2.567,2.6189,2.6141,2.5831,2.5315,2.5592,2.5266,2.4579,2.4298,2.419,2.417,2.4016,2.3753,2.3432,2.3069,2.3495,2.4004,2.3143,2.2522,2.1873,2.0289,1.9273,1.8976,2.0302,2.1378,2.2612,2.4564,2.5757,2.6707,2.7696,2.8727,2.9449,2.9412,3.0006,3.052,3.0257,3.0316,3.0188,2.9532,2.9551,2.9361,2.835,2.801,2.7695,2.7083,2.6858,2.6691,2.6691,2.6353,2.6116,2.6116,2.6684,2.7302,2.7862,2.8529,2.906,2.9373,2.8862,2.8255,2.7669,2.6285,2.5218,2.449,2.3665,2.3407,2.3638,2.4465,2.5639,2.7055,2.5918,2.5995,2.7016,2.5564,2.4818,2.4526,2.4118,2.3769,2.3455,2.3236,2.3516,2.4062,2.4485,2.4541,2.4185,3.9747,3.9747,3.968,3.958,3.8957,3.8698,3.9108,3.8698,3.8328,3.8268,3.7841,3.728,3.6637,3.5893,3.5115,3.437,3.2949,3.2104,3.2104,3.137,3.0289,2.8931,2.897,2.8357,2.6923,2.6141,2.5737,2.5609,2.5537,2.5501,2.5501,2.5409,2.5743,2.6394,2.6843,2.6356,2.5218,2.5829,2.5366,2.4215,2.4222,2.4228,2.4228,2.3899,2.361,2.3305,2.3137,2.4135,2.5262,2.356,2.2653,2.1866,1.9346,1.7887,1.7451,1.9116,2.0319,2.1569,2.3479,2.5098,2.6424,2.728,2.8413,2.9286,2.9209,2.9902,3.0484,3.0183,3.0237,3.0147,2.9474,2.9494,2.9282,2.8166,2.7954,2.7666,2.6923,2.6758,2.6691,2.6691,2.6691,2.6691,2.6691,2.7051,2.7457,2.7783,2.8112,2.8578,2.9206,2.8962,2.8492,2.7757,2.7082,2.6163,2.5109,2.4265,2.3653,2.3201,2.4016,2.5316,2.6954,2.5856,2.5874,2.6783,2.531,2.4532,2.4239,2.4264,2.3906,2.341,2.3544,2.3806,2.4174,2.4949,2.4926,2.4339,3.8278,3.8108,3.7939,3.7381,3.7141,3.6722,3.5582,3.5803,3.5894,3.5265,3.5605,3.5893,3.5791,3.5115,3.4336,3.3626,3.2205,3.1326,3.1326,3.0343,2.9351,2.8523,2.8809,2.8604,2.7754,2.6986,2.6254,2.5609,2.527,2.5074,2.5074,2.603,2.6677,2.7097,2.7831,2.825,2.8296,2.7039,2.6402,2.6072,2.4721,2.4284,2.4445,2.421,2.4039,2.3943,2.4432,2.5541,2.6462,2.4685,2.3301,2.1834,1.9199,1.7514,1.6793,1.8229,1.936,2.0634,2.2952,2.4501,2.5576,2.611,2.7662,2.8989,2.8698,2.9614,3.0369,2.9888,2.9931,2.9861,2.9163,2.9249,2.9191,2.8453,2.8093,2.7754,2.7303,2.6922,2.6691,2.6691,2.6691,2.6691,2.6691,2.7051,2.7334,2.7396,2.7754,2.8112,2.8504,2.8255,2.813,2.8308,2.6964,2.6001,2.5334,2.4278,2.349,2.3116,2.2638,2.2597,2.2999,2.353,2.3785,2.3814,2.4007,2.4063,2.4007,2.3559,2.3653,2.4016,2.3477,2.3744,2.4493,2.4884,2.4639,2.4041,3.7391,3.7534,3.747,3.6428,3.6197,3.6102,3.589,3.576,3.5705,3.5833,3.5677,3.5453,3.5047,3.3768,3.2956,3.2844,3.1461,3.0595,3.0595,3.0105,2.9502,2.8763,2.8911,2.8647,2.7933,2.6666,2.6106,2.6283,2.5143,2.4839,2.5287,2.6175,2.7139,2.8117,2.8802,2.8894,2.8429,2.7264,2.6683,2.6502,2.5467,2.5077,2.5149,2.4893,2.476,2.4737,2.5244,2.6126,2.6749,2.4807,2.3471,2.2228,1.9602,1.8075,1.7572,1.8621,1.9623,2.0732,2.2538,2.3652,2.4474,2.5151,2.6197,2.7229,2.8064,2.8812,2.9414,2.9514,2.9677,2.966,2.9075,2.9222,2.9104,2.8246,2.801,2.7695,2.7051,2.659,2.628,2.628,2.6556,2.6691,2.6691,2.6891,2.7051,2.7303,2.7487,2.7754,2.8084,2.7982,2.7747,2.7377,2.6699,2.6015,2.533,2.4395,2.3715,2.3274,2.241,2.2406,2.3105,2.2603,2.2728,2.3342,2.3673,2.3669,2.343,2.3894,2.3916,2.3631,2.3732,2.4354,2.5123,2.4813,2.4832,2.4838]},{"header":{"parameterUnit":"m.s-1","parameterCategory":1,"la1":30.6,"la2":28.766,"lo1":-90.7593,"lo2":-88.6598,"dy":0.0162,"dx":0.0183,"nx":116,"ny":114,"refTime":"2023-08-30T06:00:00:Z","depth":0,"parameterNumber":3,"parameterNumberName":"V-component_of_WINDS"},"data":[0.0,0.0,0.0,0.0,0.0,0.0,0.0,0.0,0.0,0.0,0.0,0.0,0.0,0.0,0.0,0.0,0.0,0.0,0.0,0.0,0.0,0.0,0.0,0.0,0.0,0.0,0.0,0.0,0.0,0.0,0.0,0.0,0.0,0.0,0.0,0.0,0.0,0.0,0.0,0.0,0.0,0.0,0.0,0.0,0.0,0.0,0.0,0.0,0.0,0.0,0.0,0.0,0.0,0.0,0.0,0.0,0.0,0.0,0.0,0.0,0.0,0.0,0.0,0.0,0.0,0.0,0.0,0.0,0.0,0.0,0.0,0.0,0.0,0.0,0.0,0.0,0.0,0.0,0.0,0.0,0.0,0.0,0.0,0.0,0.0,0.0,0.0,0.0,0.0,0.0,0.0,0.0,0.0,0.0,0.0,0.0,0.0,0.0,0.0,0.0,0.0,0.0,0.0,0.0,0.0,0.0,0.0,0.0,0.0,0.0,0.0,0.0,0.0,0.0,0.0,0.0,0.0,0.0,0.0,0.0,0.0,0.0,0.0,0.0,0.0,0.0,0.0,0.0,0.0,0.0,0.0,0.0,0.0,0.0,0.0,0.0,0.0,0.0,0.0,0.0,0.0,0.0,0.0,0.0,0.0,0.0,0.0,0.0,0.0,0.0,0.0,0.0,0.0,0.0,0.0,0.0,0.0,0.0,0.0,0.0,0.0,0.0,0.0,0.0,0.0,0.0,0.0,0.0,0.0,0.0,0.0,0.0,0.0,0.0,0.0,0.0,0.0,0.0,0.0,0.0,0.0,0.0,0.0,0.0,0.0,0.0,0.0,0.0,0.0,0.0,0.0,0.0,0.0,0.0,0.0,0.0,0.0,0.0,0.0,0.0,0.0,0.0,0.0,0.0,0.0,0.0,0.0,0.0,0.0,0.0,0.0,0.0,0.0,0.0,0.0,0.0,0.0,0.0,0.0,0.0,0.0,0.0,0.0,0.0,0.0,0.0,0.0,0.0,0.0,0.0,0.0,0.0,0.0,0.0,0.0,0.0,0.0,0.0,0.0,0.0,0.0,0.0,0.0,0.0,0.0,0.0,0.0,0.0,0.0,0.0,0.0,0.0,0.0,0.0,0.0,0.0,0.0,0.0,0.0,0.0,0.0,0.0,0.0,0.0,0.0,0.0,0.0,0.0,0.0,0.0,0.0,0.0,0.0,0.0,0.0,0.0,0.0,0.0,0.0,0.0,0.0,0.0,0.0,0.0,0.0,0.0,0.0,0.0,0.0,0.0,0.0,0.0,0.0,0.0,0.0,0.0,0.0,0.0,0.0,0.0,0.0,0.0,0.0,0.0,0.0,0.0,0.0,0.0,0.0,0.0,0.0,0.0,0.0,0.0,0.0,0.0,0.0,0.0,0.0,0.0,0.0,0.0,0.0,0.0,0.0,0.0,0.0,0.0,0.0,0.0,0.0,0.0,0.0,0.0,0.0,0.0,0.0,0.0,0.0,0.0,0.0,0.0,0.0,0.0,0.0,0.0,0.0,0.0,0.0,0.0,0.0,0.0,0.0,0.0,0.0,0.0,0.0,0.0,0.0,0.0,0.0,0.0,0.0,0.0,0.0,0.0,0.0,0.0,0.0,0.0,0.0,0.0,0.0,0.0,0.0,0.0,0.0,0.0,0.0,0.0,0.0,0.0,0.0,0.0,0.0,0.0,0.0,0.0,0.0,0.0,0.0,0.0,0.0,0.0,0.0,0.0,0.0,0.0,0.0,0.0,0.0,0.0,0.0,0.0,0.0,0.0,0.0,0.0,0.0,0.0,0.0,0.0,0.0,0.0,0.0,0.0,0.0,0.0,0.0,0.0,0.0,0.0,0.0,0.0,0.0,0.0,0.0,0.0,0.0,0.0,0.0,0.0,0.0,0.0,0.0,0.0,0.0,0.0,0.0,0.0,0.0,0.0,0.0,0.0,0.0,0.0,0.0,0.0,0.0,0.0,0.0,0.0,0.0,0.0,0.0,0.0,0.0,0.0,0.0,0.0,0.0,0.0,0.0,0.0,0.0,0.0,0.0,0.0,0.0,0.0,0.0,0.0,0.0,0.0,0.0,0.0,0.0,0.0,0.0,0.0,0.0,0.0,0.0,0.0,0.0,0.0,0.0,0.0,0.0,0.0,0.0,0.0,0.0,0.0,0.0,0.0,0.0,0.0,0.0,0.0,0.0,0.0,0.0,0.0,0.0,0.0,0.0,0.0,0.0,0.0,0.0,0.0,0.0,0.0,0.0,0.0,0.0,0.0,0.0,0.0,0.0,0.0,0.0,0.0,0.0,0.0,0.0,0.0,0.0,0.0,0.0,0.0,0.0,0.0,0.0,0.0,0.0,0.0,0.0,0.0,0.0,0.0,0.0,0.0,0.0,0.0,0.0,0.0,0.0,0.0,0.0,0.0,0.0,0.0,0.0,0.0,0.0,0.0,0.0,0.0,0.0,0.0,0.0,0.0,0.0,0.0,0.0,0.0,0.0,0.0,0.0,0.0,0.0,0.0,0.0,0.0,0.0,0.0,0.0,0.0,0.0,0.0,0.0,0.0,0.0,0.0,0.0,0.0,0.0,0.0,0.0,0.0,0.0,0.0,0.0,0.0,0.0,0.0,0.0,0.0,0.0,0.0,0.0,0.0,0.0,0.0,0.0,0.0,0.0,0.0,0.0,0.0,0.0,0.0,0.0,0.0,0.0,0.0,0.0,0.0,0.0,0.0,0.0,0.0,0.0,0.0,0.0,0.0,0.0,0.0,0.0,0.0,0.0,0.0,0.0,0.0,0.0,0.0,0.0,0.0,0.0,0.0,0.0,0.0,0.0,0.0,0.0,0.0,0.0,0.0,0.0,0.0,0.0,0.0,0.0,0.0,0.0,0.0,0.0,0.0,0.0,0.0,0.0,0.0,0.0,0.0,0.0,0.0,0.0,0.0,0.0,0.0,0.0,0.0,0.0,0.0,0.0,0.0,0.0,0.0,0.0,0.0,0.0,0.0,0.0,0.0,0.0,0.0,0.0,0.0,0.0,0.0,0.0,0.0,0.0,0.0,0.0,0.0,0.0,0.0,0.0,0.0,0.0,0.0,0.0,0.0,0.0,0.0,0.0,0.0,0.0,0.0,0.0,0.0,0.0,0.0,0.0,0.0,0.0,0.0,0.0,0.0,0.0,0.0,0.0,0.0,0.0,0.0,0.0,0.0,0.0,0.0,0.0,0.0,0.0,0.0,0.0,0.0,0.0,0.0,0.0,0.0,0.0,0.0,0.0,0.0,0.0,0.0,0.0,0.0,0.0,0.0,0.0,0.0,0.0,0.0,0.0,0.0,0.0,0.0,0.0,0.0,0.0,0.0,0.0,0.0,0.0,0.0,0.0,0.0,0.0,0.0,0.0,0.0,0.0,0.0,0.0,0.0,0.0,0.0,0.0,0.0,0.0,0.0,0.0,0.0,0.0,0.0,0.0,0.0,0.0,0.0,0.0,0.0,0.0,0.0,0.0,0.0,0.0,0.0,0.0,0.0,0.0,0.0,0.0,0.0,0.0,0.0,0.0,0.0,0.0,0.0,0.0,0.0,0.0,0.0,0.0,0.0,0.0,0.0,0.0,0.0,0.0,0.0,0.0,0.0,0.0,0.0,0.0,0.0,0.0,0.0,0.0,0.0,0.0,0.0,0.0,0.0,0.0,0.0,0.0,0.0,0.0,0.0,0.0,0.0,0.0,0.0,0.0,0.0,0.0,0.0,0.0,0.0,0.0,0.0,0.0,0.0,0.0,0.0,0.0,0.0,0.0,0.0,0.0,0.0,0.0,0.0,0.0,0.0,0.0,0.0,0.0,0.0,0.0,0.0,0.0,0.0,0.0,0.0,0.0,0.0,0.0,0.0,0.0,0.0,0.0,0.0,0.0,0.0,0.0,0.0,0.0,0.0,0.0,0.0,0.0,0.0,0.0,0.0,0.0,0.0,0.0,0.0,0.0,0.0,0.0,0.0,0.0,0.0,0.0,0.0,0.0,0.0,0.0,0.0,0.0,0.0,0.0,0.0,0.0,0.0,0.0,0.0,0.0,0.0,0.0,0.0,0.0,0.0,0.0,0.0,0.0,0.0,0.0,0.0,0.0,0.0,0.0,0.0,0.0,0.0,0.0,0.0,0.0,0.0,0.0,0.0,0.0,0.0,0.0,0.0,0.0,0.0,0.0,0.0,0.0,0.0,0.0,0.0,0.0,0.0,0.0,0.0,0.0,0.0,0.0,0.0,0.0,0.0,0.0,0.0,0.0,0.0,0.0,0.0,0.0,0.0,0.0,0.0,0.0,0.0,0.0,0.0,0.0,0.0,0.0,0.0,0.0,0.0,0.0,0.0,0.0,0.0,0.0,0.0,0.0,0.0,0.0,0.0,0.0,0.0,0.0,0.0,0.0,0.0,0.0,0.0,0.0,0.0,0.0,0.0,0.0,0.0,0.0,0.0,0.0,0.0,0.0,0.0,0.0,0.0,0.0,0.0,0.0,0.0,0.0,0.0,0.0,0.0,0.0,0.0,0.0,0.0,0.0,0.0,0.0,0.0,0.0,0.0,0.0,0.0,0.0,0.0,0.0,0.0,0.0,0.0,0.0,0.0,0.0,0.0,0.0,0.0,0.0,0.0,0.0,0.0,0.0,0.0,0.0,0.0,0.0,0.0,0.0,0.0,0.0,0.0,0.0,0.0,0.0,0.0,0.0,0.0,0.0,0.0,0.0,0.0,0.0,0.0,0.0,0.0,0.0,0.0,0.0,0.0,0.0,0.0,0.0,0.0,0.0,0.0,0.0,0.0,0.0,0.0,0.0,0.0,0.0,0.0,0.0,0.0,0.0,0.0,0.0,0.0,0.0,0.0,0.0,0.0,0.0,0.0,0.0,0.0,0.0,0.0,0.0,0.0,0.0,0.0,0.0,0.0,0.0,0.0,0.0,0.0,0.0,0.0,0.0,0.0,0.0,0.0,0.0,0.0,0.0,0.0,0.0,0.0,0.0,0.0,0.0,0.0,0.0,0.0,0.0,0.0,0.0,0.0,0.0,0.0,0.0,0.0,0.0,0.0,0.0,0.0,0.0,0.0,0.0,0.0,0.0,0.0,0.0,0.0,0.0,0.0,0.0,0.0,0.0,0.0,0.0,0.0,0.0,0.0,0.0,0.0,0.0,0.0,0.0,0.0,0.0,0.0,0.0,0.0,0.0,0.0,0.0,0.0,0.0,0.0,0.0,0.0,0.0,0.0,0.0,0.0,0.0,0.0,0.0,0.0,0.0,0.0,0.0,0.0,0.0,0.0,0.0,0.0,0.0,0.0,0.0,0.0,0.0,0.0,0.0,0.0,0.0,0.0,0.0,0.0,0.0,0.0,0.0,0.0,0.0,0.0,0.0,0.0,0.0,0.0,0.0,0.0,0.0,0.0,0.0,0.0,0.0,0.0,0.0,0.0,0.0,0.0,0.0,0.0,0.0,0.0,0.0,0.0,0.0,0.0,0.0,0.0,0.0,0.0,0.0,0.0,0.0,0.0,0.0,0.0,0.0,0.0,0.0,0.0,0.0,0.0,0.0,0.0,0.0,0.0,0.0,0.0,0.0,0.0,0.0,0.0,0.0,0.0,0.0,0.0,0.0,0.0,0.0,0.0,0.0,0.0,0.0,0.0,0.0,0.0,0.0,0.0,0.0,0.0,0.0,0.0,0.0,0.0,0.0,0.0,0.0,0.0,0.0,0.0,0.0,0.0,0.0,0.0,0.0,0.0,0.0,0.0,0.0,0.0,0.0,0.0,0.0,0.0,0.0,0.0,0.0,0.0,0.0,0.0,0.0,0.0,0.0,0.0,0.0,0.0,0.0,0.0,0.0,0.0,0.0,0.0,0.0,0.0,0.0,0.0,0.0,0.0,0.0,0.0,0.0,0.0,0.0,0.0,0.0,0.0,0.0,0.0,0.0,0.0,0.0,0.0,0.0,0.0,0.0,0.0,0.0,0.0,0.0,0.0,0.0,0.0,0.0,0.0,0.0,0.0,0.0,0.0,0.0,0.0,0.0,0.0,0.0,0.0,0.0,0.0,1.2091,1.2104,0.0,0.0,0.0,0.0,0.0,0.0,0.0,0.0,0.0,0.0,0.0,0.0,0.0,0.0,0.0,0.0,0.0,0.0,0.0,0.0,0.0,0.0,0.0,0.0,0.0,0.0,0.0,0.0,0.0,0.0,0.0,0.0,0.0,0.0,0.0,0.0,0.0,1.9297,2.0372,2.1124,2.1627,2.2394,2.206,2.0918,0.0,0.0,0.0,0.0,0.0,0.0,0.0,0.0,0.0,0.0,0.0,0.0,0.0,0.0,0.0,0.0,0.0,0.0,0.0,0.0,0.0,0.0,0.0,0.0,0.0,0.0,0.0,0.0,0.0,0.0,0.0,0.0,0.0,0.0,0.0,0.0,0.0,0.0,0.0,0.0,0.0,0.0,0.0,0.0,0.0,0.0,0.0,0.0,0.0,0.0,0.0,0.0,0.0,0.0,0.0,0.0,0.0,0.0,0.0,0.0,0.0,0.0,0.0,0.0,0.0,0.0,0.0,0.0,0.0,0.0,1.3831,1.2826,0.0,0.0,0.0,0.0,0.0,0.0,0.0,0.0,0.0,0.0,0.0,0.0,0.0,0.0,0.0,0.0,0.0,0.0,0.0,0.0,0.0,0.0,0.0,1.7022,1.7101,1.7617,1.7612,1.7579,0.0,0.0,0.0,0.0,0.0,0.0,0.0,1.8848,1.9311,1.9377,2.0886,2.2475,2.4116,2.5037,2.4436,2.2514,2.3742,0.0,0.0,0.0,0.0,0.0,0.0,0.0,0.0,0.0,0.0,0.0,0.0,0.0,0.0,0.0,0.0,0.0,0.0,0.0,0.0,0.0,0.0,0.0,0.0,0.0,0.0,0.0,0.0,0.0,0.0,0.0,0.0,0.0,0.0,0.0,0.0,0.0,0.0,0.0,0.0,0.0,0.0,0.0,0.0,0.0,0.0,0.0,0.0,0.0,0.0,0.0,0.0,0.0,0.0,0.0,0.0,0.0,0.0,0.0,0.0,0.0,0.0,0.0,1.8526,1.9195,1.9314,1.9502,1.9604,1.957,1.6725,1.4894,1.3832,1.3831,0.0,0.0,0.0,0.0,0.0,0.0,0.0,0.0,0.0,0.0,0.0,0.0,0.0,0.0,0.0,0.0,0.0,0.0,0.0,0.0,0.0,1.7185,1.7451,1.6471,1.7632,1.8189,1.7448,0.0,0.0,0.0,0.0,0.0,1.8008,1.8848,1.9441,1.9789,2.2193,2.4408,2.6381,2.7053,2.7447,2.7487,2.6155,2.6006,2.6629,0.0,0.0,0.0,0.0,0.0,0.0,0.0,0.0,0.0,0.0,0.0,0.0,0.0,0.0,0.0,0.0,0.0,0.0,0.0,0.0,0.0,0.0,0.0,0.0,0.0,0.0,0.0,0.0,0.0,0.0,0.0,0.0,0.0,0.0,0.0,0.0,0.0,0.0,0.0,0.0,0.0,1.8711,1.916,0.0,0.0,0.0,0.0,0.0,0.0,0.0,0.0,0.0,0.0,0.0,0.0,0.0,1.8991,1.9695,2.0155,2.0332,2.0205,2.1298,2.1377,2.0491,2.1479,2.1841,2.1841,2.1246,0.0,1.7794,1.6971,0.0,0.0,0.0,0.0,0.0,0.0,0.0,0.0,0.0,0.0,0.0,0.0,0.0,0.0,0.0,0.0,0.0,0.0,0.0,0.0,0.0,1.8721,1.9594,1.9511,2.1125,2.125,1.9189,1.9603,0.0,0.0,0.0,1.8125,1.8359,1.8894,2.0365,2.2773,2.5159,2.7498,2.9832,3.0471,3.1172,3.1946,3.1158,2.9423,2.7039,2.6257,0.0,0.0,0.0,0.0,0.0,0.0,0.0,0.0,0.0,0.0,0.0,0.0,0.0,0.0,0.0,0.0,0.0,0.0,0.0,0.0,0.0,0.0,0.0,0.0,0.0,0.0,0.0,0.0,0.0,0.0,0.0,0.0,0.0,0.0,0.0,0.0,0.0,0.0,0.0,1.9505,2.043,1.9414,2.0684,2.1205,0.0,0.0,0.0,0.0,0.0,0.0,0.0,0.0,0.0,1.9504,2.0644,2.1405,2.173,2.2698,2.3313,2.358,2.4747,2.5164,2.4969,2.5422,2.5792,2.5996,2.5669,2.4831,2.3409,2.0096,1.8313,1.7627,0.0,0.0,0.0,0.0,1.5591,1.5836,0.0,0.0,0.0,0.0,0.0,0.0,0.0,0.0,0.0,0.0,0.0,0.0,1.8826,2.0523,2.1884,2.2797,2.4411,2.4288,2.1603,2.1631,2.0597,1.8221,1.8026,1.834,1.8964,2.0244,2.261,2.628,2.8433,3.0827,3.3294,3.3872,3.465,3.5554,3.5554,3.3097,2.9019,2.8797,2.7255,2.4785,0.0,0.0,0.0,0.0,0.0,0.0,0.0,0.0,0.0,0.0,0.0,0.0,0.0,0.0,0.0,0.0,0.0,0.0,0.0,0.0,0.0,0.0,0.0,0.0,0.0,0.0,0.0,0.0,0.0,0.0,0.0,0.0,0.0,0.0,0.0,0.0,0.0,2.1055,2.1641,1.9668,2.1543,2.2402,0.0,0.0,0.0,0.0,0.0,0.0,1.9036,2.0623,2.19,2.2687,2.3675,2.4293,2.4595,2.5632,2.6337,2.6933,2.7853,2.8418,2.8633,2.873,2.8945,2.9219,2.8809,2.8437,2.7805,2.3226,2.0905,2.0131,1.9106,1.8728,1.8728,1.8462,1.8617,1.8938,0.0,0.0,0.0,0.0,0.0,0.0,0.0,0.0,0.0,0.0,0.0,1.7413,1.9772,2.2145,2.3878,2.4687,2.5934,2.608,2.458,2.2258,2.0673,2.0007,1.8662,1.8682,1.9981,2.3695,2.7,2.969,3.1808,3.4022,3.6207,3.6734,3.7287,3.7839,3.7839,3.6789,3.4803,3.1283,3.0013,2.9925,2.6485,0.0,0.0,0.0,0.0,0.0,0.0,0.0,0.0,0.0,0.0,0.0,0.0,0.0,0.0,0.0,0.0,0.0,0.0,0.0,0.0,0.0,0.0,0.0,0.0,0.0,0.0,0.0,0.0,0.0,0.0,0.0,0.0,0.0,0.0,0.0,0.0,0.0,0.0,2.0039,2.2519,0.0,0.0,0.0,0.0,2.1337,2.1414,2.1553,2.1637,2.3438,2.5106,2.6406,2.7867,2.9244,3.049,3.0101,2.9906,2.9945,3.0059,2.9863,2.9512,2.9922,3.0117,3.0117,2.9687,2.9492,2.9277,2.6579,2.4888,2.3924,2.2165,2.1478,2.1389,2.0462,2.0343,2.0559,0.0,0.0,0.0,0.0,0.0,0.0,0.0,0.0,1.6358,1.6995,1.8489,2.041,2.2657,2.5749,2.8052,2.8998,3.0491,3.0147,2.7316,2.5036,2.2996,2.114,1.9941,2.0647,2.3352,2.6387,2.9318,3.1932,3.412,3.6157,3.799,3.8191,3.8567,3.9094,3.9094,3.8567,3.7513,3.4711,3.2445,3.0491,2.8184,2.6262,0.0,0.0,0.0,0.0,0.0,0.0,0.0,0.0,0.0,0.0,0.0,0.0,0.0,0.0,0.0,0.0,0.0,0.0,0.0,0.0,0.0,0.0,0.0,0.0,0.0,0.0,0.0,0.0,0.0,0.0,0.0,0.0,0.0,0.0,0.0,0.0,0.0,2.3262,2.5176,0.0,2.4297,2.3335,2.318,2.3852,2.3854,2.4302,2.5595,2.7285,2.8722,2.9738,3.0548,3.123,3.1719,3.1543,3.1465,3.1465,3.1191,3.0976,3.082,3.0703,3.0644,3.0644,3.0488,3.0254,2.9902,2.8984,2.7617,2.6035,2.5064,2.4564,2.4221,2.3937,2.3991,2.4249,0.0,0.0,0.0,0.0,0.0,0.0,0.0,0.0,1.6631,1.7651,1.992,2.2534,2.5359,2.8623,3.1286,3.2943,3.3596,3.2685,2.9902,2.7008,2.4425,2.2324,2.2125,2.3438,2.6236,2.9367,3.2167,3.4449,3.6307,3.7864,3.9145,3.9346,3.9622,3.9973,4.0174,4.0049,3.9597,3.7914,3.5332,3.2186,3.0382,2.8931,2.7472,0.0,0.0,0.0,0.0,0.0,0.0,0.0,0.0,0.0,0.0,0.0,0.0,0.0,0.0,0.0,0.0,0.0,0.0,0.0,0.0,0.0,0.0,0.0,0.0,0.0,0.0,0.0,0.0,0.0,0.0,0.0,0.0,0.0,0.0,2.4219,2.582,2.5547,2.7441,2.8125,2.6543,2.5982,2.5994,2.6592,2.7144,2.7842,2.8972,3.0411,3.1484,3.1934,3.2363,3.2598,3.2598,3.2461,3.2729,3.3195,3.2734,3.2751,3.3299,3.3012,3.2806,3.2662,3.2662,3.2052,3.1191,3.1191,2.9917,2.8047,2.7617,2.7285,2.7012,2.6875,2.6992,2.7085,0.0,0.0,0.0,0.0,0.0,0.0,0.0,1.5464,1.6546,1.8317,2.0651,2.3685,2.7748,3.0658,3.3445,3.6207,3.4901,3.3445,3.229,2.78,2.468,2.3633,2.5158,2.6911,2.8674,3.2686,3.5604,3.7287,3.8391,3.9195,3.9747,4.0275,4.0526,4.0576,4.1128,4.1354,4.1329,4.0802,3.8718,3.5554,3.3269,3.2641,3.2657,0.0,0.0,0.0,0.0,0.0,0.0,0.0,0.0,0.0,0.0,0.0,0.0,0.0,0.0,0.0,0.0,0.0,0.0,0.0,0.0,0.0,0.0,0.0,0.0,0.0,0.0,0.0,0.0,0.0,0.0,0.0,0.0,0.0,2.189,2.6016,2.834,2.6777,2.918,3.0117,2.8027,2.8945,2.9668,2.9668,3.1269,3.2051,3.1621,3.2773,3.3281,3.2995,3.3348,3.3564,3.3564,3.3152,3.3759,3.5276,3.477,3.5337,3.6928,3.6906,3.6544,3.6117,3.6117,3.4953,3.3191,3.3191,3.2035,3.029,2.9858,2.959,2.9512,2.9101,2.8926,2.8789,0.0,0.0,0.0,0.0,0.0,0.0,1.4961,1.5956,1.7306,1.9048,2.2799,2.6432,2.9603,3.3093,3.5855,3.7437,3.568,3.3847,3.2315,2.78,2.5229,2.5349,2.686,2.9512,3.3518,3.5537,3.7513,3.9597,3.9923,4.035,4.0877,4.0626,4.0727,4.1128,4.1681,4.1932,4.1957,4.2183,4.153,4.0049,3.6609,3.46,3.3358,0.0,0.0,0.0,0.0,0.0,0.0,0.0,0.0,0.0,0.0,0.0,0.0,0.0,0.0,0.0,0.0,0.0,0.0,0.0,0.0,0.0,0.0,0.0,0.0,0.0,0.0,0.0,0.0,0.0,0.0,0.0,2.2572,2.516,2.5586,2.7519,2.9453,3.0859,3.1758,3.2031,3.1445,3.1699,3.1914,3.1914,3.293,3.3496,3.3379,3.3984,3.4903,3.6016,3.583,3.6227,3.7422,3.6946,3.6948,3.7405,3.645,3.6285,3.67,3.6005,3.5624,3.549,3.549,3.5202,3.4736,3.4736,3.4338,3.3609,3.1063,2.9844,2.9551,2.9434,2.9199,2.8789,0.0,0.0,0.0,0.0,0.0,0.0,1.4727,1.5931,1.7542,1.9666,2.3998,2.7946,3.0959,3.4324,3.6709,3.7588,3.5655,3.347,3.1336,2.7953,2.6504,2.7581,2.9731,3.2673,3.6182,3.7764,3.932,4.0852,4.0852,4.1153,4.1681,4.158,4.1831,4.2384,4.2936,4.3187,4.3212,4.3539,4.3338,4.2635,4.0375,3.8492,3.6639,3.3473,3.2123,3.1496,2.8683,2.7676,2.7216,2.5041,0.0,0.0,0.0,0.0,0.0,0.0,0.0,0.0,0.0,0.0,0.0,0.0,0.0,0.0,0.0,0.0,0.0,0.0,0.0,0.0,0.0,0.0,0.0,0.0,2.5305,2.8262,2.9512,3.0488,3.1641,3.3144,3.3652,3.3809,3.3613,3.3594,3.3594,3.3594,3.4238,3.4551,3.4336,3.5671,3.6595,3.7318,3.7888,3.8613,3.9376,3.8784,3.8896,3.9469,3.8665,3.8642,3.9302,3.85,3.8005,3.7793,3.7581,3.7021,3.6271,3.6271,3.5836,3.5156,0.0,0.0,0.0,0.0,2.9829,2.8828,0.0,0.0,0.0,0.0,0.0,0.0,1.4328,1.5521,1.7364,2.0064,2.4418,2.8473,3.1612,3.4474,3.6433,3.7036,3.5027,3.2591,2.9955,2.8323,2.8323,3.0256,3.3345,3.583,3.7613,3.9722,4.1053,4.1605,4.1605,4.1907,4.2434,4.2861,4.3388,4.4016,4.4568,4.4844,4.492,4.497,4.4669,4.4166,4.4166,4.3087,4.1053,3.7462,3.6084,3.5842,3.357,3.1683,3.0053,2.8573,0.0,0.0,0.0,0.0,0.0,0.0,0.0,0.0,0.0,0.0,0.0,0.0,0.0,0.0,0.0,0.0,0.0,0.0,0.0,0.0,0.0,0.0,0.0,0.0,2.7611,3.0332,3.3164,3.3984,3.4297,3.4297,3.4941,3.5234,3.4824,3.4897,3.5008,3.4949,3.5686,3.5898,3.542,3.7612,0.0,0.0,0.0,4.0694,4.0418,3.9795,4.0264,4.1516,4.099,4.1574,4.2861,4.2308,4.1756,4.1229,4.0727,3.9414,3.7796,3.7796,3.6918,3.5727,3.5398,3.5288,3.5067,3.2792,3.09,2.9342,0.0,0.0,0.0,0.0,0.0,0.0,1.4482,1.5665,1.7431,2.0266,2.4518,2.8047,3.0055,3.3119,3.5429,3.6433,3.4073,3.1763,2.9905,2.9051,3.0156,3.3621,3.5655,3.7914,4.0475,4.1831,4.2785,4.3338,4.3338,4.3614,4.4141,4.379,4.4192,4.5171,4.5723,4.6225,4.6677,4.7104,4.6979,4.6502,4.6502,4.4694,4.1806,4.0174,3.9293,3.8562,3.5965,3.5418,3.5435,3.2356,3.1695,3.1495,2.7558,2.5722,0.0,0.0,0.0,0.0,0.0,0.0,0.0,0.0,0.0,0.0,0.0,0.0,0.0,0.0,0.0,0.0,0.0,0.0,0.0,2.7709,3.0334,3.2617,3.4219,3.5137,3.5644,3.5644,3.5488,3.5351,3.5273,3.6517,3.7094,3.685,3.8873,3.9927,3.9423,4.0228,4.1219,4.2404,4.2474,4.2806,4.3634,4.3094,4.2856,4.2637,4.2115,0.0,4.2283,4.1756,4.1204,4.0676,4.0576,3.999,3.9258,3.9258,3.9129,3.8582,3.6294,3.5288,3.5176,3.3848,3.3215,3.27,0.0,0.0,0.0,0.0,0.0,0.0,1.4097,1.5452,1.7305,1.9878,2.3617,2.6791,2.875,3.116,3.2667,3.2641,3.0608,2.9578,3.0156,3.0708,3.2616,3.6207,3.8492,4.045,4.2133,4.3514,4.4367,4.4644,4.492,4.5347,4.5874,4.5598,4.6075,4.7154,4.7405,4.7857,4.836,4.9183,4.8906,4.8032,4.8467,4.7197,4.4895,4.3539,4.266,4.1873,4.0021,3.9382,3.9047,3.6468,3.5613,3.5103,3.1182,2.8902,2.6998,0.0,0.0,0.0,0.0,0.0,0.0,0.0,0.0,0.0,0.0,0.0,0.0,0.0,0.0,2.3461,2.3411,0.0,2.8594,3.0547,3.248,3.4121,3.5215,3.6509,3.7307,3.7307,3.7125,3.7381,3.8283,3.9023,3.9432,3.93,4.0507,4.1069,4.0822,4.181,4.2832,4.3731,4.4255,4.4861,4.5472,4.492,4.4367,4.379,4.3237,4.2836,4.2559,4.2007,4.1455,4.0902,4.0651,4.0199,3.9697,3.9697,3.9697,3.9569,3.8031,3.7049,3.6264,3.5224,3.4439,3.3675,0.0,0.0,0.0,0.0,0.0,0.0,0.0,1.5169,1.7042,1.9275,2.2441,2.5194,2.703,2.8875,2.9553,2.8524,2.762,2.8247,3.0909,3.2742,3.5253,3.8668,4.1178,4.2785,4.3463,4.4895,4.5698,4.5799,4.6351,4.6903,4.7456,4.7698,4.8404,4.9571,4.9796,5.0255,5.0972,5.1857,5.1276,4.9799,5.0524,4.9826,4.8209,4.6577,4.5547,4.4769,4.3438,4.2208,4.0978,3.9647,3.8743,3.7567,3.4356,3.2227,3.0148,2.6365,2.4137,0.0,0.0,0.0,0.0,0.0,0.0,0.0,0.0,2.1351,2.1312,2.2218,2.4315,2.6109,2.6541,2.8799,3.1388,3.3367,3.4596,3.5739,3.6804,3.8221,3.9256,3.9497,3.9256,3.9627,4.1052,4.1437,4.1693,4.1693,4.1947,4.2201,4.2201,4.3482,4.4251,4.4251,4.555,4.62,4.5974,4.5648,4.5095,4.4292,4.3966,4.3514,4.2961,4.2509,4.2007,4.1455,4.0802,4.0199,3.9697,3.9697,3.9697,3.9697,3.9697,3.9025,3.7805,3.6946,3.5774,3.4532,0.0,0.0,0.0,0.0,0.0,0.0,0.0,0.0,1.6413,1.8672,2.1494,2.3468,2.3929,2.6223,2.7419,2.6791,2.8373,3.0382,3.2641,3.4826,3.7739,4.153,4.2911,4.4116,4.5196,4.5874,4.6451,4.6954,4.7481,4.8033,4.8586,4.9463,5.0821,5.2549,5.3416,5.4523,5.5566,5.5634,5.477,5.3234,5.2807,5.1612,4.9967,4.8284,4.7004,4.5849,4.374,4.1957,4.0576,4.04,3.9647,3.8416,3.6448,3.5421,3.4003,2.8554,2.5829,2.3966,2.1709,2.0937,2.1074,2.2578,2.2571,2.2776,0.0,2.5664,2.5956,2.6793,2.8144,2.9355,3.0159,3.1463,3.3426,3.6372,3.7207,3.827,4.0342,4.0795,4.1437,4.2958,4.182,4.0924,4.1181,4.258,4.3458,4.3458,4.489,4.5671,4.5671,4.5914,4.6059,4.6059,4.618,4.5824,4.4819,4.5271,4.4719,4.3162,4.3589,4.3514,4.2986,4.2911,4.2585,4.2007,4.0978,4.0199,3.9697,3.9697,3.9697,3.9697,3.9697,3.9594,3.939,3.8791,3.8116,3.7494,0.0,0.0,0.0,0.0,0.0,0.0,0.0,0.0,0.0,1.705,1.8844,2.037,2.1273,2.3054,2.4362,2.5008,2.7067,2.9553,3.239,3.5881,3.9421,4.2961,4.536,4.6797,4.7289,4.8942,4.9967,5.0206,5.1163,5.1869,5.2109,5.2446,5.3266,5.4324,5.5139,5.5905,5.683,5.7809,5.7171,5.5752,5.5778,5.4594,5.2368,4.9463,4.7212,4.5339,4.2891,4.1379,0.0,3.9019,3.8492,3.8216,3.7468,3.5746,3.341,2.9804,2.6824,2.4263,2.276,2.2383,2.2734,2.3965,2.4707,2.5547,2.7129,2.7871,2.8555,2.9668,3.1692,3.3571,3.4615,3.6184,3.7759,3.9362,3.9689,4.0166,4.103,4.1822,4.2156,4.2302,4.2472,4.2976,4.3623,4.4305,4.4814,4.4814,4.5739,4.6301,4.6301,4.6301,4.6301,4.6301,4.6301,4.6075,4.5598,4.5849,4.5447,4.4443,4.4342,4.3991,4.3438,4.3112,4.2509,4.163,4.0852,4.0199,3.9697,3.9697,3.9697,3.9697,3.9697,3.9496,3.9195,3.8944,3.8517,3.7914,0.0,0.0,0.0,0.0,0.0,0.0,0.0,0.0,0.0,0.0,1.6872,1.8238,1.9855,2.078,2.182,2.3215,2.546,2.8369,3.2,3.6463,4.0799,4.4797,4.7581,4.9293,4.9917,5.1741,5.284,5.3033,5.3944,5.4497,5.4635,5.511,5.5765,5.6372,5.7358,5.8136,5.873,5.9966,5.9578,5.8099,5.7965,5.6386,5.3598,4.9603,4.6482,4.3835,4.1304,3.9572,3.8216,3.6584,3.6207,3.6433,3.6584,3.5169,3.2855,3.0352,2.7019,2.4059,2.3319,2.3633,2.4434,2.5664,2.6934,2.8144,2.9141,3.0452,3.1712,3.2695,3.5289,3.7412,3.7971,3.9352,4.0783,4.1651,4.1719,4.1868,4.2372,4.2942,4.2951,4.1866,4.2584,4.3438,4.4267,4.4744,4.502,4.502,4.5673,4.6075,4.6075,4.6225,4.625,4.6075,4.6075,4.5924,4.5623,4.5773,4.5497,4.4794,4.4518,4.4116,4.3564,4.3011,4.2233,4.1304,4.0752,4.0199,3.9697,3.9697,3.9697,3.9697,3.9697,3.9346,3.8868,3.8868,3.8417,3.7713,0.0,0.0,0.0,0.0,0.0,0.0,0.0,0.0,0.0,0.0,0.0,0.0,0.0,1.9984,2.028,2.1481,2.4079,2.7506,3.2004,3.6731,4.1866,4.7576,4.9637,5.1541,5.3337,5.3392,5.3723,5.4331,5.4386,5.469,5.5215,5.6787,5.8174,5.9472,6.117,6.2306,6.2933,6.2933,6.1998,6.0336,5.9097,5.65,5.274,4.8047,4.4414,4.1366,3.8965,3.6031,3.3294,3.3219,3.2842,3.2491,3.3043,3.3922,3.3925,2.9961,2.6165,2.3144,2.3164,2.4082,2.5547,2.7656,2.916,3.0449,3.1758,3.3984,3.5949,3.6455,3.8559,4.024,3.9668,3.9958,4.0796,4.2579,4.2848,4.3481,4.5116,4.4903,4.4127,4.3137,4.2057,4.143,4.1455,4.2911,4.384,4.384,4.4869,4.5522,4.5522,4.6024,4.6075,4.5522,4.5522,4.4995,4.389,4.4418,4.4141,4.3062,4.3589,4.3539,4.2986,4.2434,4.1882,4.1304,4.0752,4.0199,3.9697,3.9697,3.9697,3.9697,3.9697,3.9346,3.8868,3.8868,3.8165,3.7211,0.0,0.0,0.0,0.0,0.0,0.0,0.0,0.0,0.0,0.0,0.0,0.0,0.0,0.0,0.0,0.0,2.343,2.6299,2.9318,3.5247,4.0174,4.3594,4.8702,5.1909,5.2986,5.4938,5.6158,5.6828,5.7236,5.7557,5.7761,5.8349,5.8837,5.925,6.0313,6.1134,6.1762,6.1762,6.1898,6.1909,5.8837,5.6858,5.5039,4.7968,4.319,3.9721,0.0,3.2893,3.1788,3.0683,3.0457,3.0708,3.126,3.0753,2.9258,2.613,2.4399,2.3828,2.498,2.6445,2.8144,3.0332,3.2512,3.4448,3.5704,3.7486,3.8979,3.9029,3.9778,4.036,4.0174,4.0571,4.1419,4.2725,4.3259,4.3738,4.4252,4.4192,4.3263,4.1053,4.1128,4.0752,3.927,4.0978,4.2459,4.3187,4.394,4.4694,4.5447,4.5673,4.5673,4.5497,4.5497,4.5121,4.4342,4.4543,4.4443,4.4066,4.389,4.3313,4.2434,4.2233,4.1656,4.0777,4.0601,4.0199,3.9697,3.9697,3.9697,3.9697,3.9697,3.912,3.8291,3.8291,3.7588,3.6684,0.0,0.0,0.0,0.0,0.0,0.0,0.0,0.0,0.0,0.0,0.0,0.0,0.0,0.0,0.0,0.0,0.0,2.495,2.7361,3.309,3.7881,4.0978,4.5816,4.9068,5.0435,5.1824,5.3084,5.4251,5.5149,5.5837,5.6286,5.7004,5.7483,5.7723,5.8381,5.9069,5.9668,5.9428,5.9428,5.9279,5.5887,5.3436,5.1047,4.4075,3.928,0.0,3.0984,2.9024,2.8498,2.7875,2.8247,2.885,2.8595,2.7561,2.6129,2.453,2.4331,2.5346,2.7985,2.9931,3.1734,3.4737,3.6873,3.8417,3.9218,4.0568,4.1433,4.0738,4.0646,4.0555,3.9999,3.9808,4.0224,4.1329,4.1806,4.2308,4.3112,4.2886,4.1982,4.0199,4.045,4.0199,3.8743,3.9898,4.1128,4.2032,4.3162,4.4116,4.4844,4.5271,4.5397,4.5196,4.5171,4.4819,4.4041,4.4041,4.4041,4.4041,4.3489,4.2836,4.2133,4.1756,4.1178,4.0501,4.03,4.0023,3.9697,3.9697,3.9697,3.9672,3.9471,3.8818,3.799,3.7789,3.7136,3.6408,0.0,0.0,0.0,0.0,0.0,0.0,0.0,0.0,0.0,0.0,0.0,0.0,0.0,0.0,0.0,0.0,0.0,0.0,2.6103,3.0383,3.4952,3.9528,4.1359,4.3449,4.5938,4.4885,4.5244,4.7189,4.8416,4.9673,5.096,5.2778,5.4072,5.47,5.5329,5.5957,5.6392,5.5867,5.4421,5.2502,5.0154,4.6366,4.1541,3.6985,3.3041,2.9629,2.6662,2.473,2.3785,2.5103,2.6346,2.7105,2.5493,2.4949,2.5018,2.5476,2.6235,2.7863,3.2144,3.429,3.6285,4.0509,4.1949,4.2266,4.2113,4.2835,4.3235,4.1496,4.1027,4.0501,3.8868,3.7713,3.7387,3.8517,3.8843,3.9697,4.1806,4.1254,4.0601,4.0526,4.0099,3.9798,3.9747,3.9798,4.0023,4.0526,4.2484,4.3714,4.384,4.4844,4.5171,4.4644,4.4593,4.4066,4.2986,4.2961,4.2936,4.2936,4.2384,4.2108,4.2032,4.0978,4.0501,4.045,3.9923,3.9697,3.9697,3.9697,3.9697,3.9647,3.9094,3.8517,3.7939,3.7387,3.6835,3.6358,0.0,0.0,0.0,0.0,0.0,0.0,0.0,0.0,0.0,0.0,0.0,0.0,0.0,0.0,0.0,0.0,0.0,0.0,2.2706,2.7033,3.0349,3.2,3.7226,4.0617,4.1842,4.3031,4.4347,4.5813,4.5043,4.5368,4.68,4.6697,4.7111,4.7818,4.7997,4.803,4.7988,4.7372,4.6807,4.597,4.2998,4.0996,3.9401,3.4525,3.1567,2.9682,2.7148,2.5478,2.4542,2.4909,2.6286,2.7951,2.798,2.8551,2.9422,3.0303,3.2051,3.4136,3.6677,3.8774,4.0695,4.2073,4.3249,4.3796,4.2896,4.2951,4.2623,4.0483,3.8116,3.6031,3.4776,3.465,3.5102,3.6207,3.8467,4.045,4.1404,4.2007,4.1882,4.0651,4.1128,4.1204,4.04,4.1053,4.143,4.1153,4.1656,4.2685,4.4317,4.4292,4.4342,4.4618,4.4217,4.3689,4.2986,4.2559,4.2359,4.2359,4.1806,4.1329,4.0927,4.0651,4.03,3.9898,3.9747,3.9697,3.9697,3.9697,3.9697,3.9647,3.9094,3.8517,3.7939,3.7387,3.6835,3.6358,0.0,0.0,0.0,0.0,0.0,0.0,0.0,0.0,0.0,0.0,0.0,0.0,0.0,0.0,0.0,0.0,0.0,0.0,0.0,2.4405,2.6566,2.7158,3.105,3.3715,3.4663,3.5252,3.6453,3.8296,3.7577,3.8011,3.966,3.9567,3.9828,4.0588,4.0881,4.1033,4.1179,4.0723,4.0048,0.0,0.0,3.4621,3.3107,2.9874,2.7941,2.6778,2.547,2.5269,2.57,2.6764,2.8044,2.9475,3.1105,3.2174,3.3168,3.4797,3.658,3.8526,4.1382,4.3322,4.4696,4.5893,4.6102,4.5573,4.3768,4.2535,4.1003,3.7814,3.5077,3.2767,3.1185,3.1763,3.2817,3.3897,3.6684,3.9245,4.0777,4.1505,4.1731,4.1279,4.1781,4.1907,4.1304,4.1781,4.2133,4.2057,4.2057,4.2585,4.384,4.384,4.394,4.4242,4.3966,4.3413,4.2635,4.2308,4.2032,4.1781,4.1229,4.0802,4.0501,4.0275,3.9998,3.9697,3.9697,3.9697,3.9697,3.9697,3.9697,3.9622,3.8818,3.8291,3.7914,3.7111,3.6634,3.6358,0.0,0.0,0.0,0.0,0.0,0.0,0.0,0.0,0.0,0.0,0.0,0.0,0.0,0.0,0.0,0.0,0.0,0.0,0.0,0.0,2.3493,2.408,2.4831,2.5799,2.6937,2.6022,2.6606,2.8954,2.8932,2.9806,3.1594,3.2139,3.2715,3.3362,3.386,3.4327,3.4764,3.4775,3.3633,3.1833,3.0346,2.8146,2.5564,0.0,2.3741,2.2845,2.2919,2.4467,2.689,2.9829,3.1089,3.2016,3.4776,3.6193,3.7325,3.964,4.0964,4.2413,4.6069,4.734,4.7955,4.98,4.8937,4.6853,4.4016,4.148,3.8542,3.4248,3.1964,3.0156,2.8247,2.9252,3.0809,3.2114,3.4625,3.7362,4.0124,4.0576,4.0978,4.1932,4.2183,4.2233,4.2158,4.2283,4.2534,4.2936,4.3037,4.3087,4.3087,4.3463,4.3689,4.3689,4.3689,4.3187,4.2158,4.2082,4.1781,4.1229,4.0676,4.04,4.04,3.9923,3.9697,3.9697,3.9697,3.9697,3.9697,3.9697,3.9647,3.9471,3.8417,3.7965,3.7764,3.6734,3.6358,3.6358,0.0,0.0,0.0,0.0,0.0,0.0,0.0,0.0,0.0,0.0,1.3203,1.3145,0.0,0.0,0.0,0.0,0.0,0.0,0.0,0.0,0.0,2.1339,2.3039,2.4065,2.4281,2.5108,2.5967,2.697,2.5805,2.6027,2.7474,2.6499,2.6448,2.7228,2.734,2.7045,2.6526,2.6951,2.6215,2.4854,2.4529,2.3857,2.2908,2.2279,0.0,0.0,2.1896,2.3778,2.6841,3.2488,3.5122,3.6638,3.9873,4.2252,4.406,4.587,4.7183,4.8273,4.9451,5.0124,5.0373,4.9941,4.7807,4.507,4.1831,3.8316,3.4726,3.1235,2.88,2.7193,2.6816,2.8097,3.003,3.2516,3.4876,3.7362,4.0124,4.0902,4.1254,4.1455,4.2283,4.266,4.2208,4.2986,4.3363,4.3011,4.3388,4.3664,4.3664,4.3313,4.3112,4.3112,4.3112,4.2811,4.2158,4.1706,4.1204,4.0651,4.0099,3.9848,3.9848,3.9747,3.9697,3.9697,3.9697,3.9697,3.9697,3.9697,3.9421,3.8944,3.8266,3.7739,3.7236,3.6609,3.6358,3.6358,0.0,0.0,0.0,0.0,0.0,0.0,0.0,1.3203,1.3437,1.4082,1.4004,1.3769,1.3535,1.3928,1.4488,0.0,0.0,0.0,0.0,0.0,0.0,0.0,2.1271,2.2079,2.2079,2.2694,2.3281,2.392,0.0,2.2476,2.3468,2.2505,2.2217,2.2644,2.2964,2.2852,2.2519,2.3031,2.2904,2.2272,2.2272,2.1865,2.1247,0.0,0.0,0.0,2.1653,2.3801,2.693,3.1435,3.5047,3.8587,4.4437,4.7569,4.9441,5.1186,5.1282,5.1048,5.2181,5.1681,5.0569,4.9439,4.6878,4.3589,3.9672,3.578,3.1964,2.8348,2.654,2.5435,2.4833,2.6565,2.8599,3.0231,3.234,3.4977,3.8316,3.9019,3.9823,4.1555,4.2233,4.2559,4.2585,4.3062,4.3263,4.2986,4.3212,4.3363,4.3363,4.3112,4.2836,4.2559,4.2559,4.2158,4.1304,4.1053,4.0626,4.0099,3.9823,3.9697,3.9697,3.9697,3.9697,3.9697,3.9697,3.9697,3.9697,3.9697,3.9371,3.8818,3.8241,3.7663,3.7111,3.6558,3.6358,3.6358,0.0,0.0,0.0,0.0,0.0,0.0,0.0,1.3574,1.3945,1.4805,1.4844,1.4531,1.3848,1.3811,1.4049,0.0,0.0,0.0,0.0,0.0,0.0,0.0,0.0,0.0,2.025,0.0,0.0,2.1317,2.0413,0.0,0.0,0.0,0.0,0.0,2.0288,2.0489,2.0514,2.0957,2.107,0.0,0.0,2.0483,1.9969,0.0,0.0,0.0,0.0,2.3301,2.634,2.9666,3.3554,3.8314,4.5751,4.9716,5.1938,5.3253,5.2904,5.2554,5.3783,5.2544,5.0482,4.9014,4.5899,4.2108,3.7663,3.347,2.9478,2.5812,2.4657,2.4054,2.3215,2.5109,2.7092,2.8122,2.9829,3.239,3.6282,3.7036,3.8241,4.1103,4.1856,4.2368,4.3,4.3159,4.3199,4.3406,4.328,4.3169,4.2961,4.2986,4.271,4.2183,4.2158,4.163,4.0526,4.0526,4.0249,3.9697,3.9697,3.9697,3.9697,3.9697,3.9697,3.9697,3.9572,3.9521,3.9496,3.9396,3.9019,3.8467,3.8015,3.7487,3.696,3.6508,3.6358,3.6358,0.0,0.0,0.0,0.0,0.0,0.0,0.0,1.3828,1.4394,1.5234,1.5019,1.4766,1.4668,1.4331,1.4021,0.0,0.0,0.0,0.0,0.0,0.0,0.0,0.0,0.0,0.0,0.0,0.0,2.0794,2.0693,0.0,0.0,0.0,0.0,0.0,0.0,1.9886,1.9859,1.9818,0.0,0.0,0.0,0.0,0.0,0.0,0.0,0.0,0.0,2.1243,2.4385,2.8891,3.1787,3.464,4.0291,4.5219,4.8726,4.8471,5.099,5.3685,5.2932,5.2686,5.1836,4.8736,4.4744,4.04,3.5956,3.116,2.6841,2.3954,2.2924,2.2673,2.299,2.418,2.5887,2.8423,2.9478,3.1286,3.5152,3.6558,3.7688,3.9019,4.0927,4.25,4.3336,4.3559,4.4051,4.4778,4.436,4.3666,4.3073,4.2986,4.271,4.2183,4.2158,4.163,4.0526,4.0526,4.0249,3.9697,3.9697,3.9697,3.9697,3.9697,3.9697,3.9672,3.917,3.8944,3.8894,3.8366,3.7839,3.7337,3.7287,3.6935,3.6433,3.6383,3.6358,3.6358,0.0,0.0,0.0,0.0,0.0,0.0,1.3585,1.3992,1.4806,1.6191,1.6009,1.5612,1.5213,1.4785,1.4169,1.3339,0.0,0.0,0.0,0.0,0.0,0.0,0.0,0.0,0.0,0.0,1.9874,2.0137,2.0137,0.0,0.0,0.0,0.0,0.0,0.0,1.8521,1.8083,1.7804,0.0,0.0,0.0,0.0,0.0,0.0,0.0,0.0,0.0,0.0,2.2588,2.4904,2.6987,2.8985,3.0911,3.5507,4.1333,4.7447,5.0294,5.1736,5.2798,5.2658,5.138,4.7491,4.3614,3.9597,3.4826,3.0131,2.6088,2.3627,2.2447,2.197,2.2548,2.3,2.4004,2.6113,2.6364,2.767,3.1537,3.2466,3.3997,3.7437,3.9571,4.1591,4.3702,4.4679,4.5288,4.5673,4.5105,4.4555,4.4306,4.3518,4.2835,4.2371,4.2345,4.2267,4.2332,4.1559,4.1051,4.0844,4.0083,3.9697,3.9697,3.9697,3.9521,3.9195,3.8969,3.8668,3.8341,3.809,3.7688,3.7186,3.7186,3.6835,3.6358,3.6358,3.6358,3.6307,0.0,0.0,0.0,0.0,0.0,1.2807,1.36,1.4229,1.5039,1.6185,1.6275,1.5915,1.5096,1.4668,1.4004,1.2969,1.3457,0.0,0.0,0.0,0.0,0.0,0.0,0.0,0.0,0.0,1.9182,1.956,1.956,1.956,0.0,0.0,1.8949,1.8239,0.0,0.0,0.0,0.0,0.0,0.0,0.0,0.0,0.0,0.0,0.0,0.0,0.0,0.0,0.0,0.0,0.0,2.4381,2.4596,2.7877,3.3589,4.3186,4.76,4.975,5.1285,5.1686,5.0684,4.6604,4.2562,3.8316,3.3646,2.9026,2.5109,2.2874,2.1794,2.1418,2.197,2.2196,2.2799,2.433,2.4506,2.5661,2.9051,3.0163,3.2204,3.6167,3.8358,4.0615,4.3365,4.5165,4.5944,4.5586,4.5468,4.5163,4.4676,4.4085,4.3579,4.2938,4.2938,4.2968,4.293,4.2084,4.1419,4.1019,4.0185,3.9697,3.9697,3.9521,3.9245,3.8843,3.8517,3.814,3.7739,3.7588,3.7287,3.6935,3.6935,3.6709,3.6358,3.6358,3.6257,3.6056,0.0,0.0,0.0,0.0,0.0,0.0,1.3301,1.4419,1.5026,1.4857,1.534,1.5321,1.4253,1.3769,1.334,1.293,1.3457,0.0,0.0,0.0,0.0,0.0,0.0,0.0,0.0,0.0,1.7751,1.8983,1.8983,1.8983,1.8983,1.8384,1.7843,1.729,0.0,0.0,0.0,0.0,0.0,0.0,0.0,0.0,0.0,0.0,0.0,0.0,0.0,0.0,0.0,0.0,0.0,0.0,0.0,2.4113,2.6229,3.3796,4.1884,4.8238,4.8047,4.9314,4.9968,4.6724,4.1492,3.6207,3.229,2.757,2.3401,2.1197,2.0743,2.084,2.1393,2.1945,2.2673,2.3828,2.4883,2.6364,2.8624,3.1138,3.3382,3.511,3.7155,3.9414,4.2065,4.4578,4.5613,4.4401,4.5468,4.5401,4.3654,4.4656,4.5032,4.429,4.429,4.3432,4.1591,4.1591,4.0945,3.9697,3.9697,3.9697,3.9672,3.912,3.8868,3.8818,3.7688,3.7186,3.7161,3.6609,3.6383,3.6358,3.6358,3.6358,3.6358,3.6358,3.6006,3.5554,0.0,0.0,0.0,0.0,0.0,0.0,0.0,1.3632,1.4403,1.4932,1.4904,1.4604,1.4174,1.375,1.334,1.291,1.3457,0.0,0.0,0.0,0.0,0.0,0.0,0.0,0.0,0.0,1.8214,1.8983,1.8983,1.8957,1.879,1.8326,1.7501,1.6313,1.5524,1.4892,0.0,0.0,0.0,0.0,0.0,0.0,0.0,0.0,0.0,0.0,0.0,0.0,0.0,0.0,0.0,0.0,0.0,0.0,0.0,2.7251,3.348,3.9498,4.0166,4.1704,4.2162,3.8152,3.5187,3.2215,2.8323,2.5335,2.2899,2.1041,2.0363,2.0238,2.0869,2.1368,2.2372,2.4255,2.5134,2.6239,2.8097,3.0011,3.2375,3.5284,4.0498,4.4743,4.6832,4.7391,4.7449,4.704,4.6991,4.6668,4.6166,4.6462,4.6164,4.5125,4.5032,4.4733,4.4163,4.2995,4.1662,4.0447,3.9094,3.8542,3.8542,3.8366,3.8065,3.7688,3.7337,3.696,3.6609,3.6433,3.6358,3.6358,3.6358,3.6358,3.6358,3.6358,3.6257,3.6056,0.0,0.0,0.0,0.0,0.0,0.0,0.0,1.3215,1.3903,1.4256,1.42,1.4019,1.3684,1.3418,1.3164,1.291,1.3457,0.0,0.0,0.0,0.0,0.0,0.0,0.0,0.0,1.7194,1.7953,1.8706,1.8883,1.9032,1.9085,1.849,1.7482,1.6029,1.4934,1.3993,0.0,0.0,0.0,0.0,0.0,0.0,1.3723,0.0,0.0,0.0,0.0,0.0,0.0,0.0,0.0,0.0,0.0,0.0,0.0,0.0,2.5915,3.0473,3.3881,3.6034,3.6577,3.3654,3.1334,2.9051,2.5988,2.3853,2.2096,2.0639,2.0062,1.9987,2.0618,2.1117,2.202,2.3627,2.4682,2.5812,2.7268,2.9555,3.2619,3.6688,4.1962,4.581,4.7282,4.7466,4.7584,4.7938,4.7549,4.7309,4.7309,4.7309,4.6931,4.6166,4.6166,4.5689,4.472,4.3613,4.1991,4.0089,3.8865,3.8216,3.799,3.7789,3.7513,3.7186,3.696,3.6684,0.0,3.6358,3.6358,3.6358,3.6358,3.6358,3.6358,3.6358,3.6232,3.6006,0.0,0.0,0.0,0.0,0.0,0.0,0.0,1.3057,1.3552,1.2968,1.3382,1.3505,1.2968,1.2891,1.2891,1.2891,0.0,0.0,0.0,0.0,0.0,0.0,0.0,0.0,1.6392,1.6436,1.703,1.8204,1.8756,1.9258,1.9758,1.8899,1.7743,1.6294,1.4777,1.3672,0.0,0.0,0.0,0.0,0.0,0.0,0.0,0.0,0.0,0.0,0.0,0.0,0.0,0.0,0.0,0.0,0.0,0.0,0.0,0.0,0.0,0.0,0.0,3.1611,3.2493,3.1877,2.9288,2.6389,2.4833,2.2849,0.0,1.9962,1.9736,1.9936,2.0618,2.1117,2.1719,2.2372,2.3879,2.5335,2.6414,2.9969,3.4248,3.9145,4.205,4.3862,4.4363,4.5522,4.6599,4.7252,4.7309,4.7309,4.7309,4.7249,4.7249,4.7249,4.7249,4.5989,4.3448,4.3338,4.1796,3.8743,3.8718,3.8417,3.7864,3.7362,3.7136,3.7086,3.6584,3.6358,3.6358,3.6358,3.6358,3.6358,3.6358,3.6358,3.6358,3.6358,3.6031,3.5512,0.0,0.0,0.0,0.0,0.0,0.0,0.0,0.0,0.0,0.0,1.3017,1.3065,1.2939,1.2891,1.2891,0.0,0.0,0.0,0.0,0.0,0.0,0.0,0.0,0.0,1.5107,1.5599,1.6602,1.8204,1.8756,1.9204,1.9631,1.8861,1.7701,1.6105,1.4687,1.3672,0.0,0.0,0.0,0.0,0.0,0.0,0.0,0.0,0.0,0.0,1.4635,1.515,0.0,0.0,0.0,0.0,0.0,0.0,0.0,0.0,1.8581,1.9181,2.0887,0.0,2.4201,2.3636,2.289,2.1995,0.0,2.0564,2.0012,1.9359,1.9208,1.951,2.0489,2.1117,2.2096,2.3929,2.5259,2.6465,2.757,3.3058,3.8168,4.1504,4.4526,4.6218,4.5819,4.6572,4.708,4.7309,4.7309,4.7309,4.7309,4.683,4.6561,4.6561,4.6561,4.5347,4.2906,4.1965,4.016,3.7563,3.7161,3.6885,3.6734,3.6609,3.6558,3.6558,3.6408,3.6358,3.6358,3.6358,3.6358,3.6358,3.6358,3.6358,3.6358,3.6358,3.6282,3.6013,0.0,0.0,0.0,0.0,0.0,0.0,0.0,0.0,0.0,0.0,0.0,0.0,0.0,0.0,0.0,0.0,0.0,0.0,0.0,0.0,0.0,0.0,0.0,1.4097,1.4698,1.5287,1.6305,1.7798,1.8834,1.9728,2.0465,1.9888,1.8873,1.7292,1.5007,1.3581,0.0,0.0,0.0,0.0,1.2891,0.0,0.0,0.0,0.0,0.0,1.4376,1.488,0.0,1.6194,1.6722,1.6974,0.0,0.0,0.0,0.0,1.7626,1.7827,1.7827,1.9233,2.0639,2.0338,2.0263,2.0188,1.9861,1.9434,1.8982,1.8706,1.8857,1.9284,2.0112,2.1142,2.2422,2.4155,2.5586,2.7404,2.9881,3.4519,3.8858,4.2136,4.4811,4.6471,4.6741,4.71,4.7309,4.7309,4.7309,4.7189,4.686,4.6531,4.6172,4.5873,4.501,4.4066,4.2998,4.2603,4.0959,3.7998,3.7689,3.7126,3.6358,3.6358,3.6358,3.6358,3.6358,3.6358,3.6332,3.6081,3.5981,3.5956,3.5705,3.5755,3.5956,3.5705,3.578,3.5719,0.0,0.0,0.0,0.0,0.0,0.0,0.0,0.0,0.0,0.0,0.0,0.0,0.0,0.0,0.0,0.0,0.0,0.0,0.0,0.0,0.0,0.0,1.3647,1.4003,1.4698,1.5197,1.6075,1.7316,1.9057,2.0464,2.1493,2.1354,2.0321,1.8431,1.5296,1.3519,0.0,0.0,0.0,0.0,1.2891,0.0,0.0,0.0,0.0,0.0,0.0,0.0,0.0,1.6281,1.6572,1.6622,1.6547,0.0,0.0,0.0,0.0,0.0,1.7451,1.8756,1.9987,1.9635,1.9685,1.9786,1.971,1.8982,1.8329,1.8329,1.8756,1.9359,2.0062,2.1493,2.2975,2.418,2.5837,2.8507,3.2907,3.5487,3.838,4.2048,4.4187,4.5693,4.6741,4.695,4.701,4.701,4.701,4.677,4.6202,4.6082,4.5693,4.5005,4.3558,4.2965,4.3199,4.3514,4.2015,3.8754,3.8754,3.7961,3.6358,3.6358,3.6358,3.6358,3.6358,3.6307,3.6207,3.573,3.5504,3.5378,3.4901,3.5002,3.5353,3.4901,3.5027,3.5144,0.0,0.0,0.0,0.0,0.0,0.0,0.0,0.0,0.0,0.0,0.0,0.0,0.0,0.0,0.0,0.0,0.0,0.0,0.0,0.0,0.0,1.3017,1.3065,1.3573,1.4652,1.4789,1.5682,1.7364,1.9535,2.0865,2.1518,2.2128,2.0526,1.6959,1.5241,1.3924,1.2891,0.0,0.0,0.0,1.2891,0.0,0.0,0.0,0.0,0.0,0.0,0.0,0.0,1.6281,1.6848,1.7174,1.6672,0.0,0.0,0.0,0.0,0.0,1.7827,1.961,2.079,1.8907,1.9133,1.9685,1.9258,1.9032,1.8907,1.8907,1.9309,2.0137,2.1644,2.2924,2.4255,2.5904,2.7871,3.101,3.5976,3.7923,3.9924,4.282,4.4474,4.5155,4.4796,4.5274,4.5603,4.5603,4.5603,4.5574,4.5454,4.4915,4.4317,4.3658,4.3916,4.3567,4.2555,4.1227,3.9776,3.8239,3.8239,3.7598,3.6358,3.6358,3.6358,3.6358,3.6358,3.6107,3.5655,3.5579,3.5278,3.4826,3.4751,3.4776,3.4826,3.4751,3.4776,3.457,0.0,0.0,0.0,0.0,0.0,0.0,0.0,0.0,0.0,0.0,0.0,0.0,0.0,0.0,0.0,0.0,0.0,0.0,0.0,0.0,1.3065,1.3382,1.3382,1.3751,1.4627,1.5963,1.7402,1.8824,2.1536,2.2722,2.2515,2.1574,1.9459,1.6488,1.523,1.3978,1.2891,1.2891,1.2891,1.2891,0.0,0.0,0.0,0.0,0.0,0.0,0.0,0.0,0.0,0.0,1.6697,1.6873,1.6597,0.0,0.0,0.0,0.0,0.0,1.7149,1.8706,1.9911,1.8907,2.0363,2.1845,2.0991,2.0564,2.0363,2.0363,2.0539,2.1142,2.2498,2.3904,2.5787,2.8649,3.0507,3.2542,3.5438,3.7181,3.9084,4.1551,4.3227,4.4407,4.4796,4.5125,4.5304,4.5304,4.5304,4.5125,4.4796,4.4466,4.4018,4.3359,4.268,4.2005,4.1498,3.9758,3.8965,3.9094,3.8379,3.7494,3.6358,3.6056,3.5906,3.5906,3.6197,3.6187,3.5903,3.6297,3.5738,3.4727,3.4727,3.4321,3.3847,3.3847,3.3355,3.2723,0.0,0.0,0.0,0.0,0.0,0.0,0.0,0.0,0.0,0.0,0.0,0.0,0.0,0.0,0.0,0.0,0.0,0.0,0.0,0.0,1.3142,1.3768,1.4063,1.4467,1.5028,1.7239,1.9012,2.0268,2.3149,2.4258,2.3493,2.111,1.8773,1.6514,1.5421,1.4178,1.2891,1.2891,1.2891,1.2891,0.0,0.0,0.0,0.0,0.0,0.0,0.0,0.0,0.0,0.0,0.0,0.0,0.0,0.0,0.0,1.6547,1.6522,1.6572,1.6848,1.8028,1.9233,1.9384,2.1317,2.31,2.2623,2.2171,2.1945,2.2221,2.2472,2.2874,2.3577,2.5184,2.7519,3.1009,3.2541,3.3836,3.5315,3.6851,3.8779,4.1227,4.2503,4.3718,4.4736,4.4706,4.4556,4.4407,4.4377,4.4167,4.3658,4.3629,4.3329,4.2671,4.1439,4.0779,4.0712,3.8889,3.8363,3.9125,3.8158,3.7105,3.5956,3.5805,3.5694,3.576,3.6402,3.6571,3.6471,3.6771,3.6116,3.4766,3.4389,3.3623,3.2692,3.2692,3.2129,3.1342,0.0,0.0,0.0,0.0,0.0,0.0,0.0,0.0,0.0,0.0,0.0,0.0,0.0,0.0,0.0,0.0,0.0,0.0,0.0,0.0,1.3142,1.3768,1.4814,1.5679,1.6267,1.7684,1.9274,2.1042,2.3256,2.4223,2.389,2.17,1.9385,1.7117,1.5966,1.4478,1.2891,1.2891,1.2891,1.2891,1.2891,0.0,0.0,0.0,0.0,0.0,0.0,0.0,0.0,0.0,0.0,0.0,0.0,0.0,1.7225,1.6672,1.6522,1.6748,1.7802,1.8882,1.9886,2.0413,2.0794,2.1292,2.2749,2.299,2.324,2.4356,2.5385,2.5963,2.5511,2.7218,2.9453,3.1763,3.3093,3.494,3.8191,3.9305,4.0802,4.3642,4.3578,4.3389,4.3509,4.294,4.2312,4.1713,4.1654,4.1654,4.1594,4.1594,4.1294,4.0636,4.1069,4.1069,4.0472,3.879,3.7588,3.6758,3.6671,3.6025,3.4826,3.5797,3.621,3.6271,3.7335,3.7483,3.7016,3.6411,3.5806,3.5123,3.354,3.2352,3.1512,3.1512,3.143,3.1405,0.0,0.0,0.0,0.0,0.0,0.0,0.0,0.0,0.0,0.0,0.0,0.0,0.0,0.0,0.0,0.0,0.0,0.0,0.0,1.248,1.305,1.4307,1.454,1.5539,1.7454,1.9907,2.211,2.3985,2.4695,2.4442,2.3206,2.0779,1.8408,1.6101,1.5328,1.4243,1.2891,1.2891,1.2891,1.2891,1.2891,1.2891,0.0,0.0,0.0,0.0,0.0,0.0,0.0,0.0,1.6473,1.6798,1.6597,1.6672,1.6798,1.6572,1.6522,1.6597,1.7049,1.8455,1.9861,2.0062,2.0916,2.2221,2.4205,2.5485,2.644,2.7218,2.7996,2.8348,2.777,2.8925,3.0482,3.1964,3.3169,3.474,3.701,3.8106,3.9341,4.1186,4.1833,4.2132,4.2132,4.1923,4.1654,4.1414,4.1384,4.1384,4.1384,4.1384,4.1265,4.1025,4.0457,3.9713,3.8823,3.7415,3.6213,3.5115,3.596,3.6131,3.5719,3.6423,3.6849,3.6795,3.7079,3.707,3.6892,3.6893,3.6186,3.4933,3.3046,3.1913,3.1361,3.1035,3.111,3.1336,0.0,0.0,0.0,0.0,0.0,0.0,0.0,0.0,0.0,0.0,0.0,0.0,0.0,0.0,0.0,0.0,0.0,0.0,1.2026,1.1959,1.2662,1.4354,1.4384,1.5481,1.7896,2.0793,2.3217,2.5069,2.4779,2.3712,2.1826,1.9333,1.734,1.5749,1.4829,1.3978,1.3142,1.2968,1.2891,1.2891,1.2891,1.2891,0.0,0.0,0.0,0.0,0.0,0.0,0.0,0.0,1.6194,1.6522,1.6522,1.6522,1.6522,1.6522,1.6522,1.6522,1.6522,1.7752,1.9158,1.9685,2.1066,2.3025,2.5762,2.7143,2.8197,2.9453,2.9754,2.9779,2.9729,3.0055,3.0758,3.2014,3.3169,3.4576,3.6571,3.7561,3.8557,3.9952,4.0689,4.0995,4.0786,4.0756,4.0576,4.0157,4.0307,4.0337,4.0127,4.0127,4.0127,4.0127,3.926,3.8394,3.7682,3.6447,3.5508,3.4845,3.5732,3.6114,3.6052,3.6491,3.68,3.699,3.7008,3.7011,3.7025,3.707,3.5977,3.4087,3.2717,3.1654,3.0834,3.0482,3.0583,3.0834,0.0,0.0,0.0,0.0,0.0,0.0,0.0,0.0,0.0,0.0,0.0,0.0,0.0,0.0,0.0,0.0,0.0,0.0,1.1711,1.1405,1.1969,1.37,1.4468,1.5678,1.7359,1.9751,2.1897,2.3692,2.3138,2.1826,1.9761,1.746,1.6407,1.6337,1.4573,1.3815,1.3768,1.3142,1.2891,1.2891,1.2891,1.2891,1.2891,0.0,0.0,0.0,0.0,0.0,0.0,0.0,1.5511,1.6522,1.6522,1.6522,1.6522,1.6522,1.6522,1.6522,1.6522,1.6948,1.7802,1.9409,2.1091,2.3351,2.7218,2.7695,2.8097,3.0859,3.0557,3.0131,3.121,3.0532,3.0331,3.1938,3.3144,3.4812,3.7646,3.8062,3.8883,4.1097,4.0756,4.0127,3.9469,3.9409,3.8841,3.7494,3.8003,3.8093,3.7434,3.7404,3.7404,3.7404,3.7404,3.7404,3.7404,3.637,3.587,3.587,3.587,3.5674,3.5328,3.5719,3.6259,3.6806,3.7227,3.7404,3.7345,3.6716,3.499,3.2593,3.2593,3.1489,2.9804,2.9804,2.9804,2.9804,0.0,0.0,0.0,0.0,0.0,0.0,0.0,0.0,0.0,0.0,0.0,0.0,0.0,0.0,0.0,0.0,0.0,0.0,1.0628,1.1006,1.178,1.3042,1.3432,1.4607,1.6647,1.8665,2.0562,2.2351,2.2251,2.1004,1.8656,1.7964,1.7017,1.5813,1.5265,1.4562,1.3768,1.3142,1.2891,1.2891,1.2891,1.2891,1.2891,0.0,0.0,0.0,0.0,0.0,0.0,0.0,0.0,0.0,1.6522,1.6798,1.7049,1.6647,1.6798,1.7024,1.6622,1.7777,1.9284,2.0188,2.2246,2.4782,2.7494,2.8599,2.9829,3.2591,3.2265,3.1587,3.1913,3.1386,3.0959,3.106,3.2014,3.3348,3.521,3.588,3.669,3.8418,3.8422,3.8212,3.8033,3.8003,3.7823,3.7434,3.7584,3.7614,3.7434,3.7404,3.7404,3.7404,3.6985,3.6776,3.6776,3.603,3.5659,3.5659,3.5659,3.5642,3.5764,3.6558,3.7079,3.7198,3.688,3.6776,3.6716,3.6058,3.4516,3.2593,3.2593,3.1489,2.9804,2.9804,2.9804,2.9729,0.0,0.0,0.0,0.0,0.0,0.0,0.0,0.0,0.0,0.0,0.0,0.0,0.0,0.0,0.0,0.0,0.0,0.0,0.0,1.0513,1.1304,1.2366,1.3124,1.4538,1.6754,1.7627,1.8708,2.0051,2.0316,1.9447,1.7526,1.752,1.7063,1.6292,1.5729,1.5258,1.478,1.3968,1.3621,1.3621,1.3621,1.3478,1.3238,0.0,0.0,0.0,0.0,0.0,0.0,0.0,0.0,0.0,1.6522,1.6748,1.6974,1.6622,1.6773,1.7024,1.6898,1.8304,2.0087,2.1343,2.3577,2.6113,2.8549,3.0131,3.1637,3.352,3.2993,3.229,3.2516,3.1788,3.1165,3.0959,3.1473,3.2352,3.3669,3.4574,3.5605,3.701,3.7067,3.7045,3.7045,3.7045,3.6926,3.6686,3.6896,3.6926,3.6656,3.6656,3.6656,3.6656,3.6297,3.6088,3.6088,3.5699,3.5519,3.5519,3.5519,3.5548,3.574,3.6357,3.6806,3.7015,3.6387,3.6088,3.6058,3.5669,3.4543,3.3157,3.2904,3.1649,3.0035,2.996,2.958,2.9025,0.0,0.0,0.0,0.0,0.0,0.0,0.0,0.0,0.0,0.0,0.0,0.0,0.0,0.0,0.0,0.0,0.0,0.0,0.0,0.0,1.0662,1.1648,1.3303,1.5098,1.7095,1.659,1.6636,1.7255,1.7808,1.7592,1.6479,1.656,1.6849,1.7255,1.615,1.5915,1.6265,1.5154,1.4698,1.4698,1.4698,1.4329,1.3815,1.3815,0.0,0.0,0.0,0.0,0.0,0.0,0.0,0.0,1.6479,1.6547,1.6597,1.6547,1.6547,1.6722,1.73,1.8631,2.0439,2.2723,2.5084,2.7494,3.003,3.1813,3.3093,3.3696,3.3018,3.2466,3.2993,3.1921,3.1069,3.1291,3.1439,3.1863,3.2949,3.3991,3.5167,3.6556,3.6529,3.6387,3.6387,3.6387,3.6148,3.5549,3.6058,3.6118,3.5549,3.5519,3.5424,3.5359,3.5424,3.5424,3.527,3.5335,3.54,3.54,3.54,3.54,3.54,3.5459,3.5818,3.6357,3.5699,3.5494,3.5619,3.5499,3.4889,3.4042,3.3454,3.2122,3.0485,3.0296,2.9331,2.8147,0.0,0.0,0.0,0.0,0.0,0.0,0.0,0.0,0.0,0.0,0.0,0.0,0.0,0.0,0.0,0.0,0.0,0.0,0.0,0.0,1.0781,1.1015,1.3293,1.479,1.5268,1.5586,1.5855,1.5989,1.6536,1.6687,1.6547,1.7389,1.7414,1.6704,1.6834,1.648,1.5697,1.5017,1.4698,1.4698,1.4698,1.4329,1.3815,1.3815,1.3409,0.0,0.0,0.0,0.0,0.0,0.0,0.0,1.6324,1.6823,1.7099,1.6647,1.6848,1.7325,1.7877,1.9233,2.1117,2.3803,2.7118,2.988,3.0482,3.121,3.2039,3.3043,3.3068,3.2943,3.3043,3.2089,3.1196,3.1035,3.15,3.209,3.2596,3.3705,3.4733,3.5651,3.5759,3.5729,3.5729,3.5729,3.5669,3.5519,3.5639,3.5639,3.5519,3.5519,3.5133,3.4312,3.5067,3.4896,3.3616,3.4362,3.4711,3.4711,3.4711,3.4711,3.4711,3.525,3.5579,3.5669,3.5011,3.5332,3.6292,3.5185,3.4819,3.4881,3.4166,3.289,3.1338,3.0636,2.9836,2.886,0.0,0.0,0.0,0.0,0.0,0.0,0.0,0.0,0.0,0.0,0.0,0.0,0.0,0.0,0.0,0.0,0.0,0.0,0.0,0.0,1.03,1.1679,1.3348,1.4376,1.4698,1.4744,1.5039,1.5576,1.5589,1.6049,1.6948,1.7802,1.8028,1.7681,1.7698,1.7407,1.6797,1.5927,1.5555,1.5555,1.5555,1.5017,1.4236,1.4236,1.3884,1.3334,1.3334,0.0,0.0,0.0,0.0,0.0,0.0,0.0,1.652,1.651,1.6722,1.7099,1.7652,1.9409,2.192,2.5511,2.8323,3.0281,3.0557,3.1009,3.1562,3.2139,3.2265,3.224,3.2106,3.1562,3.0939,3.0466,3.2193,3.3781,3.3959,3.4524,3.5045,3.5469,3.5494,3.5524,3.5503,3.5135,3.5036,3.5489,3.519,3.4882,3.4434,3.4368,3.3798,3.2585,3.3082,3.291,3.2103,3.2984,3.3397,3.3397,3.3806,3.3993,3.4023,3.4382,3.4711,3.4981,3.4636,3.5095,3.6042,3.5584,3.5514,3.5681,3.4974,3.3944,3.2705,3.1254,3.0041,2.8692,0.0,0.0,0.0,0.0,0.0,0.0,0.0,0.0,0.0,0.0,0.0,0.0,0.0,0.0,0.0,0.0,0.0,0.0,0.0,0.0,0.0,1.2706,1.3321,1.3909,1.4514,1.405,1.4307,1.5443,1.4926,1.5799,1.7802,1.8078,1.8405,1.8731,1.838,1.8031,1.7713,1.6879,1.6436,1.6324,1.6479,1.5844,1.488,1.488,1.4468,1.3956,1.3815,1.419,1.4698,1.4698,0.0,0.0,0.0,0.0,1.5864,1.6324,1.6522,1.6672,1.735,1.961,2.2723,2.6691,2.8524,2.9503,3.0055,3.0507,3.0834,3.0834,3.106,3.1104,3.0823,3.0658,3.0385,2.9982,3.2535,3.4823,3.5415,3.5518,3.5537,3.5485,3.5108,3.4951,3.5455,3.4721,3.4409,3.4976,3.4465,3.3819,3.305,3.2918,3.2198,3.0825,3.0932,3.0876,3.0565,3.1273,3.1789,3.2032,3.2788,3.3095,3.2972,3.2975,3.3455,3.4325,3.4298,3.4829,3.5649,3.5987,3.6324,3.6588,3.5859,3.5005,3.3893,3.1946,3.0162,2.8208,0.0,0.0,0.0,0.0,0.0,0.0,0.0,0.0,0.0,0.0,0.0,0.0,0.0,0.0,0.0,0.0,0.0,0.0,0.5526,0.0,0.0,1.2657,1.287,1.3253,1.3909,1.3815,1.4143,1.4835,1.4744,1.6338,1.9459,1.8606,1.7978,1.7626,1.8028,1.735,1.5969,1.6355,1.6194,1.5776,1.6281,1.6107,1.5487,1.5487,1.5107,1.4514,1.4003,1.419,1.4698,1.4698,1.5062,0.0,0.0,0.0,1.6392,1.6479,1.6522,1.6748,1.7802,2.0464,2.3401,2.5435,2.6791,2.777,2.8323,2.8499,2.8549,2.8549,2.9704,3.0557,3.008,2.9528,2.9374,3.0127,3.0624,3.2009,3.5085,3.5491,3.5523,3.5492,3.3421,3.2968,3.5278,3.4697,3.3937,3.3179,3.2737,3.2478,3.2349,3.1669,3.0813,2.9731,3.0528,3.0281,2.8864,2.9278,3.0108,3.1339,3.1604,3.1427,3.0831,3.0863,3.1898,3.3636,3.3594,3.4636,3.6261,3.5733,3.6507,3.7936,3.7189,3.581,3.4096,3.2499,3.0313,2.7822,0.0,0.0,0.0,0.0,0.0,0.0,0.0,0.0,0.0,0.0,0.0,0.0,0.0,0.0,0.0,0.4273,0.4451,0.4782,0.5276,0.7298,0.9061,1.0444,1.1282,1.1796,1.2092,1.2502,1.3158,1.4147,1.4492,1.6503,0.0,1.9895,2.0091,2.0564,1.9886,1.8958,1.7872,1.6871,1.6333,1.6107,1.602,1.582,1.5576,1.5576,1.5466,1.5197,1.4903,1.4994,1.5197,1.5197,1.5152,1.5197,1.582,0.0,0.0,0.0,1.6522,1.6823,1.8279,1.9684,2.1443,2.4054,2.5084,2.5762,2.6917,2.7193,2.7193,2.7193,2.777,2.8398,2.8775,2.9043,2.9314,2.9747,2.9832,3.0403,3.197,3.2196,3.2436,3.3178,3.1604,3.1161,3.3094,3.19,3.1329,3.1948,3.1065,3.015,2.937,2.9022,2.8237,2.6915,2.7575,2.7445,2.6462,2.7375,2.8236,2.9011,2.9113,2.9174,2.9291,2.9316,3.0857,3.3478,3.356,3.445,3.5976,3.6268,3.6481,3.6566,3.6157,3.4822,3.2818,3.0238,2.8248,2.6358,0.0,0.0,0.0,0.0,0.0,0.0,0.0,0.0,0.0,0.0,0.0,0.0,0.0,0.0,0.0,0.0,0.4341,0.4516,0.5016,0.6638,0.7934,0.8672,0.9725,1.0442,1.0813,1.1466,1.2434,1.3705,1.4354,0.0,2.0253,2.097,2.2085,0.0,2.1949,2.0471,1.9032,1.7507,1.6776,1.6633,1.6073,1.582,1.582,1.582,1.582,1.582,1.5688,1.5732,1.582,1.5644,1.5421,1.5242,1.5688,1.582,0.0,0.0,0.0,1.6554,1.8006,1.8606,1.9459,2.2071,2.2949,2.3552,2.5059,2.5511,2.5661,2.5812,2.5937,2.6357,2.7373,2.8022,2.8533,2.8811,2.894,2.9077,2.9387,2.9435,2.969,3.0428,2.9344,2.903,3.0423,2.9113,2.875,3.0054,2.8948,2.7876,2.6844,2.6654,2.5961,2.4833,2.5209,2.5209,2.4833,2.5933,2.6347,2.6212,2.666,2.7145,2.7626,2.8045,2.9779,3.2563,3.2875,3.3794,3.5044,3.5883,3.5622,3.4692,3.4254,3.2671,3.0279,2.747,2.5384,2.362,0.0,0.0,0.0,0.0,0.0,0.0,0.0,0.0,0.0,0.0,0.0,0.0,0.4519,0.447,0.4477,0.4477,0.4469,0.4425,0.4271,0.5152,0.6538,0.8619,0.8776,0.0,1.0762,1.1466,1.2434,1.3705,0.0,0.0,2.0671,2.1407,2.2838,2.4632,2.3289,2.0708,1.746,0.0,0.0,0.0,1.6658,1.6479,1.6479,1.6479,1.6479,1.6367,1.582,1.5952,1.6367,1.5776,1.5952,1.6436,1.6436,1.6479,1.6324,0.0,0.0,0.0,1.6449,1.7426,1.8405,1.9108,2.0062,2.1142,2.2272,2.2924,2.3452,2.4004,2.4531,2.5102,2.5903,2.5923,2.6128,2.7182,2.7345,2.7706,2.8781,2.8941,2.8626,2.7861,2.6497,2.616,2.7683,2.7537,2.7183,2.6813,2.6317,2.6056,2.5968,2.532,2.4897,2.4833,2.4858,2.4858,2.4833,2.5127,2.4614,2.3321,2.4995,2.5692,2.5605,2.7003,2.8445,2.9899,3.1085,3.2223,3.3246,3.3447,3.3338,3.2997,3.1851,2.9293,2.6178,2.4868,2.222,1.9285,0.0,0.0,0.0,0.0,0.0,0.0,0.0,0.0,0.0,0.0,0.0,0.0,0.0,0.447,0.4477,0.4525,0.4484,0.445,0.4375,0.507,0.6081,0.732,0.7812,0.8501,0.951,1.061,1.158,1.2425,1.3961,1.6268,1.9228,2.0298,2.1162,2.1823,2.2405,2.1692,1.9846,1.7897,0.0,0.0,1.6313,1.6151,1.6522,1.6522,1.6522,1.6479,1.6238,1.6324,1.6479,1.6238,1.6324,1.6522,1.6522,1.6238,1.582,1.5197,1.5017,1.5152,1.5776,1.6199,1.6846,1.8159,1.8781,1.9384,2.0464,2.084,2.1167,2.1744,2.202,2.2362,2.2981,2.4681,2.6256,2.7145,2.7018,2.6945,2.7378,2.7041,2.6594,2.5995,2.5334,2.5335,2.6328,2.5876,2.6,2.6951,2.5879,2.4828,2.4131,2.3387,2.303,2.3201,2.3552,2.3691,2.3691,2.3476,2.3132,2.267,2.374,2.4418,2.485,2.5358,2.6363,2.7642,2.8089,2.9758,3.2138,3.2032,3.1495,3.0542,2.903,2.6367,2.3196,2.1275,1.8977,1.6738,0.0,0.0,0.0,0.0,0.0,0.0,0.0,0.0,0.0,0.4519,0.0,0.0,0.0,0.0,0.4477,0.4477,0.4802,0.4959,0.4959,0.5546,0.6199,0.6912,0.745,0.8049,0.8804,1.0115,1.1099,1.1693,1.3705,1.5823,1.8078,1.9331,1.9987,2.0074,2.1083,2.1277,0.0,0.0,1.7528,1.7806,1.6475,1.6372,1.7099,1.73,1.7476,1.7601,1.7426,1.725,1.7024,1.6647,1.6522,1.6522,1.6522,1.5952,1.5287,1.5062,1.4744,1.456,1.5353,1.5576,1.5945,1.7314,1.7652,1.7877,1.8781,1.9133,1.9434,1.9987,2.0263,2.0595,2.1217,2.2856,2.4558,2.5873,2.5827,2.5756,2.6195,2.5533,2.4911,2.4607,2.4112,2.3974,2.4528,2.4281,2.4589,2.5778,2.4879,2.3919,2.3119,2.2412,2.202,2.202,2.2573,2.2833,2.284,2.2548,2.2511,2.2724,2.3045,2.3512,2.4152,2.4423,2.504,2.586,2.6106,2.7811,3.0491,2.991,2.8919,2.7595,2.5936,2.3034,1.9575,1.7859,1.6065,1.4392,0.0,0.0,0.0,0.0,0.0,0.0,0.0,0.0,0.4519,0.4519,0.0,0.0,0.0,0.0,0.0,0.4608,0.5423,0.5909,0.5909,0.6327,0.6912,0.7664,0.7717,0.8049,0.8804,1.0115,1.1048,1.1661,1.3658,1.552,1.7242,1.859,1.9399,1.9736,1.9415,1.9452,1.971,1.9183,1.8982,1.8882,1.72,1.7225,1.8327,1.8807,1.9309,1.9685,1.9183,1.8656,1.8028,1.6948,1.6547,1.6547,1.6479,1.5644,0.0,0.0,0.0,1.4097,0.0,0.0,0.0,1.6324,1.6522,1.6672,1.7225,1.7777,1.8304,1.8857,1.9384,1.9991,2.0792,2.039,2.0743,2.31,2.3506,2.3985,2.526,2.4435,2.3699,2.3652,2.2517,2.1872,2.2264,2.275,2.3001,2.3001,2.3027,2.2972,2.2972,2.2352,2.1843,2.1468,2.197,2.2255,2.2403,2.2377,2.2724,2.3375,2.2942,2.3011,2.3521,2.425,2.4552,2.4582,2.5209,2.655,2.8136,2.6855,2.5549,2.423,2.2659,1.933,1.5403,1.4891,1.3643,1.2217,0.0,0.0,0.0,0.0,0.0,0.0,0.4519,0.4519,0.4519,0.0,0.0,0.0,0.5218,0.5719,0.6164,0.6574,0.65,0.6436,0.6436,0.6534,0.6912,0.7664,0.7717,0.8049,0.8804,0.9666,1.0407,1.1048,1.2561,1.4063,1.5452,1.623,1.7144,1.8028,1.7956,1.8211,1.8581,1.7626,1.8226,1.9656,1.7854,1.8099,1.9499,1.8697,1.853,1.8631,1.848,1.8329,1.8154,1.7852,1.7476,1.703,1.6142,0.0,0.0,0.0,0.0,0.0,1.5398,0.0,0.0,0.0,0.0,0.0,1.6722,1.6873,1.7149,1.7727,1.7953,1.8273,1.8843,1.917,1.9661,2.0763,2.1299,2.1639,2.1639,2.1672,2.1354,2.048,2.0067,1.9782,1.9735,2.0322,2.0699,2.0736,2.0711,2.0685,2.071,2.13,2.1181,2.0336,2.0424,2.0909,2.1799,2.1861,2.2235,2.2885,2.3229,2.3408,2.3585,2.3791,2.3879,2.3835,2.3612,2.4069,2.4984,2.4546,2.3565,2.2192,2.0586,1.7948,1.5013,1.4921,1.3605,1.2026,0.0,0.0,0.0,0.0,0.0,0.4974,0.5106,0.5274,0.5415,0.0,0.0,0.0,0.6156,0.6631,0.7094,0.7397,0.7345,0.728,0.728,0.7399,0.7729,0.8156,0.8156,0.8368,0.8804,0.9458,1.0115,1.0813,1.2141,1.3301,1.4329,1.5174,1.5989,1.6643,1.6935,0.0,0.0,1.6798,1.7619,1.9175,1.7631,1.8206,1.9879,1.913,1.9158,1.9585,1.9585,1.9434,1.9158,1.8706,1.8179,1.7581,1.6622,1.6303,1.617,1.5313,1.5062,0.0,0.0,0.0,1.5732,1.6324,0.0,0.0,1.6522,1.6522,1.6622,1.6948,1.7024,1.7213,1.7741,1.8104,1.8489,1.9058,1.9664,2.0258,2.0694,2.0398,1.9894,1.9184,1.8684,1.8344,1.8182,1.8883,1.9458,1.9783,1.9239,1.8908,1.8884,1.8908,1.919,1.9788,1.9793,2.0296,2.1389,2.1587,2.2034,2.2694,2.3054,2.3231,2.3231,2.348,2.345,2.3187,2.283,2.2619,2.2436,2.215,2.1484,2.0551,1.9177,1.7083,1.4798,1.4852,1.4259,1.3441,0.0,0.0,0.4525,0.4574,0.5124,0.5686,0.6037,0.6435,0.6784,0.0,0.7057,0.7115,0.7497,0.7819,0.7999,0.7892,0.8269,0.8421,0.8341,0.8667,0.8844,0.8804,0.8804,0.8804,0.8804,0.9368,1.0064,1.0813,1.1994,1.3006,1.39,1.4949,1.5537,1.5671,1.6249,0.0,0.0,1.6522,1.7124,1.8028,1.7074,1.8025,1.9989,1.9888,2.0439,2.1292,2.1292,2.1016,2.0514,1.9459,1.8756,1.8179,1.7576,1.7402,1.7171,1.6116,1.5729,0.0,0.0,0.0,0.0,1.6367,1.6572,0.0,1.6547,1.6572,1.6597,1.6479,1.6522,1.6625,1.7105,1.7271,1.7476,1.7933,1.8444,1.9373,2.1001,1.9941,1.8934,1.881,1.7931,1.7275,1.7275,1.8059,1.8857,1.9528,1.8168,1.7351,1.7368,1.6138,1.6696,1.9478,1.9613,2.0016,2.0799,2.1259,2.1784,2.2403,2.2403,2.2403,2.2448,2.304,2.2952,2.2403,2.2415,2.1694,2.0535,1.9737,1.9393,1.9246,1.8158,1.6516,1.4726,1.4873,1.5242,1.5449,0.0,0.4477,0.4684,0.5218,0.5609,0.6124,0.6796,0.7145,0.7364,0.7415,0.8455,0.9402,1.0109,1.079,1.0948,1.0265,1.0322,0.9967,0.9079,0.9068,0.9058,0.8818,0.8804,0.8804,0.8804,0.891,0.9562,1.0813,1.1065,1.2258,1.4314,1.4488,1.5185,1.6173,1.6312,1.639,1.6522,1.6522,1.6923,1.7551,1.7777,1.9297,2.1275,2.022,1.9936,2.0137,2.0137,2.0363,2.0618,1.9886,1.9309,1.8681,1.7702,1.7706,1.7912,1.7264,1.7049,1.7008,1.7045,1.6672,1.6324,1.6479,1.6873,0.0,1.6622,1.6873,1.7074,1.6622,1.6522,1.6522,1.6625,1.698,1.7353,1.7435,1.7894,1.8214,1.8181,1.8248,1.7963,1.7118,1.6802,1.6697,1.6697,1.73,1.7773,1.8012,1.6665,1.5816,1.5818,1.5879,1.6535,1.8007,1.8331,1.8702,1.918,1.9907,2.0407,2.0609,2.0609,2.0609,2.0637,2.1159,2.1131,2.0594,2.0552,2.01,1.9324,1.8116,1.7744,1.7888,1.6718,1.5604,1.4563,1.4939,1.505,1.4907,0.4484,0.4477,0.4684,0.5382,0.609,0.6865,0.7918,0.8375,0.8753,0.9208,0.9801,1.0274,1.0477,1.1019,1.1346,1.1346,1.0843,1.0464,1.0236,0.9754,0.9325,0.9031,0.9018,0.8951,0.8804,0.9106,0.9806,1.0813,1.1116,1.2214,1.3983,1.4262,1.4735,1.5389,1.5901,1.6244,1.6479,1.6703,1.7328,1.8179,1.7903,1.8846,2.0346,1.9661,1.9585,1.9836,2.0137,2.0413,2.0643,1.9987,1.9635,1.9233,1.8129,1.8355,1.8781,1.7702,1.7576,1.7677,1.7099,1.6748,1.6522,1.6522,1.6748,0.0,0.0,1.6748,1.6873,1.6572,1.6522,1.6607,1.6837,1.7105,1.7394,1.7653,1.7894,1.7894,1.7394,1.7558,1.7517,1.6964,1.6667,1.6522,1.6522,1.7049,1.741,1.7333,1.631,1.5468,1.5043,1.5658,1.6299,1.7044,1.7604,1.8393,1.9397,1.9179,1.9231,1.9493,1.9564,1.9609,1.9636,2.0202,2.0175,1.9591,1.9573,1.9179,1.8575,1.7557,1.7205,1.7237,1.6313,1.568,1.5247,1.5497,1.5749,1.5842,0.4484,0.4477,0.4746,0.5546,0.6519,0.7623,0.892,0.9556,1.0127,1.0889,1.0975,1.0821,1.0629,1.0905,1.139,1.2074,1.1015,1.0592,1.1311,1.0283,0.9552,0.9203,0.9243,0.9165,0.8818,0.9516,1.0177,1.0813,1.1536,1.2512,1.3633,1.4185,1.4511,1.4683,1.5488,1.6079,1.6527,1.6812,1.763,1.8656,1.7978,1.8279,1.9183,1.9183,1.9434,1.9886,2.0464,2.0643,2.0492,2.0087,1.9886,1.9635,1.8656,1.9032,1.951,1.7978,1.7852,1.7978,1.6948,1.6672,1.6647,1.6547,1.6672,1.6798,0.0,0.0,0.0,1.6547,1.6522,1.6625,1.7063,1.7146,1.7312,1.7693,1.7773,1.7639,1.7188,1.7146,1.7146,1.7146,1.6752,1.6522,1.6522,1.6948,1.7152,1.6979,1.6394,1.5669,1.4759,1.5466,1.6014,1.6418,1.7051,1.8042,1.9386,1.8375,1.8058,1.8453,1.855,1.8621,1.8621,1.9287,1.9216,1.8621,1.8726,1.8435,1.7831,1.7218,1.7003,1.6908,1.6173,1.592,1.607,1.5957,1.6376,1.6836,0.4546,0.4519,0.4904,0.6263,0.7043,0.7929,0.9421,1.014,1.0595,1.0942,1.1595,1.2108,1.2388,1.2817,1.315,1.3312,1.2025,1.1229,1.1357,1.0335,0.9552,0.9203,0.9486,0.9379,0.8818,0.9746,1.0424,1.0813,1.1885,1.2958,1.4009,1.4508,1.5069,1.5517,1.529,1.5902,1.7002,1.6622,1.69,1.7652,1.8505,1.9183,1.971,1.971,1.9761,1.9886,2.0464,2.0338,1.9962,2.0413,2.0213,1.971,1.9108,1.9334,1.9585,1.843,1.8154,1.8078,1.7451,1.7275,1.7149,1.6647,1.7275,1.7752,1.6748,0.0,1.7149,1.6622,0.0,1.6522,1.6607,0.0,0.0,1.6667,1.6667,1.6667,1.6607,1.6607,1.6607,1.6607,1.6565,1.6522,1.6522,1.6572,1.6539,1.6409,1.6315,1.5924,1.5102,1.5256,1.5657,1.6227,1.6478,1.6712,1.6905,1.6785,1.6697,1.6759,1.6784,1.6784,1.6809,1.7448,1.7352,1.6809,1.7384,1.7264,1.6697,1.661,1.6567,1.6485,1.5705,1.5768,1.6221,1.582,1.6058,1.6455,0.5037,0.4811,0.5177,0.6933,0.7405,0.8066,0.9662,1.0862,1.1436,1.1049,1.1696,1.2277,1.2416,1.3269,1.3785,1.3756,1.3119,1.2602,1.2415,1.0999,1.014,1.0007,0.9967,0.974,0.9325,1.0579,1.1333,1.144,1.2751,1.3815,1.4512,1.4707,1.4952,1.5154,1.5029,1.53,1.6053,1.6546,1.714,1.7873,1.9008,1.961,1.9811,1.9811,1.9811,1.9836,2.0087,2.0012,1.9786,1.9736,1.9761,1.971,1.9183,1.9384,1.9585,1.8505,1.8204,1.8003,1.7124,1.6873,1.6823,1.6572,1.6873,1.7099,1.6622,1.6697,1.6823,1.6572,0.0,0.0,0.0,0.0,0.0,0.0,1.6522,1.6367,1.602,1.5952,1.6107,1.6479,1.6522,1.6522,1.6522,1.6522,1.6492,1.6406,1.5774,1.5195,1.4893,1.4601,1.4722,1.5325,1.5773,1.6166,1.6504,1.651,1.6522,1.6522,1.6522,1.6522,1.6522,1.6773,1.6748,1.6479,1.6773,1.6748,1.6522,1.6837,1.6964,1.6964,1.6931,1.671,1.6382,1.6181,1.6281,1.6479,0.5423,0.5249,0.5563,0.7258,0.7676,0.8383,1.0102,1.1196,1.1677,1.1289,1.1717,1.2184,1.2518,1.3354,1.396,1.4245,1.3857,1.3461,1.3172,1.1668,1.0688,1.0448,1.0314,1.006,0.9686,1.0982,1.176,1.1886,1.3296,1.4253,1.4785,1.4785,1.4844,1.4941,1.4707,1.4988,1.5584,1.6383,1.7103,1.7847,1.9047,1.9631,1.9811,1.9811,1.9811,1.9811,1.9811,1.9811,1.9736,1.9359,1.9484,1.9736,1.9359,1.951,1.9585,1.8505,1.8304,1.8154,1.6873,1.6748,1.6898,1.6597,1.6647,1.6722,1.6547,1.6522,1.6522,1.6522,1.6522,0.0,0.0,0.0,1.6522,1.6522,0.0,1.6107,1.5688,1.5443,1.5599,1.6194,1.6392,1.6522,1.6522,1.6522,1.6436,1.6281,1.5421,1.4789,1.4468,1.405,1.4003,1.4422,1.5062,1.5644,1.6238,1.6436,1.6522,1.6522,1.6522,1.6522,1.6522,1.6522,1.6522,1.6522,1.6522,1.6607,1.6752,1.7146,1.7394,1.7558,1.7773,1.7394,1.671,1.671,1.6625,1.6522,0.5393,0.5642,0.6054,0.6966,0.7913,0.9114,1.0692,1.0768,1.0981,1.173,1.161,1.1891,1.3053,1.3173,1.3722,1.4878,1.3924,1.3252,1.316,1.2051,1.1022,1.0167,1.0394,1.0335,0.9699,1.0637,1.1383,1.1886,1.3063,1.4016,1.4785,1.4785,1.5,1.5352,1.4531,1.4974,1.6419,1.6069,1.631,1.6938,1.8236,1.9137,1.9811,1.9811,1.9811,1.9811,1.9811,1.9811,1.9811,1.9786,1.9786,1.9811,1.9786,1.9786,1.9585,1.8505,1.8581,1.8582,1.6974,1.7325,1.7877,1.6798,1.6948,1.72,1.6647,1.6522,1.6522,1.6522,1.6522,1.6522,1.6522,1.6522,1.6522,1.6522,1.5996,0.0,0.0,1.5107,1.4971,1.5555,1.6151,1.6522,1.6522,1.6522,1.6238,1.5664,1.5576,1.5039,1.3909,1.3815,1.3815,1.3815,1.4422,1.5017,1.5644,1.6194,1.6522,1.6522,1.6522,1.6522,1.6522,1.6522,1.6522,1.6522,1.6522,1.6795,1.7271,1.7312,1.7639,1.8013,1.7517,1.7312,1.7271,1.7271,1.6964,1.6522,0.6832,0.693,0.7131,0.7711,0.7918,0.868,1.0679,1.1396,1.1971,1.2665,1.3013,1.3641,1.4816,1.5651,1.5998,1.5591,1.5585,1.5106,1.3897,1.2852,1.2078,1.1583,1.1476,1.1409,1.1358,1.1681,1.2366,1.345,1.3826,1.4424,1.5195,1.5195,1.5273,1.5391,1.4824,1.4893,1.5355,1.5413,1.5573,1.5877,1.7096,1.8086,1.8861,1.9571,1.9811,1.9811,1.9811,1.9811,1.9811,1.9811,1.9811,1.9811,1.9811,1.9811,1.9585,1.8505,1.8329,1.8084,1.6361,1.6175,1.6375,1.5823,1.566,1.5751,1.626,1.613,1.5996,1.6436,1.6522,1.6522,1.6522,1.6522,1.6367,1.5952,1.5732,1.5309,0.0,1.456,1.4789,1.4971,1.5197,1.5466,1.5864,1.5555,1.5197,1.5017,1.463,1.4236,1.3815,1.3409,1.3382,1.3768,1.4003,1.4376,1.5017,1.5197,1.5287,1.5287,1.5287,1.5287,1.5332,1.5732,1.5908,1.5952,1.6685,1.7105,1.7353,1.8052,1.8249,1.8131,1.8288,1.7933,1.7271,1.6921,1.6667,1.6565,0.7532,0.7633,0.7819,0.8399,0.8676,0.9444,1.1075,1.1957,1.2746,1.3574,1.4001,1.4683,1.5858,1.6742,1.6838,1.6088,1.6462,1.6027,1.4233,1.3641,1.3053,1.2331,1.2118,1.2025,1.1926,1.224,1.2853,1.3795,1.4237,1.4777,1.541,1.5254,1.5273,1.5391,1.498,1.4863,1.5037,1.5184,1.526,1.5334,1.6407,1.7125,1.7698,1.8501,1.9008,1.9245,1.9052,1.9032,1.9032,1.9032,1.9032,1.9008,1.9074,1.9128,1.8981,1.8182,1.7887,1.7552,1.602,1.5584,1.5498,1.5171,1.5009,1.5036,1.5637,1.5775,1.5975,1.6377,1.6473,1.6572,1.6798,1.6473,1.6039,1.5688,1.5219,1.4584,0.0,1.4003,1.4468,1.4652,1.488,1.5197,1.5531,1.5062,1.4606,1.4376,1.4003,1.3721,1.3505,1.3113,1.3065,1.3457,1.3695,1.3862,1.4029,1.4261,1.4239,1.3986,1.386,1.386,1.4032,1.4496,1.4944,1.533,1.625,1.6938,1.7353,1.8052,1.8249,1.8092,1.8025,1.7733,1.7271,1.6921,1.6667,1.6607,0.7722,0.7944,0.8388,0.9048,1.0187,1.1223,1.1824,1.2486,1.3227,1.4429,1.4603,1.5057,1.6233,1.6339,1.6326,1.6299,1.654,1.5979,1.4269,1.4402,1.3908,1.2452,1.2385,1.2104,1.1545,1.2405,1.2925,1.3042,1.4224,1.4958,1.5274,1.4943,1.4963,1.5274,1.4924,1.5019,1.5313,1.5293,1.5352,1.5409,1.6079,1.6375,1.6407,1.6759,1.7412,1.8111,1.7712,1.7533,1.7533,1.7556,1.7533,1.7553,1.7763,1.7804,1.7716,1.7399,1.7262,1.6955,1.5816,1.5453,1.5303,1.4762,1.4915,1.5067,1.474,1.5475,1.6244,1.629,1.6406,1.6629,1.718,1.6317,1.5531,1.5531,1.4492,1.3552,1.2968,1.343,1.4003,1.4606,1.5152,1.5531,1.5531,1.4971,1.4376,1.3768,1.3768,1.3505,1.2871,1.2822,1.2822,1.2774,1.3362,1.3369,1.2725,1.3233,1.3172,1.2522,1.2161,1.2161,1.2483,1.2868,1.3561,1.4496,1.5194,1.6164,1.7271,1.7271,1.7531,1.7894,1.6802,1.6701,1.7229,1.7229,1.6964,1.6625,0.9769,1.0198,1.0628,1.1109,1.122,1.1583,1.2472,1.3026,1.3908,1.5311,1.5685,1.6273,1.7462,1.7382,1.7074,1.6633,1.666,1.6233,1.5137,1.5124,1.471,1.3681,1.3627,1.3447,1.2956,1.2431,1.2541,1.3279,1.3409,1.3518,1.3657,1.4711,1.4653,1.3657,1.477,1.4773,1.4107,1.4313,1.4398,1.4453,1.4617,1.5295,1.6128,1.5578,1.5721,1.6243,1.6896,1.6824,1.6492,1.694,1.6602,1.6031,1.6356,1.6513,1.6387,1.6072,1.5959,1.5722,1.4576,1.423,1.4143,1.3858,1.3658,1.3703,1.4327,1.4821,1.5131,1.5108,1.5516,1.5736,1.5474,1.5154,1.4789,1.4307,1.3647,1.3065,1.292,1.343,1.3862,1.4003,1.419,1.4468,1.488,1.3978,1.3286,1.3142,1.3162,1.2852,1.2129,1.208,1.1832,1.1334,1.1516,1.1499,1.1299,1.0898,1.0582,1.0318,0.9659,0.9375,0.9377,1.0381,1.1356,1.2351,1.3806,1.5253,1.6634,1.6583,1.6667,1.676,1.6009,1.5835,1.6102,1.6539,1.6879,1.7229,1.0929,1.1516,1.2104,1.2398,1.2639,1.2906,1.328,1.3734,1.4509,1.5845,1.6286,1.6767,1.7569,1.7609,1.7341,1.6754,1.67,1.6339,1.5458,1.5511,1.519,1.4309,1.4269,1.3899,1.298,1.2783,1.2868,1.3244,1.3627,1.3709,1.3554,1.4451,1.4392,1.3554,1.4451,1.4674,1.4391,1.4561,1.459,1.4434,1.4609,1.4902,0.0,1.4687,1.4648,1.4897,1.5321,1.5353,1.5214,1.5538,1.5306,1.4891,1.5215,1.5327,1.53,1.5159,1.4982,1.4631,1.3973,1.36,1.3395,1.3263,1.3203,1.3263,1.3679,1.4152,1.4588,1.4635,1.4925,1.5176,1.5082,1.4669,1.4003,1.3082,1.288,1.2774,1.2461,1.3198,1.3815,1.3815,1.3815,1.3909,1.4283,1.3478,1.2891,1.2891,1.2608,1.2246,1.1814,1.1516,1.1048,1.0324,1.0324,1.0018,0.9386,0.8936,0.8518,0.8121,0.7521,0.7408,0.7741,0.864,0.9125,0.9452,1.1869,1.3564,1.4667,1.5031,1.5348,1.564,1.5596,1.5552,1.5708,1.6514,1.7162,1.7759,1.165,1.2278,1.2946,1.3213,1.4028,1.4563,1.4349,1.4629,1.5257,1.6366,1.6727,1.6994,1.7288,1.7448,1.7301,1.6754,1.6773,1.6592,1.5776,1.6019,1.5773,1.4865,1.4884,1.4159,1.2459,1.3404,1.3508,1.2781,1.4127,1.4556,1.4172,1.4273,1.4213,1.3897,1.4213,1.4728,1.5332,1.5332,1.5117,1.4824,1.5176,1.4922,1.4243,1.4126,1.4087,1.4029,1.3652,1.373,1.4009,1.4068,1.4048,1.4037,1.4134,1.4142,1.4159,1.4157,1.3888,1.3532,1.3532,1.3238,1.2891,1.2891,1.3145,1.334,1.2969,1.3618,1.4307,1.4377,1.4471,1.4693,1.4949,1.4116,1.3034,1.1864,1.2197,1.2461,1.1864,1.2793,1.3579,1.3695,1.3674,0.0,1.3496,1.3054,1.2754,1.2696,1.2006,1.1594,1.1495,1.0831,1.014,0.9475,0.932,0.8697,0.7499,0.7281,0.6861,0.6309,0.577,0.5918,0.6627,0.6917,0.6591,0.6069,0.9283,1.124,1.2181,1.3036,1.3846,1.4492,1.5219,1.5531,1.5752,1.6954,1.7746,1.8379,1.2607,1.3039,1.3507,1.3561,1.4496,1.5311,1.5498,1.6192,1.6941,1.7649,1.7782,1.7929,1.8223,1.7635,1.7088,1.674,1.7456,1.7691,1.736,1.7933,1.7683,1.6433,1.6939,1.6021,1.3393,1.4351,1.3813,1.1677,1.3258,1.3985,1.3917,1.4803,1.4136,1.232,1.4314,1.51,1.4902,1.4902,1.4844,1.4785,1.4863,1.5019,1.5117,1.434,1.4087,1.4029,1.3652,1.3555,1.3672,1.4023,1.3906,1.3491,1.2983,1.2861,1.2665,1.1772,1.1796,1.2159,1.2159,1.254,1.2891,1.2891,1.293,1.2969,1.2891,1.3443,1.3751,1.331,1.3614,1.3647,1.2627,1.185,1.1266,1.1015,1.1065,1.1316,1.1765,1.2012,1.2374,1.2997,1.3065,1.2715,1.1884,1.1925,1.1883,1.1667,1.1059,1.0384,0.9847,0.914,0.8548,0.8066,0.7481,0.6999,0.6794,0.6152,0.5792,0.5718,0.4872,0.4364,0.4193,0.3271,0.2781,0.2752,0.528,0.796,1.0631,1.1531,1.2368,1.3253,1.44,1.5152,1.5796,1.7382,1.8474,1.9284,1.3641,1.4028,1.4429,1.4723,1.5618,1.646,1.6901,1.7595,1.7903,1.7408,1.7488,1.7515,1.7355,1.7221,1.7272,1.7387,1.7882,1.8218,1.8611,1.8807,1.8523,1.7644,1.7476,1.6493,1.438,1.4538,1.3826,1.221,1.302,1.3802,1.4653,1.5153,1.4584,1.3114,1.4688,1.5293,1.5117,1.5117,1.5117,1.5117,1.5117,1.5098,1.5019,1.4321,1.3951,1.375,1.334,1.3184,1.3203,1.3418,1.334,1.3084,1.2374,1.2121,1.1983,1.1065,1.1015,1.1266,1.1266,1.1534,1.1801,1.1801,1.1801,1.19,1.2246,1.2276,1.2258,1.2344,1.2276,1.2043,1.1416,1.1015,1.0559,0.9828,1.034,1.0661,1.0273,1.0847,1.1416,1.1783,1.167,1.1405,1.0924,1.0556,1.046,1.0859,1.0103,0.9565,0.9426,0.8373,0.747,0.6861,0.6425,0.5955,0.5374,0.5115,0.4976,0.5011,0.3603,0.3206,0.3556,0.1542,0.0299,-0.0148,0.186,0.4348,0.7193,0.9536,1.1186,1.2339,1.3478,1.4786,1.6164,1.7585,1.8815,1.9943,1.4736,1.5044,1.5404,1.5925,1.6754,1.7448,1.7782,1.845,1.8504,1.7328,1.7275,1.7244,1.7004,1.725,1.7725,1.8399,1.8658,1.905,1.9877,1.9707,1.9332,1.8768,1.8059,1.7019,1.5471,1.515,1.4495,1.3487,1.3502,1.4141,1.5388,1.5388,1.4937,1.4213,1.4688,1.4982,1.5118,1.5118,1.5235,1.541,1.5312,1.5078,1.4727,1.4199,1.3789,1.3457,1.3027,1.2774,1.2676,1.2676,1.2676,1.2559,1.1832,1.1466,1.1266,1.0559,1.0458,1.0559,1.0559,1.0712,1.0813,1.0813,1.0813,1.0965,1.1466,1.1166,1.0965,1.1466,1.0897,1.034,1.034,1.0136,0.9622,0.8633,0.9415,0.9879,0.9051,0.9879,1.0645,1.0714,1.0548,1.0267,1.0023,0.9299,0.9067,0.9755,0.9127,0.8812,0.9077,0.7797,0.6766,0.6177,0.5783,0.5186,0.4261,0.4435,0.4495,0.4495,0.3037,0.221,0.1788,-0.0307,-0.1794,-0.2598,-0.1307,0.0906,0.3881,0.7276,0.9591,1.1172,1.2494,1.4355,1.6439,1.7639,1.8956,2.0208,1.5645,1.5952,1.6246,1.6567,1.7355,1.7769,1.7301,1.8196,1.8878,1.8731,1.8277,1.8249,1.9022,1.8628,1.8746,1.9682,2.0554,2.1051,2.1123,2.1409,2.1127,2.0111,1.9743,1.8695,1.663,1.7309,1.6825,1.5196,1.5193,1.5216,1.5371,1.5371,1.4942,1.4154,1.3554,1.3614,1.4332,1.4332,1.4746,1.5371,1.5,1.4824,1.4707,1.3887,1.3535,1.3457,1.3027,1.2461,1.1913,1.1913,1.1913,1.1765,1.1116,1.0458,0.9858,0.9159,0.9406,0.9909,0.9909,1.0372,1.0813,1.0813,1.0813,1.0813,1.0864,1.0864,1.0813,1.0864,0.9828,0.8894,0.8894,0.7841,0.7171,0.7717,0.7931,0.8396,0.9547,0.9806,1.0058,1.0367,1.0398,0.9943,0.8803,0.8593,0.8313,0.7805,0.7915,0.7983,0.8058,0.694,0.6379,0.6518,0.532,0.4574,0.4457,0.4519,0.447,0.449,0.4311,0.1417,-0.3726,-0.4014,-0.4165,-0.4299,-0.4134,-0.1597,0.2546,0.4707,0.6966,0.9231,1.1573,1.3845,1.6043,1.7556,1.876,1.9753,1.6593,1.7107,1.7779,1.8568,1.942,2.004,2.0286,2.062,2.0848,2.0848,1.9711,1.8812,1.8903,1.9115,1.9714,2.0646,2.1122,2.1587,2.2315,2.209,2.1709,2.1256,2.012,1.9043,1.8061,1.7667,1.6753,1.5408,1.5367,1.541,1.541,1.541,1.5235,1.4923,1.4569,1.4628,1.4923,1.4923,1.5118,1.5371,1.4961,1.4629,1.4336,1.373,1.3359,1.3105,1.2949,1.2442,1.1814,1.1814,1.1516,1.1065,1.0407,1.0012,0.9666,0.9015,0.9015,0.9211,0.9211,0.9406,0.9614,0.9614,0.9614,0.9718,1.0115,0.9858,0.9718,1.0115,0.9444,0.862,0.8184,0.7984,0.7717,0.7128,0.7783,0.8421,0.8514,0.8935,0.9259,0.9438,0.9298,0.8922,0.8194,0.7982,0.7781,0.7513,0.7415,0.7503,0.7862,0.6646,0.6037,0.6238,0.5131,0.4388,0.4193,0.2603,0.179,0.1793,0.0329,-0.1798,-0.4477,-0.4382,-0.4328,-0.4365,-0.5053,-0.3414,-0.0205,0.1002,0.3605,0.7031,1.0433,1.3086,1.5191,1.6548,1.7958,1.9112,1.7853,1.8611,1.9636,2.0588,2.1219,2.1706,2.2274,2.2078,2.1903,2.1804,2.0772,1.9943,1.9665,2.0161,2.0819,2.1784,2.1872,2.2227,2.3057,2.2363,2.1894,2.1894,2.0215,1.9185,1.9,1.7821,1.6689,1.5668,1.5498,1.539,1.541,1.5099,1.5098,1.539,1.4921,1.4805,1.5059,1.5059,1.5177,1.5371,1.4805,1.4414,1.4029,1.3535,1.3145,1.2871,1.2657,1.2147,1.1466,1.1266,1.0762,1.0167,0.9858,0.9666,0.9406,0.8962,0.8804,0.8804,0.8804,0.8804,0.8804,0.8804,0.8804,0.8962,0.9666,0.9263,0.8962,0.942,0.8949,0.8262,0.7503,0.761,0.7503,0.647,0.7171,0.7717,0.7396,0.7996,0.8448,0.8371,0.8395,0.8207,0.7602,0.7384,0.7315,0.7315,0.6899,0.6953,0.7692,0.6558,0.5918,0.5997,0.4992,0.4368,0.4121,0.2261,0.0449,-0.1347,-0.3075,-0.402,-0.433,-0.4537,-0.4474,-0.4367,-0.5567,-0.5123,-0.3475,-0.2355,0.0447,0.4372,0.8042,1.1223,1.3894,1.5314,1.6725,1.7894,1.9493,2.0727,2.1857,2.2405,2.2519,2.2405,2.2166,2.1804,2.1426,2.1065,2.1475,2.191,2.2286,2.1981,2.2135,2.2989,2.3057,2.3057,2.3144,2.2363,2.1894,2.1894,2.0215,1.9297,1.9297,1.8027,1.6999,1.6325,1.5704,1.5425,1.5352,1.4337,1.4381,1.5313,1.3752,1.3494,1.4213,1.4213,1.4688,1.5332,1.4492,1.4087,1.399,1.3203,1.2891,1.2822,1.208,1.1366,1.0712,1.0064,0.9368,0.8962,0.9614,0.9368,0.8804,0.8804,0.8804,0.8804,0.8804,0.8804,0.8804,0.8804,0.8804,0.8962,0.9666,0.9263,0.8804,0.8804,0.8209,0.7503,0.675,0.6036,0.5538,0.5538,0.5538,0.581,0.6534,0.7235,0.7623,0.7326,0.7961,0.7996,0.6906,0.6823,0.6823,0.6823,0.6197,0.6253,0.7267,0.6606,0.6103,0.5901,0.5,0.4477,0.4506,0.4436,0.1455,-0.4475,-0.4462,-0.4337,-0.4039,-0.5062,-0.5109,-0.4567,-0.5991,-0.6892,-0.7171,-0.5039,-0.2235,0.1042,0.3934,0.7874,1.2121,1.3806,1.5149,1.5999,2.1267,2.2232,2.3143,2.353,2.4242,2.4553,2.4245,2.4059,2.3818,2.3409,2.3185,2.3195,2.3309,2.2967,2.284,2.3057,2.3144,2.3144,2.3144,2.2363,2.1894,2.1894,2.0215,1.9297,1.9297,1.8027,1.7168,1.6573,1.5785,1.5046,1.4337,1.4709,1.4784,1.4598,1.4625,1.4805,1.4982,1.4982,1.5003,1.4941,1.4355,1.3965,1.3652,1.3086,1.2608,1.2129,1.1864,1.1065,1.0064,0.9858,0.9368,0.8857,0.9054,0.8962,0.8804,0.8804,0.8804,0.8804,0.8804,0.8804,0.8804,0.8804,0.9159,0.9562,0.9769,0.9614,0.9458,0.9458,0.8514,0.745,0.675,0.6416,0.6091,0.5601,0.5928,0.6308,0.6588,0.6804,0.6934,0.6807,0.7019,0.7074,0.6841,0.6795,0.6507,0.5819,0.619,0.6712,0.7279,0.6228,0.5687,0.5873,0.4962,0.449,0.4498,0.0445,-0.2583,-0.4462,-0.3457,-0.3355,-0.4167,-0.4634,-0.4677,-0.4574,-0.5991,-0.6396,-0.6177,-0.6996,-0.5155,-0.1472,0.1285,0.3932,0.6346,0.7592,0.8545,0.9104,2.2418,2.3206,2.4022,2.4165,2.4813,2.5156,2.4863,2.4687,2.4492,2.4219,2.3809,2.3555,2.3555,2.3301,2.3144,2.3144,2.3144,2.3144,2.3144,2.2363,2.1894,2.1894,2.0215,1.9297,1.9297,1.8184,1.7324,1.6675,1.5407,1.4472,1.3804,1.4076,1.404,1.3795,1.4492,1.5021,1.541,1.541,1.5176,1.4746,1.4316,1.3887,1.3406,1.2761,1.2178,1.1715,1.1216,1.0509,0.9769,0.951,0.9159,0.8804,0.8804,0.8804,0.8804,0.8804,0.8804,0.8804,0.8804,0.8804,0.8857,0.9106,0.951,0.9821,0.9821,1.0012,1.0012,0.951,0.8514,0.745,0.675,0.6372,0.5928,0.5218,0.5492,0.5828,0.5828,0.6036,0.6209,0.6327,0.6663,0.6839,0.6751,0.6233,0.5431,0.4247,0.5259,0.6174,0.6754,0.578,0.5114,0.48,0.4247,0.3599,0.2806,-0.0946,-0.3375,-0.4462,-0.3517,-0.3522,-0.4334,-0.4689,-0.4897,-0.4952,-0.6362,-0.6902,-0.6806,-0.837,-0.7484,-0.4889,-0.2622,-0.0579,0.1184,0.1696,0.2263,0.253,2.3148,2.3824,2.4414,2.4414,2.4414,2.4414,2.4375,2.4043,2.3769,2.375,2.3398,2.3144,2.3144,2.3144,2.3144,2.3144,2.3144,2.3125,2.3105,2.2344,2.1875,2.1836,2.0195,1.9297,1.9297,1.8437,1.7531,1.6592,1.4799,1.3847,1.3757,1.2749,1.2607,1.3053,1.3647,1.4495,1.541,1.5391,1.5137,1.4707,1.4243,1.3762,1.3266,1.2159,1.1715,1.1516,1.0269,0.9755,0.9614,0.9001,0.8804,0.8804,0.8804,0.8804,0.8804,0.8804,0.8804,0.8804,0.8804,0.8857,0.9015,0.9666,0.9806,0.9858,0.9909,1.0372,1.0372,0.9106,0.8209,0.7396,0.675,0.5982,0.5218,0.4629,0.4519,0.4519,0.4519,0.5054,0.55,0.58,0.6519,0.6792,0.6201,0.4897,0.3539,0.2144,0.3445,0.4746,0.5745,0.5341,0.4449,0.3129,0.3115,0.2189,0.0319,0.011,-0.1455,-0.4356,-0.4448,-0.4484,-0.4519,-0.5164,-0.5429,-0.5592,-0.7009,-0.8025,-0.8711,-0.9227,-0.921,-0.8743,-0.7223,-0.5309,-0.3459,-0.3735,-0.361,-0.358,2.4085,2.4287,2.4414,2.4414,2.4414,2.4316,2.3984,2.3848,2.3672,2.334,2.3203,2.3144,2.3144,2.3144,2.3144,2.3144,2.3144,2.3008,2.2676,2.2168,2.1738,2.1406,2.0039,1.9297,1.9297,1.8437,1.7312,1.579,1.526,1.441,1.3197,1.3322,1.3466,1.3665,1.4581,1.5156,1.5391,1.5385,1.5119,1.4592,1.3695,1.2871,1.2109,1.1351,1.0712,1.0218,0.9909,0.9458,0.9001,0.8857,0.8804,0.8804,0.8804,0.8804,0.8804,0.8804,0.8804,0.8804,0.8804,0.9159,0.9614,0.9769,1.0167,1.0712,1.1216,1.0661,0.9961,0.9614,0.8131,0.6804,0.6642,0.5555,0.4677,0.4519,0.4519,0.4519,0.4519,0.4629,0.4746,0.4809,0.4009,0.2916,0.166,0.1258,0.0878,0.0534,0.1586,0.3003,0.4754,0.4703,0.4464,0.4142,0.4133,0.3917,0.3429,0.1168,-0.0949,-0.2742,-0.3922,-0.4477,-0.4519,-0.4677,-0.5007,-0.5538,-0.647,-0.7534,-0.8724,-0.9409,-0.9853,-0.9947,-0.9224,-0.8714,-0.8449,-0.8234,-0.835,-0.8727,2.4141,2.3965,2.3828,2.3828,2.3828,2.375,2.3535,2.3496,2.3398,2.3164,2.3144,2.3144,2.3144,2.3144,2.3144,2.3144,2.3144,2.2969,2.2539,2.2109,2.1699,2.125,1.998,1.9297,1.9297,1.8262,1.6892,1.526,1.5191,1.4454,1.3009,1.3672,1.3951,1.3826,1.4907,1.5405,1.5347,1.4298,1.3902,1.3859,1.2788,1.1957,1.1266,1.061,1.0115,0.9769,0.9458,0.9106,0.8804,0.8804,0.8804,0.8804,0.8804,0.8804,0.8804,0.8804,0.8804,0.8804,0.8804,0.9316,0.9858,1.0167,1.0762,1.1216,1.0965,1.032,0.9718,0.942,0.7865,0.6588,0.6588,0.5445,0.4519,0.4519,0.4519,0.4519,0.4525,0.4477,0.4484,0.449,0.2567,0.0332,-0.185,-0.2041,-0.2047,-0.2067,-0.0275,0.189,0.4373,0.4912,0.4967,0.4525,0.4776,0.483,0.449,0.1506,-0.0726,-0.223,-0.3749,-0.4477,-0.4519,-0.4519,-0.5062,-0.6036,-0.673,-0.8041,-0.9725,-1.073,-1.1326,-1.1538,-1.1847,-1.1707,-1.1411,-1.2035,-1.2311,-1.2414,2.3691,2.3398,2.3144,2.3144,2.3144,2.3144,2.3144,2.3144,2.3144,2.3144,2.3144,2.3144,2.3144,2.3144,2.3144,2.3144,2.3086,2.2871,2.2441,2.2012,2.1602,2.1152,1.9941,1.9297,1.9297,1.8027,1.6586,1.4961,1.5031,1.4426,1.3191,1.4034,1.4236,1.4082,1.4983,1.5407,1.5246,1.3138,1.2384,1.2448,1.1657,1.1091,1.0559,0.9909,0.9666,0.9562,0.9015,0.8804,0.8804,0.8804,0.8804,0.8804,0.8804,0.8804,0.8804,0.8804,0.8804,0.8804,0.8804,0.9316,0.9961,1.0762,1.1216,1.1216,1.0064,0.9718,0.9472,0.8964,0.7645,0.6598,0.6683,0.5462,0.4519,0.4519,0.4519,0.4525,0.4477,0.4082,0.3805,0.3822,0.1337,-0.1448,-0.4219,-0.4497,-0.4497,-0.4511,-0.184,0.1057,0.3984,0.5171,0.5329,0.4519,0.5273,0.5281,0.4532,0.1504,-0.0724,-0.223,-0.3755,-0.4484,-0.4519,-0.4519,-0.5281,-0.6642,-0.7298,-0.8854,-1.1048,-1.2288,-1.2946,-1.3328,-1.4378,-1.4242,-1.3579,-1.5233,-1.554,-1.5318,2.3242,2.3184,2.3144,2.3144,2.3144,2.3144,2.3144,2.3144,2.3144,2.3144,2.3144,2.3144,2.3144,2.3144,2.3144,2.3144,2.2812,2.2441,2.2012,2.1582,2.1133,2.0684,1.9785,1.9297,1.9297,1.8027,1.672,1.5423,1.5718,1.5279,1.4034,1.4805,1.5157,1.5138,1.5345,1.5387,1.5312,1.3681,1.1683,0.9549,1.0369,1.0371,0.9858,0.9211,0.8962,0.8962,0.8857,0.8804,0.8804,0.8804,0.8804,0.8804,0.8804,0.8804,0.8804,0.8804,0.8804,0.8804,0.8804,0.9316,1.0115,1.1366,1.0864,1.0064,0.9873,0.9368,0.8977,0.9125,0.7761,0.6703,0.6941,0.5656,0.4519,0.4519,0.4525,0.4477,0.4477,0.2282,0.0723,0.0723,-0.0835,-0.2567,-0.4317,-0.4484,-0.4484,-0.4497,-0.2508,-0.0166,0.24,0.408,0.4834,0.4519,0.5773,0.5819,0.4505,0.1495,-0.0722,-0.223,-0.3744,-0.4477,-0.4519,-0.4519,-0.5281,-0.6642,-0.7298,-0.9099,-1.1612,-1.2464,-1.3684,-1.5081,-1.5283,-1.583,-1.659,-1.721,-1.7754,-1.8275,2.3144,2.3144,2.3144,2.3144,2.3144,2.3144,2.3144,2.3144,2.3144,2.3144,2.3144,2.3144,2.3144,2.3144,2.3047,2.2812,2.2422,2.1992,2.1562,2.1348,2.1035,2.0586,1.9746,1.8965,1.8281,1.791,1.7069,1.5832,1.6201,1.5892,1.4864,1.5235,1.541,1.5391,1.5113,1.4656,1.411,1.2824,1.1219,0.9616,0.9963,1.0008,0.9718,0.9054,0.8804,0.8804,0.8804,0.8804,0.8804,0.8804,0.8804,0.8804,0.8804,0.8804,0.8804,0.8804,0.8804,0.8857,0.9263,0.9562,0.9961,1.0559,1.0269,0.9718,0.9368,0.9015,0.8725,0.8546,0.7555,0.6717,0.6527,0.5497,0.4683,0.4643,0.4585,0.3946,0.2284,0.0742,-0.08,-0.2466,-0.3213,-0.3903,-0.4599,-0.458,-0.4477,-0.4484,-0.3123,-0.1333,0.089,0.2523,0.38,0.4643,0.5179,0.5508,0.5644,0.1882,-0.1166,-0.3471,-0.415,-0.4484,-0.4525,-0.4525,-0.5117,-0.6288,-0.7647,-0.9357,-1.1332,-1.309,-1.4332,-1.5151,-1.6096,-1.6802,-1.7382,-1.8379,-1.9117,-1.9722,2.3144,2.3144,2.3144,2.3144,2.3144,2.3144,2.3144,2.3144,2.3144,2.3144,2.3144,2.3144,2.3144,2.3047,2.2871,2.2539,2.2031,2.1582,2.125,2.1133,2.0918,2.0586,1.9746,1.873,1.7559,1.7754,1.7324,1.6211,1.6465,1.6172,1.541,1.5312,1.5312,1.5391,1.4788,1.4033,1.3259,1.2184,1.1146,1.0198,0.9925,0.9718,0.951,0.9015,0.8804,0.8804,0.8804,0.8804,0.8804,0.8804,0.8804,0.8804,0.8804,0.8804,0.8804,0.8804,0.8804,0.8962,0.9614,0.9666,0.9614,0.9769,0.9666,0.9368,0.8711,0.8577,0.845,0.7915,0.725,0.6595,0.6267,0.5456,0.4558,0.3732,0.3485,0.2474,-0.0117,-0.1297,-0.2826,-0.5304,-0.5471,-0.5324,-0.5228,-0.5091,-0.4959,-0.4849,-0.4113,-0.2773,-0.0777,0.0455,0.2008,0.402,0.4373,0.5163,0.6592,0.2563,-0.1166,-0.4497,-0.4497,-0.4144,-0.3456,-0.3799,-0.456,-0.5658,-0.7781,-0.9563,-1.1199,-1.3538,-1.4744,-1.5219,-1.6744,-1.7531,-1.8025,-1.9557,-2.0384,-2.097,2.3144,2.3144,2.3144,2.3144,2.3144,2.3144,2.3144,2.3144,2.3144,2.3144,2.3144,2.3144,2.3144,2.2793,2.2539,2.2519,2.1758,2.1269,2.123,2.084,2.0605,2.0566,1.9746,1.8867,1.7988,1.7617,1.7187,1.668,1.6289,1.5879,1.541,1.5019,1.5039,1.5371,1.4496,1.3938,1.3621,1.277,1.1553,1.0171,0.9926,0.9406,0.8857,0.8804,0.8804,0.8804,0.8804,0.8804,0.8804,0.8804,0.8804,0.8804,0.8804,0.8804,0.8804,0.8804,0.8804,0.8962,0.9614,0.9368,0.9015,0.9666,0.9316,0.8711,0.8122,0.7946,0.7858,0.7614,0.6833,0.6363,0.6679,0.5709,0.3808,0.0611,0.0,-0.0485,-0.1686,-0.4423,-0.6657,-0.7594,-0.7234,-0.6783,-0.6529,-0.6436,-0.6253,-0.5846,-0.5738,-0.479,-0.2806,-0.2384,-0.0924,0.1919,0.3632,0.5177,0.6587,0.357,-0.0167,-0.4511,-0.4504,-0.3012,-0.0388,-0.1724,-0.3154,-0.4646,-0.7495,-0.9819,-1.176,-1.3253,-1.4835,-1.6336,-1.6985,-1.8127,-1.9581,-2.107,-2.1902,-2.2434,2.3144,2.3144,2.3144,2.3144,2.3144,2.3144,2.3144,2.3144,2.3144,2.3144,2.3144,2.3144,2.3144,2.2988,2.2695,2.2168,2.1836,2.1406,2.0859,2.041,2.0039,1.9785,1.9199,1.8613,1.8027,1.7852,1.7441,1.6675,1.6562,1.6113,1.541,1.5254,1.5117,1.5,1.4394,1.3635,1.2932,1.2301,1.149,1.0545,1.0022,0.9666,0.9354,0.8962,0.8804,0.8804,0.8804,0.8804,0.8804,0.8804,0.8804,0.8804,0.8804,0.8804,0.8699,0.8262,0.7771,0.7503,0.7759,0.8302,0.8791,0.8667,0.8375,0.7997,0.749,0.748,0.7465,0.6954,0.6822,0.5935,0.3124,0.218,0.1201,-0.0832,-0.3375,-0.5304,-0.5932,-0.6987,-0.7628,-0.756,-0.7182,-0.6936,-0.6789,-0.6668,-0.6524,-0.6352,-0.6352,-0.6136,-0.5692,-0.3843,-0.2227,-0.0953,0.0797,0.2858,0.528,0.3263,0.1337,-0.0334,-0.1281,-0.1111,-0.0,-0.0556,-0.1826,-0.3621,-0.6605,-0.884,-1.058,-1.2415,-1.4054,-1.5487,-1.6709,-1.797,-1.9258,-2.0735,-2.1894,-2.28,2.3144,2.3144,2.3144,2.3144,2.3144,2.3144,2.3144,2.3144,2.3144,2.3144,2.3144,2.3144,2.3144,2.291,2.2519,2.1934,2.1641,2.1211,2.0605,2.0039,1.9531,1.9102,1.8789,1.8379,1.7832,1.7812,1.7383,1.6523,1.6523,1.6133,1.541,1.5137,1.4922,1.4766,1.4043,1.3271,1.248,1.1995,1.1316,1.0474,0.9961,0.9666,0.9406,0.8962,0.8804,0.8804,0.8804,0.8804,0.8804,0.8804,0.8804,0.8752,0.854,0.8315,0.7996,0.7503,0.7139,0.6815,0.6642,0.729,0.7924,0.7656,0.7589,0.7489,0.7021,0.7091,0.6921,0.5601,0.5074,0.3856,0.0597,-0.1378,-0.2731,-0.33,-0.6133,-0.8483,-0.9033,-0.8882,-0.8717,-0.8749,-0.8494,-0.8257,-0.8117,-0.78,-0.7587,-0.7587,-0.7385,-0.7246,-0.7171,-0.5022,-0.3925,-0.4054,-0.3222,-0.1545,0.0992,0.1333,0.1729,0.2174,0.186,0.164,0.1522,0.1429,0.0057,-0.2452,-0.5719,-0.7984,-0.9526,-1.1612,-1.3253,-1.4538,-1.6071,-1.7424,-1.8711,-2.0048,-2.1187,-2.215,2.3144,2.3144,2.3144,2.3144,2.3144,2.3144,2.3144,2.3144,2.3144,2.3144,2.3144,2.3144,2.3144,2.2402,2.1894,2.1894,2.1074,2.0566,2.0547,1.9766,1.9082,1.8582,1.8633,1.8242,1.7402,1.7383,1.6953,1.6115,1.6115,1.584,1.5391,1.4476,1.4375,1.4727,1.3457,1.2757,1.248,1.1995,1.1015,0.9821,0.9806,0.9406,0.8804,0.8804,0.8804,0.8804,0.8804,0.8804,0.8804,0.8804,0.8804,0.8699,0.7889,0.7182,0.6588,0.6588,0.6933,0.7236,0.6707,0.6396,0.6322,0.6786,0.7167,0.7254,0.659,0.6777,0.6181,0.3263,0.1269,-0.0,-0.0067,-0.4411,-0.7824,-0.7184,-0.8103,-0.9186,-1.0375,-1.0111,-1.0356,-1.1768,-1.1535,-1.1173,-1.0863,-1.0218,-0.9821,-0.9821,-0.9173,-0.8168,-0.6707,-0.6145,-0.6332,-0.7268,-0.825,-0.8105,-0.6625,-0.2261,0.0726,0.223,0.4365,0.5151,0.4773,0.4581,0.2527,-0.1089,-0.4925,-0.7378,-0.8829,-1.0931,-1.2512,-1.3778,-1.5015,-1.649,-1.811,-1.9105,-1.975,-2.0313,2.3144,2.3144,2.3144,2.3144,2.3144,2.3144,2.3144,2.3144,2.3144,2.3144,2.3144,2.3144,2.3144,2.291,2.2519,2.1934,2.1641,2.0977,1.9746,1.9141,1.8516,1.7793,1.7754,1.75,1.6934,1.6934,1.6641,1.6115,1.6115,1.584,1.5391,1.4844,1.4492,1.4243,1.3148,1.2379,1.1944,1.0863,1.0167,0.9769,0.9316,0.8962,0.8804,0.8804,0.8804,0.8857,0.9316,0.951,0.951,0.951,0.962,0.9162,0.5507,0.3599,0.2898,0.3736,0.3643,0.3284,0.3483,0.4226,0.5241,0.6169,0.6487,0.6053,0.4256,0.2815,0.1614,0.0929,-0.0668,-0.2536,-0.4604,-0.6292,-0.7644,-0.8517,-0.9384,-1.0325,-1.1253,-1.1601,-1.1948,-1.2315,-1.1864,-1.1378,-1.1314,-1.1088,-1.0735,-1.0219,-0.9161,-0.8075,-0.7155,-0.6788,-0.6925,-0.7677,-0.7865,-0.8237,-0.8775,-0.5046,-0.1879,0.0661,0.202,0.338,0.4752,0.4775,0.3007,-0.0289,-0.3671,-0.6218,-0.8029,-0.968,-1.1396,-1.3185,-1.4404,-1.5318,-1.607,-1.6718,-1.7376,-1.8045,2.3144,2.3144,2.3144,2.3144,2.3144,2.3144,2.3144,2.3144,2.3144,2.3144,2.2988,2.2891,2.2891,2.2578,2.2187,2.168,2.1309,2.0586,1.9375,1.8887,1.8184,1.7168,1.7129,1.6914,1.6484,1.6641,1.6426,1.5801,1.6037,1.584,1.5391,1.4805,1.4394,1.4068,1.3275,1.2466,1.1715,1.0875,1.0187,0.9769,0.9054,0.8804,0.8804,0.8804,0.8962,0.9263,0.9666,0.9961,1.0167,1.0037,0.7662,0.4223,0.1151,-0.0834,-0.1717,-0.0319,0.0485,0.0983,0.1244,0.2072,0.3319,0.5107,0.5545,0.5218,0.403,0.0582,-0.23,-0.2136,-0.3013,-0.4422,-0.6705,-0.7297,-0.7987,-0.95,-1.0438,-1.1439,-1.2626,-1.2873,-1.3119,-1.3464,-1.2894,-1.2556,-1.2556,-1.2289,-1.1697,-1.0604,-0.9285,-0.8218,-0.7359,-0.7544,-0.7706,-0.7868,-0.8384,-0.9162,-1.012,-0.7476,-0.4646,-0.1687,-0.0395,0.1396,0.3515,0.3264,0.2071,0.0059,-0.3493,-0.5881,-0.7309,-0.8711,-1.0495,-1.2464,-1.3476,-1.4155,-1.4586,-1.4894,-1.5138,-1.5463,2.3144,2.3144,2.3144,2.3144,2.3144,2.3125,2.3086,2.3086,2.3066,2.3027,2.2695,2.2461,2.2461,2.1758,2.1269,2.123,2.0391,1.9687,1.9316,1.8848,1.7959,1.6714,1.6675,1.6504,1.6076,1.6406,1.6211,1.541,1.5801,1.5801,1.5391,1.457,1.4145,1.3999,1.3594,1.2744,1.169,1.1383,1.0704,0.971,0.9068,0.8804,0.8804,0.8804,0.9211,0.9821,0.9873,1.0269,1.061,0.9562,0.33,-0.4179,-0.4733,-0.6041,-0.6979,-0.5266,-0.2796,-0.0631,-0.0436,-0.0174,0.0728,0.3214,0.42,0.4578,0.4446,-0.0526,-0.5205,-0.5473,-0.5459,-0.5778,-0.7034,-0.7661,-0.8592,-1.0362,-1.1315,-1.2443,-1.3957,-1.3965,-1.4033,-1.4788,-1.4453,-1.4145,-1.4145,-1.3477,-1.2487,-1.121,-0.9714,-0.8421,-0.754,-0.8315,-0.8562,-0.8061,-0.959,-1.0576,-1.0913,-0.9622,-0.7483,-0.4495,-0.2735,-0.0724,0.1523,0.0751,0.025,-0.0121,-0.4176,-0.6174,-0.6696,-0.8212,-0.99,-1.1612,-1.2415,-1.2946,-1.324,-1.324,-1.2819,-1.2522,2.3144,2.3144,2.3144,2.3144,2.3144,2.3027,2.2695,2.2656,2.2539,2.2207,2.207,2.2031,2.2031,2.1855,2.1602,2.1269,2.0117,1.9375,1.9297,1.8574,1.7715,1.6714,1.6675,1.6367,1.5566,1.5644,1.5605,1.541,1.5508,1.5508,1.5391,1.4883,1.4296,1.3661,1.2674,1.1738,1.0886,1.006,0.9576,0.9275,0.8951,0.8804,0.8804,0.8804,0.9211,0.9873,1.0407,1.0661,0.9845,0.3419,-0.2695,-0.8201,-1.1201,-1.181,-1.1183,-1.0087,-0.7869,-0.5482,-0.3953,-0.2764,-0.1888,-0.1268,0.2057,0.3722,-0.1803,-0.316,-0.3956,-0.6242,-0.6043,-0.6086,-0.8376,-0.8355,-0.8784,-1.1128,-1.2197,-1.3053,-1.4094,-1.4672,-1.51,-1.5273,-1.4902,-1.4648,-1.4648,-1.3396,-1.2522,-1.2565,-1.0443,-0.9099,-0.8851,-0.8815,-0.898,-0.9373,-1.0483,-1.1394,-1.1956,-1.1404,-0.9387,-0.602,-0.4525,-0.2606,-0.0291,-0.0057,-0.0518,-0.1643,-0.4608,-0.6156,-0.674,-0.8711,-0.9761,-1.0356,-1.1548,-1.1115,-0.9783,-0.9783,-0.9343,-0.9197,2.3144,2.3144,2.3144,2.3144,2.3541,2.3634,2.2938,2.3222,2.3233,2.231,2.2012,2.1816,2.1602,2.1387,2.1074,2.0644,1.9609,1.8984,1.8984,1.8359,1.7617,1.6777,1.6675,1.6309,1.543,1.5215,1.5117,1.5117,1.5117,1.5117,1.5098,1.4278,1.3793,1.3561,1.2609,1.1704,1.0942,1.0275,0.9825,0.9435,0.8964,0.8804,0.8857,0.9159,0.9718,1.0372,1.1065,1.0707,0.8856,0.1669,-0.489,-1.0668,-1.4472,-1.5677,-1.5298,-1.363,-1.1547,-0.9308,-0.716,-0.5065,-0.3635,-0.3892,-0.1883,-0.0514,-0.3416,-0.4017,-0.4561,-0.6639,-0.6168,-0.621,-0.8818,-0.8613,-0.8977,-1.1888,-1.2765,-1.3433,-1.4628,-1.5118,-1.541,-1.541,-1.5215,-1.5078,-1.5078,-1.3965,-1.3169,-1.2992,-1.1454,-1.0148,-0.9332,-0.9517,-0.9729,-0.9866,-1.1157,-1.2096,-1.2681,-1.2319,-1.1353,-0.9791,-0.8008,-0.6155,-0.4225,-0.4163,-0.4175,-0.4219,-0.5609,-0.6534,-0.7149,-0.8305,-0.9363,-1.032,-1.0712,-0.9982,-0.8698,-0.8791,-0.8751,-0.9042,2.3647,2.3647,2.3607,2.3547,2.4343,2.4535,2.3499,2.3947,2.395,2.2542,2.1958,2.1523,2.1152,2.0723,2.0273,1.9844,1.9023,1.8535,1.8535,1.793,1.7224,1.6452,1.6224,1.5799,1.5001,1.464,1.4561,1.4785,1.4596,1.4501,1.4501,1.3368,1.2975,1.3159,1.2589,1.1872,1.1162,1.0831,1.0313,0.9722,0.9056,0.8699,0.8699,0.9354,0.9961,1.0559,1.1285,1.0809,0.8822,0.1854,-0.5701,-1.2752,-1.6019,-1.7965,-1.8551,-1.6111,-1.4227,-1.2328,-0.9665,-0.7138,-0.5316,-0.5612,-0.5523,-0.5098,-0.3781,-0.4469,-0.5719,-0.6968,-0.6358,-0.6408,-0.9011,-0.8807,-0.9233,-1.232,-1.2887,-1.3494,-1.5001,-1.5294,-1.541,-1.541,-1.541,-1.541,-1.541,-1.4688,-1.3914,-1.3252,-1.2443,-1.1329,-0.9843,-1.0541,-1.0795,-1.0309,-1.1776,-1.2831,-1.3351,-1.3106,-1.3246,-1.3872,-1.1974,-1.0228,-0.8563,-0.8777,-0.822,-0.7051,-0.696,-0.7267,-0.7817,-0.8119,-0.9117,-1.0423,-1.0115,-0.9377,-0.8501,-0.8408,-0.8949,-0.9833,2.5819,2.6069,2.5832,2.5333,2.5407,2.5121,2.4227,2.3474,2.2757,2.2143,2.1288,2.0723,2.0664,2.0273,1.9824,1.9414,1.8594,1.8086,1.8086,1.6647,1.5606,1.5166,1.4442,1.3797,1.3312,1.3016,1.3522,1.4785,1.3792,1.3332,1.3332,1.2837,1.2298,1.1642,1.1813,1.1414,1.065,1.0109,0.9806,0.9683,0.9059,0.8421,0.7943,0.8633,0.8988,0.9131,1.012,1.1775,1.192,0.1997,-0.7796,-1.5936,-1.6616,-1.8058,-1.9148,-1.7223,-1.5818,-1.4115,-1.0581,-0.8978,-0.8126,-0.6996,-0.6069,-0.5635,-0.6625,-0.6092,-0.5903,-0.7521,-0.7186,-0.7307,-0.997,-0.9716,-0.9767,-1.164,-1.2581,-1.3312,-1.4213,-1.4923,-1.541,-1.541,-1.541,-1.541,-1.541,-1.4688,-1.4154,-1.4034,-1.3312,-1.2443,-1.1516,-1.2212,-1.2304,-1.1581,-1.2789,-1.3752,-1.4479,-1.4732,-1.5182,-1.5813,-1.5126,-1.3511,-1.1032,-1.0049,-0.9429,-0.9141,-0.8619,-0.8462,-0.8619,-0.9879,-0.9858,-0.9159,-1.0269,-0.9533,-0.7664,-0.6436,-0.7182,-0.8869,2.5939,2.6281,2.6237,2.5271,2.5938,2.587,2.3981,2.3894,2.3409,2.1744,2.1015,2.0469,2.0234,1.9008,1.7893,1.7189,1.6378,1.5927,1.5927,1.5257,1.4629,1.4184,1.379,1.3434,1.3025,1.2506,1.2592,1.3464,1.2604,1.2249,1.2401,1.1313,1.0827,1.0793,1.0058,0.9668,0.9581,0.9122,0.9253,0.9646,0.8707,0.8148,0.805,0.8693,0.8951,0.9126,1.0199,1.0622,0.9538,0.2389,-0.4935,-1.1695,-1.5453,-1.7608,-1.8436,-1.6914,-1.5679,-1.4249,-1.1608,-1.0162,-0.9272,-0.8783,-0.7698,-0.7042,-0.7849,-0.7317,-0.6994,-0.8463,-0.8021,-0.8086,-1.0225,-0.9919,-1.0021,-1.2135,-1.2765,-1.3433,-1.4688,-1.5507,-1.6026,-1.6026,-1.5642,-1.541,-1.541,-1.5059,-1.4688,-1.4213,-1.3855,-1.3312,-1.2504,-1.2826,-1.3235,-1.3725,-1.4271,-1.5096,-1.6293,-1.6223,-1.6528,-1.7143,-1.6734,-1.5399,-1.334,-1.24,-1.158,-1.0947,-1.0788,-1.0415,-0.9885,-1.0389,-1.0337,-0.9909,-0.9769,-0.8924,-0.7741,-0.6998,-0.7356,-0.8371]}]]